<?xml version="1.0" encoding="UTF-8" standalone="no" ?>
<gpx xmlns="http://www.topografix.com/GPX/1/1" xmlns:xsi="http://www.w3.org/2001/XMLSchema-instance" xsi:schemaLocation="http://www.topografix.com/GPX/1/1 http://www.topografix.com/GPX/1/1/gpx.xsd" version="1.1" creator="VisuGPX - https://www.visugpx.com">
  <metadata>
    <name>2020-03-13-Ski de rando cime de la Jasse</name>
    <desc><![CDATA[Avec Edeline et Séb
On rejoint Séb qui a rallié le parking en vélo électrique. ça l'a un peu entammé mais pas tant que ça.
Dernière sortie avant le confinement.]]></desc>
  </metadata>
  <trk>
    <name><![CDATA[2020-03-13-Ski de rando cime de la Jasse]]></name>
    <desc><![CDATA[Avec Edeline et Séb
On rejoint Séb qui a rallié le parking en vélo électrique. ça l'a un peu entammé mais pas tant que ça.
Dernière sortie avant le confinement.]]></desc>
    <trkseg>
      <trkpt lat="45.22483" lon="5.99827">
        <ele>1256.1</ele>
        <time>2020-03-13T09:34:03Z</time>
      </trkpt>
      <trkpt lat="45.22485" lon="5.99827">
        <ele>1256.1</ele>
        <time>2020-03-13T09:34:05Z</time>
      </trkpt>
      <trkpt lat="45.22492" lon="5.9983">
        <ele>1259.94</ele>
        <time>2020-03-13T09:34:19Z</time>
      </trkpt>
      <trkpt lat="45.22492" lon="5.99831">
        <ele>1263.31</ele>
        <time>2020-03-13T09:34:20Z</time>
      </trkpt>
      <trkpt lat="45.22492" lon="5.99831">
        <ele>1266.67</ele>
        <time>2020-03-13T09:34:21Z</time>
      </trkpt>
      <trkpt lat="45.22492" lon="5.99831">
        <ele>1269.56</ele>
        <time>2020-03-13T09:34:22Z</time>
      </trkpt>
      <trkpt lat="45.22494" lon="5.99831">
        <ele>1275.33</ele>
        <time>2020-03-13T09:34:24Z</time>
      </trkpt>
      <trkpt lat="45.22497" lon="5.9983">
        <ele>1280.61</ele>
        <time>2020-03-13T09:34:26Z</time>
      </trkpt>
      <trkpt lat="45.22499" lon="5.9983">
        <ele>1285.9</ele>
        <time>2020-03-13T09:34:28Z</time>
      </trkpt>
      <trkpt lat="45.22499" lon="5.99829">
        <ele>1290.71</ele>
        <time>2020-03-13T09:34:30Z</time>
      </trkpt>
      <trkpt lat="45.22499" lon="5.99829">
        <ele>1295.51</ele>
        <time>2020-03-13T09:34:32Z</time>
      </trkpt>
      <trkpt lat="45.22499" lon="5.99829">
        <ele>1299.84</ele>
        <time>2020-03-13T09:34:33Z</time>
      </trkpt>
      <trkpt lat="45.22498" lon="5.99829">
        <ele>1299.84</ele>
        <time>2020-03-13T09:34:34Z</time>
      </trkpt>
      <trkpt lat="45.22498" lon="5.99829">
        <ele>1303.69</ele>
        <time>2020-03-13T09:34:36Z</time>
      </trkpt>
      <trkpt lat="45.22498" lon="5.99829">
        <ele>1307.53</ele>
        <time>2020-03-13T09:34:38Z</time>
      </trkpt>
      <trkpt lat="45.22498" lon="5.99829">
        <ele>1310.9</ele>
        <time>2020-03-13T09:34:40Z</time>
      </trkpt>
      <trkpt lat="45.22497" lon="5.9983">
        <ele>1314.26</ele>
        <time>2020-03-13T09:34:42Z</time>
      </trkpt>
      <trkpt lat="45.22497" lon="5.9983">
        <ele>1317.14</ele>
        <time>2020-03-13T09:34:44Z</time>
      </trkpt>
      <trkpt lat="45.22496" lon="5.99829">
        <ele>1321.47</ele>
        <time>2020-03-13T09:34:47Z</time>
      </trkpt>
      <trkpt lat="45.22496" lon="5.99828">
        <ele>1325.31</ele>
        <time>2020-03-13T09:34:50Z</time>
      </trkpt>
      <trkpt lat="45.22496" lon="5.99828">
        <ele>1329.16</ele>
        <time>2020-03-13T09:34:53Z</time>
      </trkpt>
      <trkpt lat="45.22496" lon="5.99828">
        <ele>1332.52</ele>
        <time>2020-03-13T09:34:56Z</time>
      </trkpt>
      <trkpt lat="45.22495" lon="5.99828">
        <ele>1336.37</ele>
        <time>2020-03-13T09:34:59Z</time>
      </trkpt>
      <trkpt lat="45.22495" lon="5.99828">
        <ele>1336.37</ele>
        <time>2020-03-13T09:35:00Z</time>
      </trkpt>
      <trkpt lat="45.22495" lon="5.99828">
        <ele>1339.73</ele>
        <time>2020-03-13T09:35:04Z</time>
      </trkpt>
      <trkpt lat="45.22494" lon="5.99829">
        <ele>1343.1</ele>
        <time>2020-03-13T09:35:08Z</time>
      </trkpt>
      <trkpt lat="45.22492" lon="5.9983">
        <ele>1346.46</ele>
        <time>2020-03-13T09:35:13Z</time>
      </trkpt>
      <trkpt lat="45.22491" lon="5.99831">
        <ele>1349.83</ele>
        <time>2020-03-13T09:35:19Z</time>
      </trkpt>
      <trkpt lat="45.22491" lon="5.99832">
        <ele>1351.75</ele>
        <time>2020-03-13T09:35:24Z</time>
      </trkpt>
      <trkpt lat="45.22488" lon="5.99836">
        <ele>1355.12</ele>
        <time>2020-03-13T09:35:38Z</time>
      </trkpt>
      <trkpt lat="45.22496" lon="5.99833">
        <ele>1356.08</ele>
        <time>2020-03-13T09:36:22Z</time>
      </trkpt>
      <trkpt lat="45.22482" lon="5.99827">
        <ele>1356.56</ele>
        <time>2020-03-13T09:37:10Z</time>
      </trkpt>
      <trkpt lat="45.22481" lon="5.99827">
        <ele>1358.96</ele>
        <time>2020-03-13T09:37:42Z</time>
      </trkpt>
      <trkpt lat="45.22482" lon="5.99827">
        <ele>1358.96</ele>
        <time>2020-03-13T09:37:43Z</time>
      </trkpt>
      <trkpt lat="45.22492" lon="5.99818">
        <ele>1359.44</ele>
        <time>2020-03-13T09:38:11Z</time>
      </trkpt>
      <trkpt lat="45.22491" lon="5.99822">
        <ele>1358.48</ele>
        <time>2020-03-13T09:38:19Z</time>
      </trkpt>
      <trkpt lat="45.22481" lon="5.99829">
        <ele>1358.48</ele>
        <time>2020-03-13T09:38:40Z</time>
      </trkpt>
      <trkpt lat="45.22485" lon="5.99822">
        <ele>1358.48</ele>
        <time>2020-03-13T09:39:08Z</time>
      </trkpt>
      <trkpt lat="45.22486" lon="5.99815">
        <ele>1358.48</ele>
        <time>2020-03-13T09:39:41Z</time>
      </trkpt>
      <trkpt lat="45.22491" lon="5.99814">
        <ele>1358.48</ele>
        <time>2020-03-13T09:40:12Z</time>
      </trkpt>
      <trkpt lat="45.22501" lon="5.99816">
        <ele>1358</ele>
        <time>2020-03-13T09:40:51Z</time>
      </trkpt>
      <trkpt lat="45.22495" lon="5.9982">
        <ele>1358</ele>
        <time>2020-03-13T09:41:34Z</time>
      </trkpt>
      <trkpt lat="45.22499" lon="5.99819">
        <ele>1358.48</ele>
        <time>2020-03-13T09:42:14Z</time>
      </trkpt>
      <trkpt lat="45.22488" lon="5.99819">
        <ele>1358.48</ele>
        <time>2020-03-13T09:43:00Z</time>
      </trkpt>
      <trkpt lat="45.22484" lon="5.99817">
        <ele>1358.96</ele>
        <time>2020-03-13T09:43:32Z</time>
      </trkpt>
      <trkpt lat="45.22477" lon="5.9982">
        <ele>1358.96</ele>
        <time>2020-03-13T09:43:55Z</time>
      </trkpt>
      <trkpt lat="45.22472" lon="5.99828">
        <ele>1358.96</ele>
        <time>2020-03-13T09:44:21Z</time>
      </trkpt>
      <trkpt lat="45.22473" lon="5.99829">
        <ele>1358.48</ele>
        <time>2020-03-13T09:44:53Z</time>
      </trkpt>
      <trkpt lat="45.22484" lon="5.99826">
        <ele>1358.48</ele>
        <time>2020-03-13T09:45:17Z</time>
      </trkpt>
      <trkpt lat="45.22484" lon="5.99821">
        <ele>1358.48</ele>
        <time>2020-03-13T09:45:49Z</time>
      </trkpt>
      <trkpt lat="45.2248" lon="5.99817">
        <ele>1358</ele>
        <time>2020-03-13T09:46:06Z</time>
      </trkpt>
      <trkpt lat="45.22462" lon="5.99837">
        <ele>1358.96</ele>
        <time>2020-03-13T09:46:24Z</time>
      </trkpt>
      <trkpt lat="45.22447" lon="5.99848">
        <ele>1359.44</ele>
        <time>2020-03-13T09:46:35Z</time>
      </trkpt>
      <trkpt lat="45.22449" lon="5.99867">
        <ele>1360.4</ele>
        <time>2020-03-13T09:46:49Z</time>
      </trkpt>
      <trkpt lat="45.22455" lon="5.99889">
        <ele>1360.88</ele>
        <time>2020-03-13T09:47:03Z</time>
      </trkpt>
      <trkpt lat="45.2246" lon="5.99891">
        <ele>1362.33</ele>
        <time>2020-03-13T09:47:15Z</time>
      </trkpt>
      <trkpt lat="45.22463" lon="5.99889">
        <ele>1362.81</ele>
        <time>2020-03-13T09:47:22Z</time>
      </trkpt>
      <trkpt lat="45.22484" lon="5.99868">
        <ele>1364.25</ele>
        <time>2020-03-13T09:47:44Z</time>
      </trkpt>
      <trkpt lat="45.22479" lon="5.99849">
        <ele>1364.73</ele>
        <time>2020-03-13T09:47:59Z</time>
      </trkpt>
      <trkpt lat="45.22495" lon="5.99859">
        <ele>1364.25</ele>
        <time>2020-03-13T09:48:20Z</time>
      </trkpt>
      <trkpt lat="45.22484" lon="5.99857">
        <ele>1364.73</ele>
        <time>2020-03-13T09:48:36Z</time>
      </trkpt>
      <trkpt lat="45.22474" lon="5.9986">
        <ele>1364.73</ele>
        <time>2020-03-13T09:48:59Z</time>
      </trkpt>
      <trkpt lat="45.22483" lon="5.99855">
        <ele>1364.25</ele>
        <time>2020-03-13T09:49:31Z</time>
      </trkpt>
      <trkpt lat="45.22477" lon="5.99851">
        <ele>1364.73</ele>
        <time>2020-03-13T09:49:48Z</time>
      </trkpt>
      <trkpt lat="45.22465" lon="5.99855">
        <ele>1364.25</ele>
        <time>2020-03-13T09:50:25Z</time>
      </trkpt>
      <trkpt lat="45.22471" lon="5.99861">
        <ele>1364.25</ele>
        <time>2020-03-13T09:50:55Z</time>
      </trkpt>
      <trkpt lat="45.22469" lon="5.99854">
        <ele>1363.77</ele>
        <time>2020-03-13T09:51:17Z</time>
      </trkpt>
      <trkpt lat="45.22468" lon="5.99856">
        <ele>1363.77</ele>
        <time>2020-03-13T09:51:44Z</time>
      </trkpt>
      <trkpt lat="45.22467" lon="5.99863">
        <ele>1363.29</ele>
        <time>2020-03-13T09:52:20Z</time>
      </trkpt>
      <trkpt lat="45.22474" lon="5.99865">
        <ele>1363.29</ele>
        <time>2020-03-13T09:53:03Z</time>
      </trkpt>
      <trkpt lat="45.22461" lon="5.99884">
        <ele>1361.36</ele>
        <time>2020-03-13T09:53:22Z</time>
      </trkpt>
      <trkpt lat="45.22436" lon="5.99885">
        <ele>1360.88</ele>
        <time>2020-03-13T09:53:37Z</time>
      </trkpt>
      <trkpt lat="45.22443" lon="5.99894">
        <ele>1359.92</ele>
        <time>2020-03-13T09:53:57Z</time>
      </trkpt>
      <trkpt lat="45.22448" lon="5.99904">
        <ele>1362.81</ele>
        <time>2020-03-13T09:54:13Z</time>
      </trkpt>
      <trkpt lat="45.22445" lon="5.99919">
        <ele>1365.21</ele>
        <time>2020-03-13T09:54:39Z</time>
      </trkpt>
      <trkpt lat="45.22445" lon="5.99932">
        <ele>1368.09</ele>
        <time>2020-03-13T09:54:57Z</time>
      </trkpt>
      <trkpt lat="45.22444" lon="5.99941">
        <ele>1370.02</ele>
        <time>2020-03-13T09:55:13Z</time>
      </trkpt>
      <trkpt lat="45.22435" lon="5.99961">
        <ele>1372.42</ele>
        <time>2020-03-13T09:55:31Z</time>
      </trkpt>
      <trkpt lat="45.22429" lon="5.99974">
        <ele>1374.82</ele>
        <time>2020-03-13T09:55:48Z</time>
      </trkpt>
      <trkpt lat="45.22424" lon="5.99986">
        <ele>1376.75</ele>
        <time>2020-03-13T09:56:03Z</time>
      </trkpt>
      <trkpt lat="45.22423" lon="5.99999">
        <ele>1378.67</ele>
        <time>2020-03-13T09:56:18Z</time>
      </trkpt>
      <trkpt lat="45.22424" lon="6.00011">
        <ele>1381.55</ele>
        <time>2020-03-13T09:56:33Z</time>
      </trkpt>
      <trkpt lat="45.2242" lon="6.00027">
        <ele>1383.96</ele>
        <time>2020-03-13T09:56:51Z</time>
      </trkpt>
      <trkpt lat="45.22419" lon="6.00043">
        <ele>1387.32</ele>
        <time>2020-03-13T09:57:09Z</time>
      </trkpt>
      <trkpt lat="45.22417" lon="6.00056">
        <ele>1389.72</ele>
        <time>2020-03-13T09:57:26Z</time>
      </trkpt>
      <trkpt lat="45.22412" lon="6.00064">
        <ele>1391.17</ele>
        <time>2020-03-13T09:57:41Z</time>
      </trkpt>
      <trkpt lat="45.22407" lon="6.00072">
        <ele>1393.57</ele>
        <time>2020-03-13T09:57:57Z</time>
      </trkpt>
      <trkpt lat="45.22409" lon="6.00085">
        <ele>1396.45</ele>
        <time>2020-03-13T09:58:16Z</time>
      </trkpt>
      <trkpt lat="45.22403" lon="6.00098">
        <ele>1399.34</ele>
        <time>2020-03-13T09:58:34Z</time>
      </trkpt>
      <trkpt lat="45.22402" lon="6.00106">
        <ele>1402.7</ele>
        <time>2020-03-13T09:58:48Z</time>
      </trkpt>
      <trkpt lat="45.2239" lon="6.00117">
        <ele>1404.62</ele>
        <time>2020-03-13T09:59:05Z</time>
      </trkpt>
      <trkpt lat="45.22378" lon="6.00119">
        <ele>1407.99</ele>
        <time>2020-03-13T09:59:27Z</time>
      </trkpt>
      <trkpt lat="45.22363" lon="6.00129">
        <ele>1410.87</ele>
        <time>2020-03-13T09:59:49Z</time>
      </trkpt>
      <trkpt lat="45.22356" lon="6.00141">
        <ele>1413.76</ele>
        <time>2020-03-13T10:00:07Z</time>
      </trkpt>
      <trkpt lat="45.22352" lon="6.00151">
        <ele>1414.24</ele>
        <time>2020-03-13T10:00:25Z</time>
      </trkpt>
      <trkpt lat="45.22348" lon="6.00157">
        <ele>1415.2</ele>
        <time>2020-03-13T10:00:41Z</time>
      </trkpt>
      <trkpt lat="45.22344" lon="6.00151">
        <ele>1415.2</ele>
        <time>2020-03-13T10:00:59Z</time>
      </trkpt>
      <trkpt lat="45.22343" lon="6.00154">
        <ele>1415.2</ele>
        <time>2020-03-13T10:01:19Z</time>
      </trkpt>
      <trkpt lat="45.22327" lon="6.00143">
        <ele>1414.72</ele>
        <time>2020-03-13T10:01:40Z</time>
      </trkpt>
      <trkpt lat="45.22305" lon="6.00138">
        <ele>1414.72</ele>
        <time>2020-03-13T10:01:57Z</time>
      </trkpt>
      <trkpt lat="45.2231" lon="6.00139">
        <ele>1414.72</ele>
        <time>2020-03-13T10:02:19Z</time>
      </trkpt>
      <trkpt lat="45.22311" lon="6.00143">
        <ele>1415.2</ele>
        <time>2020-03-13T10:02:53Z</time>
      </trkpt>
      <trkpt lat="45.22315" lon="6.00141">
        <ele>1415.2</ele>
        <time>2020-03-13T10:03:20Z</time>
      </trkpt>
      <trkpt lat="45.22302" lon="6.00135">
        <ele>1415.2</ele>
        <time>2020-03-13T10:03:48Z</time>
      </trkpt>
      <trkpt lat="45.22303" lon="6.00135">
        <ele>1415.2</ele>
        <time>2020-03-13T10:04:12Z</time>
      </trkpt>
      <trkpt lat="45.22283" lon="6.00128">
        <ele>1415.2</ele>
        <time>2020-03-13T10:04:36Z</time>
      </trkpt>
      <trkpt lat="45.22292" lon="6.00122">
        <ele>1415.68</ele>
        <time>2020-03-13T10:05:03Z</time>
      </trkpt>
      <trkpt lat="45.22293" lon="6.00123">
        <ele>1415.68</ele>
        <time>2020-03-13T10:05:28Z</time>
      </trkpt>
      <trkpt lat="45.22279" lon="6.00125">
        <ele>1415.68</ele>
        <time>2020-03-13T10:05:54Z</time>
      </trkpt>
      <trkpt lat="45.22314" lon="6.00149">
        <ele>1416.16</ele>
        <time>2020-03-13T10:06:10Z</time>
      </trkpt>
      <trkpt lat="45.22308" lon="6.00151">
        <ele>1417.12</ele>
        <time>2020-03-13T10:06:19Z</time>
      </trkpt>
      <trkpt lat="45.22297" lon="6.00163">
        <ele>1418.08</ele>
        <time>2020-03-13T10:06:34Z</time>
      </trkpt>
      <trkpt lat="45.22301" lon="6.00176">
        <ele>1419.04</ele>
        <time>2020-03-13T10:06:41Z</time>
      </trkpt>
      <trkpt lat="45.22305" lon="6.00197">
        <ele>1420.49</ele>
        <time>2020-03-13T10:06:56Z</time>
      </trkpt>
      <trkpt lat="45.22297" lon="6.00205">
        <ele>1422.89</ele>
        <time>2020-03-13T10:07:13Z</time>
      </trkpt>
      <trkpt lat="45.22296" lon="6.00205">
        <ele>1422.89</ele>
        <time>2020-03-13T10:07:14Z</time>
      </trkpt>
      <trkpt lat="45.22294" lon="6.00205">
        <ele>1422.89</ele>
        <time>2020-03-13T10:07:15Z</time>
      </trkpt>
      <trkpt lat="45.22295" lon="6.00219">
        <ele>1425.29</ele>
        <time>2020-03-13T10:07:28Z</time>
      </trkpt>
      <trkpt lat="45.22298" lon="6.00235">
        <ele>1428.18</ele>
        <time>2020-03-13T10:07:41Z</time>
      </trkpt>
      <trkpt lat="45.22301" lon="6.0025">
        <ele>1431.06</ele>
        <time>2020-03-13T10:07:57Z</time>
      </trkpt>
      <trkpt lat="45.22306" lon="6.00263">
        <ele>1433.46</ele>
        <time>2020-03-13T10:08:12Z</time>
      </trkpt>
      <trkpt lat="45.22313" lon="6.00273">
        <ele>1435.87</ele>
        <time>2020-03-13T10:08:28Z</time>
      </trkpt>
      <trkpt lat="45.22316" lon="6.00287">
        <ele>1437.79</ele>
        <time>2020-03-13T10:08:42Z</time>
      </trkpt>
      <trkpt lat="45.22318" lon="6.00301">
        <ele>1439.71</ele>
        <time>2020-03-13T10:08:58Z</time>
      </trkpt>
      <trkpt lat="45.22317" lon="6.00315">
        <ele>1441.15</ele>
        <time>2020-03-13T10:09:12Z</time>
      </trkpt>
      <trkpt lat="45.22316" lon="6.0033">
        <ele>1442.6</ele>
        <time>2020-03-13T10:09:27Z</time>
      </trkpt>
      <trkpt lat="45.22313" lon="6.00346">
        <ele>1444.52</ele>
        <time>2020-03-13T10:09:43Z</time>
      </trkpt>
      <trkpt lat="45.22311" lon="6.00361">
        <ele>1446.92</ele>
        <time>2020-03-13T10:09:59Z</time>
      </trkpt>
      <trkpt lat="45.22306" lon="6.00374">
        <ele>1449.32</ele>
        <time>2020-03-13T10:10:17Z</time>
      </trkpt>
      <trkpt lat="45.223" lon="6.00384">
        <ele>1451.25</ele>
        <time>2020-03-13T10:10:36Z</time>
      </trkpt>
      <trkpt lat="45.22296" lon="6.00393">
        <ele>1453.65</ele>
        <time>2020-03-13T10:10:50Z</time>
      </trkpt>
      <trkpt lat="45.2229" lon="6.00397">
        <ele>1456.53</ele>
        <time>2020-03-13T10:11:04Z</time>
      </trkpt>
      <trkpt lat="45.22283" lon="6.00407">
        <ele>1458.46</ele>
        <time>2020-03-13T10:11:19Z</time>
      </trkpt>
      <trkpt lat="45.2228" lon="6.00419">
        <ele>1462.3</ele>
        <time>2020-03-13T10:11:33Z</time>
      </trkpt>
      <trkpt lat="45.22279" lon="6.00432">
        <ele>1465.67</ele>
        <time>2020-03-13T10:11:48Z</time>
      </trkpt>
      <trkpt lat="45.22271" lon="6.00435">
        <ele>1467.11</ele>
        <time>2020-03-13T10:12:04Z</time>
      </trkpt>
      <trkpt lat="45.22266" lon="6.00432">
        <ele>1467.59</ele>
        <time>2020-03-13T10:12:21Z</time>
      </trkpt>
      <trkpt lat="45.22269" lon="6.00434">
        <ele>1467.11</ele>
        <time>2020-03-13T10:12:45Z</time>
      </trkpt>
      <trkpt lat="45.2227" lon="6.00437">
        <ele>1467.11</ele>
        <time>2020-03-13T10:13:09Z</time>
      </trkpt>
      <trkpt lat="45.22262" lon="6.00437">
        <ele>1468.55</ele>
        <time>2020-03-13T10:13:25Z</time>
      </trkpt>
      <trkpt lat="45.22251" lon="6.00437">
        <ele>1471.44</ele>
        <time>2020-03-13T10:13:40Z</time>
      </trkpt>
      <trkpt lat="45.22245" lon="6.00435">
        <ele>1473.84</ele>
        <time>2020-03-13T10:13:53Z</time>
      </trkpt>
      <trkpt lat="45.22237" lon="6.00438">
        <ele>1476.72</ele>
        <time>2020-03-13T10:14:08Z</time>
      </trkpt>
      <trkpt lat="45.22237" lon="6.00449">
        <ele>1480.09</ele>
        <time>2020-03-13T10:14:23Z</time>
      </trkpt>
      <trkpt lat="45.22236" lon="6.00463">
        <ele>1482.97</ele>
        <time>2020-03-13T10:14:39Z</time>
      </trkpt>
      <trkpt lat="45.22233" lon="6.00477">
        <ele>1485.37</ele>
        <time>2020-03-13T10:14:55Z</time>
      </trkpt>
      <trkpt lat="45.22232" lon="6.00488">
        <ele>1488.74</ele>
        <time>2020-03-13T10:15:11Z</time>
      </trkpt>
      <trkpt lat="45.22227" lon="6.00498">
        <ele>1491.62</ele>
        <time>2020-03-13T10:15:27Z</time>
      </trkpt>
      <trkpt lat="45.22224" lon="6.00505">
        <ele>1494.99</ele>
        <time>2020-03-13T10:15:42Z</time>
      </trkpt>
      <trkpt lat="45.22225" lon="6.00522">
        <ele>1497.39</ele>
        <time>2020-03-13T10:15:58Z</time>
      </trkpt>
      <trkpt lat="45.22227" lon="6.00536">
        <ele>1500.76</ele>
        <time>2020-03-13T10:16:15Z</time>
      </trkpt>
      <trkpt lat="45.22229" lon="6.0055">
        <ele>1503.64</ele>
        <time>2020-03-13T10:16:34Z</time>
      </trkpt>
      <trkpt lat="45.2223" lon="6.00562">
        <ele>1506.52</ele>
        <time>2020-03-13T10:16:48Z</time>
      </trkpt>
      <trkpt lat="45.22231" lon="6.00574">
        <ele>1509.41</ele>
        <time>2020-03-13T10:17:06Z</time>
      </trkpt>
      <trkpt lat="45.22231" lon="6.00584">
        <ele>1511.81</ele>
        <time>2020-03-13T10:17:20Z</time>
      </trkpt>
      <trkpt lat="45.22232" lon="6.00596">
        <ele>1514.69</ele>
        <time>2020-03-13T10:17:37Z</time>
      </trkpt>
      <trkpt lat="45.22233" lon="6.00608">
        <ele>1517.1</ele>
        <time>2020-03-13T10:17:59Z</time>
      </trkpt>
      <trkpt lat="45.22235" lon="6.00617">
        <ele>1519.5</ele>
        <time>2020-03-13T10:18:13Z</time>
      </trkpt>
      <trkpt lat="45.22237" lon="6.00624">
        <ele>1521.42</ele>
        <time>2020-03-13T10:18:32Z</time>
      </trkpt>
      <trkpt lat="45.22241" lon="6.00635">
        <ele>1523.83</ele>
        <time>2020-03-13T10:18:48Z</time>
      </trkpt>
      <trkpt lat="45.22243" lon="6.00643">
        <ele>1525.27</ele>
        <time>2020-03-13T10:19:00Z</time>
      </trkpt>
      <trkpt lat="45.22245" lon="6.00651">
        <ele>1527.19</ele>
        <time>2020-03-13T10:19:18Z</time>
      </trkpt>
      <trkpt lat="45.22247" lon="6.00662">
        <ele>1529.11</ele>
        <time>2020-03-13T10:19:33Z</time>
      </trkpt>
      <trkpt lat="45.22246" lon="6.00676">
        <ele>1531.52</ele>
        <time>2020-03-13T10:19:49Z</time>
      </trkpt>
      <trkpt lat="45.22244" lon="6.00691">
        <ele>1533.44</ele>
        <time>2020-03-13T10:20:06Z</time>
      </trkpt>
      <trkpt lat="45.22244" lon="6.00706">
        <ele>1534.4</ele>
        <time>2020-03-13T10:20:22Z</time>
      </trkpt>
      <trkpt lat="45.22243" lon="6.00721">
        <ele>1536.32</ele>
        <time>2020-03-13T10:20:37Z</time>
      </trkpt>
      <trkpt lat="45.22242" lon="6.00737">
        <ele>1538.73</ele>
        <time>2020-03-13T10:20:54Z</time>
      </trkpt>
      <trkpt lat="45.2224" lon="6.00748">
        <ele>1540.65</ele>
        <time>2020-03-13T10:21:10Z</time>
      </trkpt>
      <trkpt lat="45.22239" lon="6.00759">
        <ele>1542.57</ele>
        <time>2020-03-13T10:21:25Z</time>
      </trkpt>
      <trkpt lat="45.22233" lon="6.0077">
        <ele>1543.53</ele>
        <time>2020-03-13T10:21:39Z</time>
      </trkpt>
      <trkpt lat="45.22231" lon="6.00777">
        <ele>1544.01</ele>
        <time>2020-03-13T10:21:56Z</time>
      </trkpt>
      <trkpt lat="45.22229" lon="6.00788">
        <ele>1546.9</ele>
        <time>2020-03-13T10:22:11Z</time>
      </trkpt>
      <trkpt lat="45.22228" lon="6.00803">
        <ele>1550.26</ele>
        <time>2020-03-13T10:22:29Z</time>
      </trkpt>
      <trkpt lat="45.22225" lon="6.00816">
        <ele>1553.15</ele>
        <time>2020-03-13T10:22:46Z</time>
      </trkpt>
      <trkpt lat="45.22224" lon="6.00829">
        <ele>1556.51</ele>
        <time>2020-03-13T10:23:04Z</time>
      </trkpt>
      <trkpt lat="45.22227" lon="6.00839">
        <ele>1558.92</ele>
        <time>2020-03-13T10:23:23Z</time>
      </trkpt>
      <trkpt lat="45.22231" lon="6.00851">
        <ele>1560.36</ele>
        <time>2020-03-13T10:23:36Z</time>
      </trkpt>
      <trkpt lat="45.22236" lon="6.00861">
        <ele>1562.76</ele>
        <time>2020-03-13T10:23:55Z</time>
      </trkpt>
      <trkpt lat="45.22238" lon="6.00871">
        <ele>1565.16</ele>
        <time>2020-03-13T10:24:08Z</time>
      </trkpt>
      <trkpt lat="45.22244" lon="6.00878">
        <ele>1565.64</ele>
        <time>2020-03-13T10:24:22Z</time>
      </trkpt>
      <trkpt lat="45.22246" lon="6.00889">
        <ele>1568.05</ele>
        <time>2020-03-13T10:24:38Z</time>
      </trkpt>
      <trkpt lat="45.22245" lon="6.00905">
        <ele>1570.93</ele>
        <time>2020-03-13T10:24:54Z</time>
      </trkpt>
      <trkpt lat="45.22246" lon="6.00915">
        <ele>1573.82</ele>
        <time>2020-03-13T10:25:11Z</time>
      </trkpt>
      <trkpt lat="45.22245" lon="6.00927">
        <ele>1577.66</ele>
        <time>2020-03-13T10:25:32Z</time>
      </trkpt>
      <trkpt lat="45.22236" lon="6.00928">
        <ele>1579.1</ele>
        <time>2020-03-13T10:25:49Z</time>
      </trkpt>
      <trkpt lat="45.2223" lon="6.00931">
        <ele>1581.51</ele>
        <time>2020-03-13T10:26:07Z</time>
      </trkpt>
      <trkpt lat="45.22231" lon="6.00941">
        <ele>1583.43</ele>
        <time>2020-03-13T10:26:24Z</time>
      </trkpt>
      <trkpt lat="45.22235" lon="6.00952">
        <ele>1585.83</ele>
        <time>2020-03-13T10:26:39Z</time>
      </trkpt>
      <trkpt lat="45.22234" lon="6.00963">
        <ele>1587.75</ele>
        <time>2020-03-13T10:26:55Z</time>
      </trkpt>
      <trkpt lat="45.22229" lon="6.00968">
        <ele>1589.68</ele>
        <time>2020-03-13T10:27:18Z</time>
      </trkpt>
      <trkpt lat="45.22228" lon="6.00982">
        <ele>1592.08</ele>
        <time>2020-03-13T10:27:38Z</time>
      </trkpt>
      <trkpt lat="45.22229" lon="6.00997">
        <ele>1594.48</ele>
        <time>2020-03-13T10:27:53Z</time>
      </trkpt>
      <trkpt lat="45.22234" lon="6.01015">
        <ele>1596.89</ele>
        <time>2020-03-13T10:28:12Z</time>
      </trkpt>
      <trkpt lat="45.22234" lon="6.01032">
        <ele>1598.81</ele>
        <time>2020-03-13T10:28:28Z</time>
      </trkpt>
      <trkpt lat="45.22233" lon="6.01048">
        <ele>1601.69</ele>
        <time>2020-03-13T10:28:45Z</time>
      </trkpt>
      <trkpt lat="45.22236" lon="6.01066">
        <ele>1604.1</ele>
        <time>2020-03-13T10:29:03Z</time>
      </trkpt>
      <trkpt lat="45.22233" lon="6.0108">
        <ele>1606.02</ele>
        <time>2020-03-13T10:29:18Z</time>
      </trkpt>
      <trkpt lat="45.22234" lon="6.01094">
        <ele>1608.42</ele>
        <time>2020-03-13T10:29:35Z</time>
      </trkpt>
      <trkpt lat="45.22237" lon="6.01109">
        <ele>1610.83</ele>
        <time>2020-03-13T10:29:51Z</time>
      </trkpt>
      <trkpt lat="45.2224" lon="6.01123">
        <ele>1613.23</ele>
        <time>2020-03-13T10:30:07Z</time>
      </trkpt>
      <trkpt lat="45.2224" lon="6.0114">
        <ele>1615.15</ele>
        <time>2020-03-13T10:30:24Z</time>
      </trkpt>
      <trkpt lat="45.22241" lon="6.01156">
        <ele>1617.07</ele>
        <time>2020-03-13T10:30:41Z</time>
      </trkpt>
      <trkpt lat="45.22242" lon="6.01172">
        <ele>1618.04</ele>
        <time>2020-03-13T10:30:56Z</time>
      </trkpt>
      <trkpt lat="45.22243" lon="6.01186">
        <ele>1619.96</ele>
        <time>2020-03-13T10:31:12Z</time>
      </trkpt>
      <trkpt lat="45.22244" lon="6.01195">
        <ele>1621.88</ele>
        <time>2020-03-13T10:31:31Z</time>
      </trkpt>
      <trkpt lat="45.22243" lon="6.01194">
        <ele>1620.44</ele>
        <time>2020-03-13T10:31:48Z</time>
      </trkpt>
      <trkpt lat="45.22243" lon="6.01196">
        <ele>1620.44</ele>
        <time>2020-03-13T10:32:12Z</time>
      </trkpt>
      <trkpt lat="45.22244" lon="6.01198">
        <ele>1620.44</ele>
        <time>2020-03-13T10:32:47Z</time>
      </trkpt>
      <trkpt lat="45.22243" lon="6.01196">
        <ele>1620.44</ele>
        <time>2020-03-13T10:33:14Z</time>
      </trkpt>
      <trkpt lat="45.22243" lon="6.01203">
        <ele>1621.88</ele>
        <time>2020-03-13T10:33:40Z</time>
      </trkpt>
      <trkpt lat="45.22244" lon="6.01212">
        <ele>1624.77</ele>
        <time>2020-03-13T10:33:57Z</time>
      </trkpt>
      <trkpt lat="45.22243" lon="6.01222">
        <ele>1627.65</ele>
        <time>2020-03-13T10:34:12Z</time>
      </trkpt>
      <trkpt lat="45.22241" lon="6.01231">
        <ele>1631.01</ele>
        <time>2020-03-13T10:34:26Z</time>
      </trkpt>
      <trkpt lat="45.22237" lon="6.01243">
        <ele>1633.42</ele>
        <time>2020-03-13T10:34:42Z</time>
      </trkpt>
      <trkpt lat="45.22234" lon="6.01258">
        <ele>1635.82</ele>
        <time>2020-03-13T10:34:59Z</time>
      </trkpt>
      <trkpt lat="45.22232" lon="6.01268">
        <ele>1638.7</ele>
        <time>2020-03-13T10:35:16Z</time>
      </trkpt>
      <trkpt lat="45.22231" lon="6.01284">
        <ele>1641.59</ele>
        <time>2020-03-13T10:35:33Z</time>
      </trkpt>
      <trkpt lat="45.2223" lon="6.01297">
        <ele>1644.47</ele>
        <time>2020-03-13T10:35:49Z</time>
      </trkpt>
      <trkpt lat="45.22238" lon="6.01301">
        <ele>1646.88</ele>
        <time>2020-03-13T10:36:10Z</time>
      </trkpt>
      <trkpt lat="45.22246" lon="6.01309">
        <ele>1649.28</ele>
        <time>2020-03-13T10:36:26Z</time>
      </trkpt>
      <trkpt lat="45.22257" lon="6.01306">
        <ele>1651.68</ele>
        <time>2020-03-13T10:36:43Z</time>
      </trkpt>
      <trkpt lat="45.22262" lon="6.01304">
        <ele>1652.64</ele>
        <time>2020-03-13T10:36:59Z</time>
      </trkpt>
      <trkpt lat="45.2227" lon="6.01302">
        <ele>1653.6</ele>
        <time>2020-03-13T10:37:18Z</time>
      </trkpt>
      <trkpt lat="45.22282" lon="6.01301">
        <ele>1656.97</ele>
        <time>2020-03-13T10:37:36Z</time>
      </trkpt>
      <trkpt lat="45.22284" lon="6.01315">
        <ele>1658.89</ele>
        <time>2020-03-13T10:37:50Z</time>
      </trkpt>
      <trkpt lat="45.22279" lon="6.01326">
        <ele>1660.81</ele>
        <time>2020-03-13T10:38:04Z</time>
      </trkpt>
      <trkpt lat="45.22277" lon="6.01339">
        <ele>1663.22</ele>
        <time>2020-03-13T10:38:19Z</time>
      </trkpt>
      <trkpt lat="45.22275" lon="6.01357">
        <ele>1664.66</ele>
        <time>2020-03-13T10:38:35Z</time>
      </trkpt>
      <trkpt lat="45.22263" lon="6.01369">
        <ele>1667.06</ele>
        <time>2020-03-13T10:38:56Z</time>
      </trkpt>
      <trkpt lat="45.22252" lon="6.01375">
        <ele>1669.47</ele>
        <time>2020-03-13T10:39:12Z</time>
      </trkpt>
      <trkpt lat="45.22243" lon="6.01381">
        <ele>1671.39</ele>
        <time>2020-03-13T10:39:27Z</time>
      </trkpt>
      <trkpt lat="45.22233" lon="6.01394">
        <ele>1673.31</ele>
        <time>2020-03-13T10:39:46Z</time>
      </trkpt>
      <trkpt lat="45.22229" lon="6.01409">
        <ele>1675.72</ele>
        <time>2020-03-13T10:40:03Z</time>
      </trkpt>
      <trkpt lat="45.22226" lon="6.01424">
        <ele>1678.6</ele>
        <time>2020-03-13T10:40:19Z</time>
      </trkpt>
      <trkpt lat="45.22229" lon="6.01433">
        <ele>1680.04</ele>
        <time>2020-03-13T10:40:28Z</time>
      </trkpt>
      <trkpt lat="45.22234" lon="6.01454">
        <ele>1681</ele>
        <time>2020-03-13T10:40:44Z</time>
      </trkpt>
      <trkpt lat="45.22235" lon="6.01458">
        <ele>1681</ele>
        <time>2020-03-13T10:41:03Z</time>
      </trkpt>
      <trkpt lat="45.22238" lon="6.01475">
        <ele>1681.96</ele>
        <time>2020-03-13T10:41:19Z</time>
      </trkpt>
      <trkpt lat="45.22242" lon="6.01495">
        <ele>1682.44</ele>
        <time>2020-03-13T10:41:35Z</time>
      </trkpt>
      <trkpt lat="45.22248" lon="6.01516">
        <ele>1682.93</ele>
        <time>2020-03-13T10:41:53Z</time>
      </trkpt>
      <trkpt lat="45.2225" lon="6.0153">
        <ele>1682.93</ele>
        <time>2020-03-13T10:42:04Z</time>
      </trkpt>
      <trkpt lat="45.22252" lon="6.01554">
        <ele>1682.44</ele>
        <time>2020-03-13T10:42:20Z</time>
      </trkpt>
      <trkpt lat="45.22256" lon="6.01574">
        <ele>1682.93</ele>
        <time>2020-03-13T10:42:35Z</time>
      </trkpt>
      <trkpt lat="45.22258" lon="6.01589">
        <ele>1682.93</ele>
        <time>2020-03-13T10:42:46Z</time>
      </trkpt>
      <trkpt lat="45.22262" lon="6.01613">
        <ele>1683.89</ele>
        <time>2020-03-13T10:43:04Z</time>
      </trkpt>
      <trkpt lat="45.22264" lon="6.01634">
        <ele>1682.44</ele>
        <time>2020-03-13T10:43:17Z</time>
      </trkpt>
      <trkpt lat="45.22266" lon="6.01669">
        <ele>1681</ele>
        <time>2020-03-13T10:43:34Z</time>
      </trkpt>
      <trkpt lat="45.22264" lon="6.01699">
        <ele>1680.04</ele>
        <time>2020-03-13T10:43:50Z</time>
      </trkpt>
      <trkpt lat="45.22264" lon="6.01723">
        <ele>1679.56</ele>
        <time>2020-03-13T10:44:07Z</time>
      </trkpt>
      <trkpt lat="45.22262" lon="6.01748">
        <ele>1679.08</ele>
        <time>2020-03-13T10:44:23Z</time>
      </trkpt>
      <trkpt lat="45.22251" lon="6.01758">
        <ele>1679.08</ele>
        <time>2020-03-13T10:44:38Z</time>
      </trkpt>
      <trkpt lat="45.22247" lon="6.01758">
        <ele>1680.52</ele>
        <time>2020-03-13T10:44:43Z</time>
      </trkpt>
      <trkpt lat="45.22235" lon="6.01756">
        <ele>1682.93</ele>
        <time>2020-03-13T10:45:00Z</time>
      </trkpt>
      <trkpt lat="45.22224" lon="6.01761">
        <ele>1684.85</ele>
        <time>2020-03-13T10:45:15Z</time>
      </trkpt>
      <trkpt lat="45.22222" lon="6.01764">
        <ele>1685.33</ele>
        <time>2020-03-13T10:45:19Z</time>
      </trkpt>
      <trkpt lat="45.22218" lon="6.01782">
        <ele>1688.21</ele>
        <time>2020-03-13T10:45:37Z</time>
      </trkpt>
      <trkpt lat="45.22225" lon="6.01794">
        <ele>1689.65</ele>
        <time>2020-03-13T10:45:53Z</time>
      </trkpt>
      <trkpt lat="45.22236" lon="6.01815">
        <ele>1690.14</ele>
        <time>2020-03-13T10:46:09Z</time>
      </trkpt>
      <trkpt lat="45.22241" lon="6.0183">
        <ele>1692.54</ele>
        <time>2020-03-13T10:46:23Z</time>
      </trkpt>
      <trkpt lat="45.22247" lon="6.01845">
        <ele>1694.94</ele>
        <time>2020-03-13T10:46:43Z</time>
      </trkpt>
      <trkpt lat="45.22248" lon="6.0186">
        <ele>1697.34</ele>
        <time>2020-03-13T10:46:59Z</time>
      </trkpt>
      <trkpt lat="45.22248" lon="6.01876">
        <ele>1698.31</ele>
        <time>2020-03-13T10:47:14Z</time>
      </trkpt>
      <trkpt lat="45.22249" lon="6.01897">
        <ele>1699.75</ele>
        <time>2020-03-13T10:47:32Z</time>
      </trkpt>
      <trkpt lat="45.2225" lon="6.01914">
        <ele>1701.19</ele>
        <time>2020-03-13T10:47:48Z</time>
      </trkpt>
      <trkpt lat="45.22249" lon="6.01931">
        <ele>1702.15</ele>
        <time>2020-03-13T10:48:02Z</time>
      </trkpt>
      <trkpt lat="45.22247" lon="6.01944">
        <ele>1703.59</ele>
        <time>2020-03-13T10:48:16Z</time>
      </trkpt>
      <trkpt lat="45.22244" lon="6.01963">
        <ele>1703.59</ele>
        <time>2020-03-13T10:48:32Z</time>
      </trkpt>
      <trkpt lat="45.22243" lon="6.01971">
        <ele>1703.59</ele>
        <time>2020-03-13T10:48:37Z</time>
      </trkpt>
      <trkpt lat="45.22246" lon="6.01987">
        <ele>1704.55</ele>
        <time>2020-03-13T10:48:54Z</time>
      </trkpt>
      <trkpt lat="45.22247" lon="6.01992">
        <ele>1705.52</ele>
        <time>2020-03-13T10:49:12Z</time>
      </trkpt>
      <trkpt lat="45.2225" lon="6.02004">
        <ele>1707.44</ele>
        <time>2020-03-13T10:49:28Z</time>
      </trkpt>
      <trkpt lat="45.2225" lon="6.02003">
        <ele>1706</ele>
        <time>2020-03-13T10:49:49Z</time>
      </trkpt>
      <trkpt lat="45.22249" lon="6.01999">
        <ele>1706</ele>
        <time>2020-03-13T10:50:26Z</time>
      </trkpt>
      <trkpt lat="45.22247" lon="6.01999">
        <ele>1705.52</ele>
        <time>2020-03-13T10:51:06Z</time>
      </trkpt>
      <trkpt lat="45.22251" lon="6.02">
        <ele>1706.96</ele>
        <time>2020-03-13T10:51:26Z</time>
      </trkpt>
      <trkpt lat="45.22252" lon="6.02002">
        <ele>1706.96</ele>
        <time>2020-03-13T10:51:53Z</time>
      </trkpt>
      <trkpt lat="45.22252" lon="6.02002">
        <ele>1706.48</ele>
        <time>2020-03-13T10:52:12Z</time>
      </trkpt>
      <trkpt lat="45.22249" lon="6.02004">
        <ele>1706.96</ele>
        <time>2020-03-13T10:52:38Z</time>
      </trkpt>
      <trkpt lat="45.22249" lon="6.02007">
        <ele>1706.96</ele>
        <time>2020-03-13T10:53:06Z</time>
      </trkpt>
      <trkpt lat="45.2225" lon="6.02008">
        <ele>1706.96</ele>
        <time>2020-03-13T10:53:10Z</time>
      </trkpt>
      <trkpt lat="45.2225" lon="6.02019">
        <ele>1708.88</ele>
        <time>2020-03-13T10:53:27Z</time>
      </trkpt>
      <trkpt lat="45.22249" lon="6.02033">
        <ele>1710.8</ele>
        <time>2020-03-13T10:53:45Z</time>
      </trkpt>
      <trkpt lat="45.22249" lon="6.02045">
        <ele>1712.73</ele>
        <time>2020-03-13T10:54:01Z</time>
      </trkpt>
      <trkpt lat="45.2225" lon="6.02059">
        <ele>1715.13</ele>
        <time>2020-03-13T10:54:16Z</time>
      </trkpt>
      <trkpt lat="45.22249" lon="6.02071">
        <ele>1717.53</ele>
        <time>2020-03-13T10:54:32Z</time>
      </trkpt>
      <trkpt lat="45.22249" lon="6.02082">
        <ele>1719.94</ele>
        <time>2020-03-13T10:54:48Z</time>
      </trkpt>
      <trkpt lat="45.22252" lon="6.02096">
        <ele>1722.34</ele>
        <time>2020-03-13T10:55:05Z</time>
      </trkpt>
      <trkpt lat="45.22253" lon="6.02112">
        <ele>1724.74</ele>
        <time>2020-03-13T10:55:22Z</time>
      </trkpt>
      <trkpt lat="45.22251" lon="6.02128">
        <ele>1725.7</ele>
        <time>2020-03-13T10:55:37Z</time>
      </trkpt>
      <trkpt lat="45.22247" lon="6.02146">
        <ele>1726.18</ele>
        <time>2020-03-13T10:55:52Z</time>
      </trkpt>
      <trkpt lat="45.22246" lon="6.0216">
        <ele>1727.63</ele>
        <time>2020-03-13T10:56:07Z</time>
      </trkpt>
      <trkpt lat="45.22249" lon="6.02173">
        <ele>1729.55</ele>
        <time>2020-03-13T10:56:24Z</time>
      </trkpt>
      <trkpt lat="45.22254" lon="6.02174">
        <ele>1730.03</ele>
        <time>2020-03-13T10:56:29Z</time>
      </trkpt>
      <trkpt lat="45.22267" lon="6.02173">
        <ele>1731.95</ele>
        <time>2020-03-13T10:56:45Z</time>
      </trkpt>
      <trkpt lat="45.2228" lon="6.02172">
        <ele>1733.39</ele>
        <time>2020-03-13T10:57:02Z</time>
      </trkpt>
      <trkpt lat="45.22291" lon="6.0217">
        <ele>1735.32</ele>
        <time>2020-03-13T10:57:18Z</time>
      </trkpt>
      <trkpt lat="45.22302" lon="6.02171">
        <ele>1736.28</ele>
        <time>2020-03-13T10:57:34Z</time>
      </trkpt>
      <trkpt lat="45.22306" lon="6.02176">
        <ele>1737.24</ele>
        <time>2020-03-13T10:57:42Z</time>
      </trkpt>
      <trkpt lat="45.22313" lon="6.02185">
        <ele>1739.64</ele>
        <time>2020-03-13T10:57:58Z</time>
      </trkpt>
      <trkpt lat="45.22318" lon="6.02196">
        <ele>1741.57</ele>
        <time>2020-03-13T10:58:14Z</time>
      </trkpt>
      <trkpt lat="45.22322" lon="6.02207">
        <ele>1743.49</ele>
        <time>2020-03-13T10:58:28Z</time>
      </trkpt>
      <trkpt lat="45.22329" lon="6.02218">
        <ele>1745.41</ele>
        <time>2020-03-13T10:58:45Z</time>
      </trkpt>
      <trkpt lat="45.22337" lon="6.02228">
        <ele>1747.33</ele>
        <time>2020-03-13T10:59:01Z</time>
      </trkpt>
      <trkpt lat="45.22343" lon="6.02235">
        <ele>1748.78</ele>
        <time>2020-03-13T10:59:15Z</time>
      </trkpt>
      <trkpt lat="45.22346" lon="6.02236">
        <ele>1748.78</ele>
        <time>2020-03-13T10:59:33Z</time>
      </trkpt>
      <trkpt lat="45.22351" lon="6.02239">
        <ele>1749.26</ele>
        <time>2020-03-13T10:59:55Z</time>
      </trkpt>
      <trkpt lat="45.22359" lon="6.02247">
        <ele>1750.7</ele>
        <time>2020-03-13T11:00:10Z</time>
      </trkpt>
      <trkpt lat="45.22367" lon="6.0225">
        <ele>1753.1</ele>
        <time>2020-03-13T11:00:27Z</time>
      </trkpt>
      <trkpt lat="45.22374" lon="6.0225">
        <ele>1755.5</ele>
        <time>2020-03-13T11:00:40Z</time>
      </trkpt>
      <trkpt lat="45.22381" lon="6.02247">
        <ele>1757.43</ele>
        <time>2020-03-13T11:00:54Z</time>
      </trkpt>
      <trkpt lat="45.22387" lon="6.02241">
        <ele>1759.35</ele>
        <time>2020-03-13T11:01:08Z</time>
      </trkpt>
      <trkpt lat="45.22393" lon="6.02236">
        <ele>1761.75</ele>
        <time>2020-03-13T11:01:22Z</time>
      </trkpt>
      <trkpt lat="45.22394" lon="6.02243">
        <ele>1762.71</ele>
        <time>2020-03-13T11:01:40Z</time>
      </trkpt>
      <trkpt lat="45.22393" lon="6.02257">
        <ele>1764.16</ele>
        <time>2020-03-13T11:01:58Z</time>
      </trkpt>
      <trkpt lat="45.22391" lon="6.02269">
        <ele>1765.6</ele>
        <time>2020-03-13T11:02:15Z</time>
      </trkpt>
      <trkpt lat="45.2239" lon="6.02277">
        <ele>1767.04</ele>
        <time>2020-03-13T11:02:28Z</time>
      </trkpt>
      <trkpt lat="45.22388" lon="6.02286">
        <ele>1768.96</ele>
        <time>2020-03-13T11:02:43Z</time>
      </trkpt>
      <trkpt lat="45.22389" lon="6.02298">
        <ele>1770.41</ele>
        <time>2020-03-13T11:03:00Z</time>
      </trkpt>
      <trkpt lat="45.22392" lon="6.02307">
        <ele>1771.85</ele>
        <time>2020-03-13T11:03:16Z</time>
      </trkpt>
      <trkpt lat="45.22394" lon="6.02317">
        <ele>1774.25</ele>
        <time>2020-03-13T11:03:34Z</time>
      </trkpt>
      <trkpt lat="45.22395" lon="6.02328">
        <ele>1775.69</ele>
        <time>2020-03-13T11:03:49Z</time>
      </trkpt>
      <trkpt lat="45.22393" lon="6.02335">
        <ele>1777.61</ele>
        <time>2020-03-13T11:04:06Z</time>
      </trkpt>
      <trkpt lat="45.22392" lon="6.02345">
        <ele>1779.54</ele>
        <time>2020-03-13T11:04:20Z</time>
      </trkpt>
      <trkpt lat="45.22392" lon="6.02358">
        <ele>1781.46</ele>
        <time>2020-03-13T11:04:39Z</time>
      </trkpt>
      <trkpt lat="45.2239" lon="6.02354">
        <ele>1781.46</ele>
        <time>2020-03-13T11:05:06Z</time>
      </trkpt>
      <trkpt lat="45.22395" lon="6.02357">
        <ele>1780.98</ele>
        <time>2020-03-13T11:05:35Z</time>
      </trkpt>
      <trkpt lat="45.22398" lon="6.02364">
        <ele>1783.38</ele>
        <time>2020-03-13T11:05:54Z</time>
      </trkpt>
      <trkpt lat="45.22406" lon="6.0236">
        <ele>1785.79</ele>
        <time>2020-03-13T11:06:11Z</time>
      </trkpt>
      <trkpt lat="45.22414" lon="6.02358">
        <ele>1787.71</ele>
        <time>2020-03-13T11:06:26Z</time>
      </trkpt>
      <trkpt lat="45.22418" lon="6.02359">
        <ele>1790.59</ele>
        <time>2020-03-13T11:06:39Z</time>
      </trkpt>
      <trkpt lat="45.22421" lon="6.02374">
        <ele>1792.52</ele>
        <time>2020-03-13T11:06:56Z</time>
      </trkpt>
      <trkpt lat="45.22425" lon="6.02383">
        <ele>1794.44</ele>
        <time>2020-03-13T11:07:11Z</time>
      </trkpt>
      <trkpt lat="45.22427" lon="6.02396">
        <ele>1796.84</ele>
        <time>2020-03-13T11:07:31Z</time>
      </trkpt>
      <trkpt lat="45.22426" lon="6.02407">
        <ele>1798.76</ele>
        <time>2020-03-13T11:07:48Z</time>
      </trkpt>
      <trkpt lat="45.22425" lon="6.02417">
        <ele>1801.17</ele>
        <time>2020-03-13T11:08:03Z</time>
      </trkpt>
      <trkpt lat="45.22428" lon="6.0242">
        <ele>1801.65</ele>
        <time>2020-03-13T11:08:19Z</time>
      </trkpt>
      <trkpt lat="45.22427" lon="6.02419">
        <ele>1801.65</ele>
        <time>2020-03-13T11:08:57Z</time>
      </trkpt>
      <trkpt lat="45.22428" lon="6.02418">
        <ele>1801.17</ele>
        <time>2020-03-13T11:09:30Z</time>
      </trkpt>
      <trkpt lat="45.22432" lon="6.02418">
        <ele>1801.17</ele>
        <time>2020-03-13T11:09:49Z</time>
      </trkpt>
      <trkpt lat="45.2243" lon="6.02419">
        <ele>1801.65</ele>
        <time>2020-03-13T11:10:15Z</time>
      </trkpt>
      <trkpt lat="45.22437" lon="6.0242">
        <ele>1803.57</ele>
        <time>2020-03-13T11:10:34Z</time>
      </trkpt>
      <trkpt lat="45.22446" lon="6.02421">
        <ele>1806.45</ele>
        <time>2020-03-13T11:10:53Z</time>
      </trkpt>
      <trkpt lat="45.22455" lon="6.02418">
        <ele>1808.86</ele>
        <time>2020-03-13T11:11:10Z</time>
      </trkpt>
      <trkpt lat="45.2246" lon="6.02418">
        <ele>1810.78</ele>
        <time>2020-03-13T11:11:23Z</time>
      </trkpt>
      <trkpt lat="45.22461" lon="6.02431">
        <ele>1812.7</ele>
        <time>2020-03-13T11:11:39Z</time>
      </trkpt>
      <trkpt lat="45.2246" lon="6.02444">
        <ele>1814.63</ele>
        <time>2020-03-13T11:11:57Z</time>
      </trkpt>
      <trkpt lat="45.22461" lon="6.02453">
        <ele>1817.03</ele>
        <time>2020-03-13T11:12:13Z</time>
      </trkpt>
      <trkpt lat="45.22462" lon="6.02466">
        <ele>1819.91</ele>
        <time>2020-03-13T11:12:32Z</time>
      </trkpt>
      <trkpt lat="45.22463" lon="6.02477">
        <ele>1822.32</ele>
        <time>2020-03-13T11:12:49Z</time>
      </trkpt>
      <trkpt lat="45.22466" lon="6.02488">
        <ele>1823.28</ele>
        <time>2020-03-13T11:13:06Z</time>
      </trkpt>
      <trkpt lat="45.22469" lon="6.02499">
        <ele>1825.2</ele>
        <time>2020-03-13T11:13:22Z</time>
      </trkpt>
      <trkpt lat="45.22473" lon="6.02509">
        <ele>1827.12</ele>
        <time>2020-03-13T11:13:41Z</time>
      </trkpt>
      <trkpt lat="45.22475" lon="6.02517">
        <ele>1828.56</ele>
        <time>2020-03-13T11:13:57Z</time>
      </trkpt>
      <trkpt lat="45.22479" lon="6.02525">
        <ele>1830.49</ele>
        <time>2020-03-13T11:14:16Z</time>
      </trkpt>
      <trkpt lat="45.22482" lon="6.02534">
        <ele>1832.89</ele>
        <time>2020-03-13T11:14:33Z</time>
      </trkpt>
      <trkpt lat="45.22481" lon="6.02543">
        <ele>1834.33</ele>
        <time>2020-03-13T11:14:48Z</time>
      </trkpt>
      <trkpt lat="45.22487" lon="6.02549">
        <ele>1836.26</ele>
        <time>2020-03-13T11:15:05Z</time>
      </trkpt>
      <trkpt lat="45.22488" lon="6.02548">
        <ele>1836.26</ele>
        <time>2020-03-13T11:15:26Z</time>
      </trkpt>
      <trkpt lat="45.22487" lon="6.02548">
        <ele>1836.26</ele>
        <time>2020-03-13T11:15:50Z</time>
      </trkpt>
      <trkpt lat="45.22486" lon="6.0255">
        <ele>1836.26</ele>
        <time>2020-03-13T11:16:21Z</time>
      </trkpt>
      <trkpt lat="45.22489" lon="6.02553">
        <ele>1837.22</ele>
        <time>2020-03-13T11:16:46Z</time>
      </trkpt>
      <trkpt lat="45.22494" lon="6.02567">
        <ele>1840.58</ele>
        <time>2020-03-13T11:17:05Z</time>
      </trkpt>
      <trkpt lat="45.22499" lon="6.02565">
        <ele>1842.02</ele>
        <time>2020-03-13T11:17:20Z</time>
      </trkpt>
      <trkpt lat="45.22507" lon="6.02559">
        <ele>1843.95</ele>
        <time>2020-03-13T11:17:36Z</time>
      </trkpt>
      <trkpt lat="45.22518" lon="6.02564">
        <ele>1846.35</ele>
        <time>2020-03-13T11:17:56Z</time>
      </trkpt>
      <trkpt lat="45.22527" lon="6.02566">
        <ele>1848.75</ele>
        <time>2020-03-13T11:18:13Z</time>
      </trkpt>
      <trkpt lat="45.22537" lon="6.02568">
        <ele>1851.16</ele>
        <time>2020-03-13T11:18:31Z</time>
      </trkpt>
      <trkpt lat="45.22545" lon="6.02566">
        <ele>1852.6</ele>
        <time>2020-03-13T11:18:46Z</time>
      </trkpt>
      <trkpt lat="45.22552" lon="6.02573">
        <ele>1854.04</ele>
        <time>2020-03-13T11:19:02Z</time>
      </trkpt>
      <trkpt lat="45.2256" lon="6.02577">
        <ele>1855.96</ele>
        <time>2020-03-13T11:19:21Z</time>
      </trkpt>
      <trkpt lat="45.2257" lon="6.02578">
        <ele>1857.4</ele>
        <time>2020-03-13T11:19:40Z</time>
      </trkpt>
      <trkpt lat="45.22578" lon="6.02582">
        <ele>1859.33</ele>
        <time>2020-03-13T11:19:56Z</time>
      </trkpt>
      <trkpt lat="45.22585" lon="6.02584">
        <ele>1861.73</ele>
        <time>2020-03-13T11:20:11Z</time>
      </trkpt>
      <trkpt lat="45.22593" lon="6.02585">
        <ele>1862.69</ele>
        <time>2020-03-13T11:20:28Z</time>
      </trkpt>
      <trkpt lat="45.22594" lon="6.02585">
        <ele>1863.17</ele>
        <time>2020-03-13T11:20:48Z</time>
      </trkpt>
      <trkpt lat="45.22595" lon="6.02584">
        <ele>1863.17</ele>
        <time>2020-03-13T11:21:17Z</time>
      </trkpt>
      <trkpt lat="45.22593" lon="6.02584">
        <ele>1861.73</ele>
        <time>2020-03-13T11:21:45Z</time>
      </trkpt>
      <trkpt lat="45.22592" lon="6.02585">
        <ele>1862.21</ele>
        <time>2020-03-13T11:22:25Z</time>
      </trkpt>
      <trkpt lat="45.22592" lon="6.02586">
        <ele>1858.37</ele>
        <time>2020-03-13T11:22:35Z</time>
      </trkpt>
      <trkpt lat="45.22592" lon="6.02586">
        <ele>1858.37</ele>
        <time>2020-03-13T11:22:36Z</time>
      </trkpt>
      <trkpt lat="45.22592" lon="6.02587">
        <ele>1863.17</ele>
        <time>2020-03-13T11:22:37Z</time>
      </trkpt>
      <trkpt lat="45.22592" lon="6.02587">
        <ele>1863.17</ele>
        <time>2020-03-13T11:22:38Z</time>
      </trkpt>
      <trkpt lat="45.22592" lon="6.02586">
        <ele>1862.69</ele>
        <time>2020-03-13T11:23:00Z</time>
      </trkpt>
      <trkpt lat="45.226" lon="6.02587">
        <ele>1865.09</ele>
        <time>2020-03-13T11:23:17Z</time>
      </trkpt>
      <trkpt lat="45.22609" lon="6.02583">
        <ele>1867.02</ele>
        <time>2020-03-13T11:23:31Z</time>
      </trkpt>
      <trkpt lat="45.22615" lon="6.02586">
        <ele>1867.98</ele>
        <time>2020-03-13T11:23:41Z</time>
      </trkpt>
      <trkpt lat="45.22628" lon="6.0259">
        <ele>1868.46</ele>
        <time>2020-03-13T11:23:58Z</time>
      </trkpt>
      <trkpt lat="45.22631" lon="6.0259">
        <ele>1868.94</ele>
        <time>2020-03-13T11:24:02Z</time>
      </trkpt>
      <trkpt lat="45.22633" lon="6.02589">
        <ele>1868.94</ele>
        <time>2020-03-13T11:24:04Z</time>
      </trkpt>
      <trkpt lat="45.22649" lon="6.02585">
        <ele>1870.86</ele>
        <time>2020-03-13T11:24:22Z</time>
      </trkpt>
      <trkpt lat="45.22658" lon="6.02581">
        <ele>1873.27</ele>
        <time>2020-03-13T11:24:37Z</time>
      </trkpt>
      <trkpt lat="45.2267" lon="6.02573">
        <ele>1875.19</ele>
        <time>2020-03-13T11:24:52Z</time>
      </trkpt>
      <trkpt lat="45.22678" lon="6.0257">
        <ele>1877.11</ele>
        <time>2020-03-13T11:25:08Z</time>
      </trkpt>
      <trkpt lat="45.22684" lon="6.02569">
        <ele>1878.55</ele>
        <time>2020-03-13T11:25:30Z</time>
      </trkpt>
      <trkpt lat="45.22687" lon="6.02567">
        <ele>1878.55</ele>
        <time>2020-03-13T11:25:32Z</time>
      </trkpt>
      <trkpt lat="45.22703" lon="6.0256">
        <ele>1881.44</ele>
        <time>2020-03-13T11:25:49Z</time>
      </trkpt>
      <trkpt lat="45.22714" lon="6.02558">
        <ele>1883.84</ele>
        <time>2020-03-13T11:26:05Z</time>
      </trkpt>
      <trkpt lat="45.22714" lon="6.02558">
        <ele>1883.84</ele>
        <time>2020-03-13T11:26:06Z</time>
      </trkpt>
      <trkpt lat="45.22725" lon="6.02557">
        <ele>1885.28</ele>
        <time>2020-03-13T11:26:23Z</time>
      </trkpt>
      <trkpt lat="45.22726" lon="6.0256">
        <ele>1886.72</ele>
        <time>2020-03-13T11:26:29Z</time>
      </trkpt>
      <trkpt lat="45.22733" lon="6.02556">
        <ele>1887.21</ele>
        <time>2020-03-13T11:26:47Z</time>
      </trkpt>
      <trkpt lat="45.22735" lon="6.02561">
        <ele>1888.65</ele>
        <time>2020-03-13T11:27:03Z</time>
      </trkpt>
      <trkpt lat="45.22737" lon="6.02568">
        <ele>1890.09</ele>
        <time>2020-03-13T11:27:20Z</time>
      </trkpt>
      <trkpt lat="45.22745" lon="6.0257">
        <ele>1892.01</ele>
        <time>2020-03-13T11:27:38Z</time>
      </trkpt>
      <trkpt lat="45.22756" lon="6.02566">
        <ele>1894.42</ele>
        <time>2020-03-13T11:27:57Z</time>
      </trkpt>
      <trkpt lat="45.22763" lon="6.02567">
        <ele>1896.34</ele>
        <time>2020-03-13T11:28:12Z</time>
      </trkpt>
      <trkpt lat="45.22773" lon="6.02566">
        <ele>1898.26</ele>
        <time>2020-03-13T11:28:29Z</time>
      </trkpt>
      <trkpt lat="45.22779" lon="6.02568">
        <ele>1900.18</ele>
        <time>2020-03-13T11:28:44Z</time>
      </trkpt>
      <trkpt lat="45.22784" lon="6.02569">
        <ele>1901.63</ele>
        <time>2020-03-13T11:28:59Z</time>
      </trkpt>
      <trkpt lat="45.22789" lon="6.0257">
        <ele>1904.03</ele>
        <time>2020-03-13T11:29:14Z</time>
      </trkpt>
      <trkpt lat="45.22795" lon="6.02572">
        <ele>1905.47</ele>
        <time>2020-03-13T11:29:29Z</time>
      </trkpt>
      <trkpt lat="45.22802" lon="6.02579">
        <ele>1906.91</ele>
        <time>2020-03-13T11:29:47Z</time>
      </trkpt>
      <trkpt lat="45.22809" lon="6.0258">
        <ele>1908.83</ele>
        <time>2020-03-13T11:30:05Z</time>
      </trkpt>
      <trkpt lat="45.22815" lon="6.02581">
        <ele>1910.28</ele>
        <time>2020-03-13T11:30:21Z</time>
      </trkpt>
      <trkpt lat="45.22818" lon="6.02583">
        <ele>1911.24</ele>
        <time>2020-03-13T11:30:34Z</time>
      </trkpt>
      <trkpt lat="45.22823" lon="6.02588">
        <ele>1913.16</ele>
        <time>2020-03-13T11:30:48Z</time>
      </trkpt>
      <trkpt lat="45.22826" lon="6.02592">
        <ele>1914.12</ele>
        <time>2020-03-13T11:31:01Z</time>
      </trkpt>
      <trkpt lat="45.22829" lon="6.02597">
        <ele>1915.08</ele>
        <time>2020-03-13T11:31:16Z</time>
      </trkpt>
      <trkpt lat="45.22831" lon="6.02603">
        <ele>1916.53</ele>
        <time>2020-03-13T11:31:30Z</time>
      </trkpt>
      <trkpt lat="45.22835" lon="6.02609">
        <ele>1917.97</ele>
        <time>2020-03-13T11:31:44Z</time>
      </trkpt>
      <trkpt lat="45.22838" lon="6.02614">
        <ele>1919.89</ele>
        <time>2020-03-13T11:32:01Z</time>
      </trkpt>
      <trkpt lat="45.2284" lon="6.02616">
        <ele>1919.89</ele>
        <time>2020-03-13T11:32:19Z</time>
      </trkpt>
      <trkpt lat="45.2284" lon="6.02618">
        <ele>1920.37</ele>
        <time>2020-03-13T11:32:50Z</time>
      </trkpt>
      <trkpt lat="45.22847" lon="6.02621">
        <ele>1922.29</ele>
        <time>2020-03-13T11:33:05Z</time>
      </trkpt>
      <trkpt lat="45.22855" lon="6.02627">
        <ele>1924.22</ele>
        <time>2020-03-13T11:33:22Z</time>
      </trkpt>
      <trkpt lat="45.22862" lon="6.02631">
        <ele>1926.14</ele>
        <time>2020-03-13T11:33:37Z</time>
      </trkpt>
      <trkpt lat="45.22865" lon="6.0264">
        <ele>1928.06</ele>
        <time>2020-03-13T11:33:51Z</time>
      </trkpt>
      <trkpt lat="45.22871" lon="6.02644">
        <ele>1929.98</ele>
        <time>2020-03-13T11:34:05Z</time>
      </trkpt>
      <trkpt lat="45.22872" lon="6.02652">
        <ele>1932.39</ele>
        <time>2020-03-13T11:34:20Z</time>
      </trkpt>
      <trkpt lat="45.22877" lon="6.02656">
        <ele>1933.83</ele>
        <time>2020-03-13T11:34:34Z</time>
      </trkpt>
      <trkpt lat="45.2288" lon="6.02655">
        <ele>1936.23</ele>
        <time>2020-03-13T11:34:50Z</time>
      </trkpt>
      <trkpt lat="45.22885" lon="6.02651">
        <ele>1938.16</ele>
        <time>2020-03-13T11:35:04Z</time>
      </trkpt>
      <trkpt lat="45.2289" lon="6.02647">
        <ele>1940.08</ele>
        <time>2020-03-13T11:35:20Z</time>
      </trkpt>
      <trkpt lat="45.22894" lon="6.02643">
        <ele>1942.48</ele>
        <time>2020-03-13T11:35:35Z</time>
      </trkpt>
      <trkpt lat="45.22898" lon="6.02638">
        <ele>1943.92</ele>
        <time>2020-03-13T11:35:50Z</time>
      </trkpt>
      <trkpt lat="45.22906" lon="6.02644">
        <ele>1945.85</ele>
        <time>2020-03-13T11:36:08Z</time>
      </trkpt>
      <trkpt lat="45.22911" lon="6.02649">
        <ele>1948.25</ele>
        <time>2020-03-13T11:36:22Z</time>
      </trkpt>
      <trkpt lat="45.22914" lon="6.02651">
        <ele>1948.73</ele>
        <time>2020-03-13T11:36:33Z</time>
      </trkpt>
      <trkpt lat="45.22916" lon="6.0266">
        <ele>1951.13</ele>
        <time>2020-03-13T11:36:52Z</time>
      </trkpt>
      <trkpt lat="45.22917" lon="6.02662">
        <ele>1952.09</ele>
        <time>2020-03-13T11:37:10Z</time>
      </trkpt>
      <trkpt lat="45.22917" lon="6.02663">
        <ele>1952.09</ele>
        <time>2020-03-13T11:37:43Z</time>
      </trkpt>
      <trkpt lat="45.22917" lon="6.02661">
        <ele>1952.09</ele>
        <time>2020-03-13T11:38:10Z</time>
      </trkpt>
      <trkpt lat="45.22914" lon="6.02663">
        <ele>1952.09</ele>
        <time>2020-03-13T11:38:33Z</time>
      </trkpt>
      <trkpt lat="45.22921" lon="6.02665">
        <ele>1952.57</ele>
        <time>2020-03-13T11:39:07Z</time>
      </trkpt>
      <trkpt lat="45.22912" lon="6.02662">
        <ele>1953.06</ele>
        <time>2020-03-13T11:39:34Z</time>
      </trkpt>
      <trkpt lat="45.22915" lon="6.02667">
        <ele>1953.54</ele>
        <time>2020-03-13T11:40:01Z</time>
      </trkpt>
      <trkpt lat="45.22919" lon="6.02675">
        <ele>1955.46</ele>
        <time>2020-03-13T11:40:15Z</time>
      </trkpt>
      <trkpt lat="45.22923" lon="6.02681">
        <ele>1958.82</ele>
        <time>2020-03-13T11:40:31Z</time>
      </trkpt>
      <trkpt lat="45.22926" lon="6.02682">
        <ele>1960.27</ele>
        <time>2020-03-13T11:40:46Z</time>
      </trkpt>
      <trkpt lat="45.22928" lon="6.02681">
        <ele>1962.67</ele>
        <time>2020-03-13T11:41:01Z</time>
      </trkpt>
      <trkpt lat="45.22934" lon="6.02676">
        <ele>1964.11</ele>
        <time>2020-03-13T11:41:15Z</time>
      </trkpt>
      <trkpt lat="45.22938" lon="6.02673">
        <ele>1966.03</ele>
        <time>2020-03-13T11:41:30Z</time>
      </trkpt>
      <trkpt lat="45.22944" lon="6.02669">
        <ele>1968.44</ele>
        <time>2020-03-13T11:41:45Z</time>
      </trkpt>
      <trkpt lat="45.2295" lon="6.02664">
        <ele>1970.84</ele>
        <time>2020-03-13T11:42:00Z</time>
      </trkpt>
      <trkpt lat="45.22955" lon="6.0266">
        <ele>1973.24</ele>
        <time>2020-03-13T11:42:15Z</time>
      </trkpt>
      <trkpt lat="45.22963" lon="6.02666">
        <ele>1975.17</ele>
        <time>2020-03-13T11:42:31Z</time>
      </trkpt>
      <trkpt lat="45.22965" lon="6.02676">
        <ele>1978.05</ele>
        <time>2020-03-13T11:42:49Z</time>
      </trkpt>
      <trkpt lat="45.22965" lon="6.02686">
        <ele>1979.49</ele>
        <time>2020-03-13T11:43:04Z</time>
      </trkpt>
      <trkpt lat="45.22968" lon="6.02693">
        <ele>1981.41</ele>
        <time>2020-03-13T11:43:19Z</time>
      </trkpt>
      <trkpt lat="45.2297" lon="6.0269">
        <ele>1982.38</ele>
        <time>2020-03-13T11:43:36Z</time>
      </trkpt>
      <trkpt lat="45.22973" lon="6.02686">
        <ele>1984.3</ele>
        <time>2020-03-13T11:43:51Z</time>
      </trkpt>
      <trkpt lat="45.22979" lon="6.0268">
        <ele>1986.22</ele>
        <time>2020-03-13T11:44:05Z</time>
      </trkpt>
      <trkpt lat="45.22982" lon="6.02674">
        <ele>1988.14</ele>
        <time>2020-03-13T11:44:21Z</time>
      </trkpt>
      <trkpt lat="45.22988" lon="6.0267">
        <ele>1990.07</ele>
        <time>2020-03-13T11:44:34Z</time>
      </trkpt>
      <trkpt lat="45.22989" lon="6.02677">
        <ele>1991.03</ele>
        <time>2020-03-13T11:44:48Z</time>
      </trkpt>
      <trkpt lat="45.2299" lon="6.02685">
        <ele>1992.95</ele>
        <time>2020-03-13T11:45:03Z</time>
      </trkpt>
      <trkpt lat="45.22986" lon="6.02693">
        <ele>1993.91</ele>
        <time>2020-03-13T11:45:17Z</time>
      </trkpt>
      <trkpt lat="45.22986" lon="6.02691">
        <ele>1994.39</ele>
        <time>2020-03-13T11:45:42Z</time>
      </trkpt>
      <trkpt lat="45.2299" lon="6.02698">
        <ele>1994.87</ele>
        <time>2020-03-13T11:46:15Z</time>
      </trkpt>
      <trkpt lat="45.22991" lon="6.02707">
        <ele>1997.76</ele>
        <time>2020-03-13T11:46:32Z</time>
      </trkpt>
      <trkpt lat="45.2299" lon="6.02714">
        <ele>1999.2</ele>
        <time>2020-03-13T11:46:47Z</time>
      </trkpt>
      <trkpt lat="45.22996" lon="6.02707">
        <ele>2000.16</ele>
        <time>2020-03-13T11:47:01Z</time>
      </trkpt>
      <trkpt lat="45.23001" lon="6.027">
        <ele>2002.08</ele>
        <time>2020-03-13T11:47:16Z</time>
      </trkpt>
      <trkpt lat="45.23007" lon="6.02695">
        <ele>2004.49</ele>
        <time>2020-03-13T11:47:34Z</time>
      </trkpt>
      <trkpt lat="45.23013" lon="6.0269">
        <ele>2006.89</ele>
        <time>2020-03-13T11:47:51Z</time>
      </trkpt>
      <trkpt lat="45.23016" lon="6.02685">
        <ele>2008.81</ele>
        <time>2020-03-13T11:48:05Z</time>
      </trkpt>
      <trkpt lat="45.23019" lon="6.02682">
        <ele>2009.77</ele>
        <time>2020-03-13T11:48:17Z</time>
      </trkpt>
      <trkpt lat="45.23023" lon="6.02684">
        <ele>2011.22</ele>
        <time>2020-03-13T11:48:33Z</time>
      </trkpt>
      <trkpt lat="45.23026" lon="6.02692">
        <ele>2013.62</ele>
        <time>2020-03-13T11:48:48Z</time>
      </trkpt>
      <trkpt lat="45.23027" lon="6.02701">
        <ele>2015.54</ele>
        <time>2020-03-13T11:49:04Z</time>
      </trkpt>
      <trkpt lat="45.2303" lon="6.02709">
        <ele>2017.46</ele>
        <time>2020-03-13T11:49:20Z</time>
      </trkpt>
      <trkpt lat="45.23031" lon="6.02713">
        <ele>2019.39</ele>
        <time>2020-03-13T11:49:34Z</time>
      </trkpt>
      <trkpt lat="45.23034" lon="6.02709">
        <ele>2021.31</ele>
        <time>2020-03-13T11:49:50Z</time>
      </trkpt>
      <trkpt lat="45.23041" lon="6.02704">
        <ele>2023.71</ele>
        <time>2020-03-13T11:50:08Z</time>
      </trkpt>
      <trkpt lat="45.23046" lon="6.027">
        <ele>2025.64</ele>
        <time>2020-03-13T11:50:23Z</time>
      </trkpt>
      <trkpt lat="45.23052" lon="6.02693">
        <ele>2027.08</ele>
        <time>2020-03-13T11:50:41Z</time>
      </trkpt>
      <trkpt lat="45.23056" lon="6.02688">
        <ele>2029.48</ele>
        <time>2020-03-13T11:50:58Z</time>
      </trkpt>
      <trkpt lat="45.2306" lon="6.02692">
        <ele>2030.92</ele>
        <time>2020-03-13T11:51:13Z</time>
      </trkpt>
      <trkpt lat="45.23062" lon="6.027">
        <ele>2033.33</ele>
        <time>2020-03-13T11:51:29Z</time>
      </trkpt>
      <trkpt lat="45.23063" lon="6.0271">
        <ele>2035.25</ele>
        <time>2020-03-13T11:51:47Z</time>
      </trkpt>
      <trkpt lat="45.23064" lon="6.02714">
        <ele>2037.17</ele>
        <time>2020-03-13T11:52:01Z</time>
      </trkpt>
      <trkpt lat="45.23064" lon="6.02714">
        <ele>2037.65</ele>
        <time>2020-03-13T11:52:16Z</time>
      </trkpt>
      <trkpt lat="45.23066" lon="6.02713">
        <ele>2038.13</ele>
        <time>2020-03-13T11:52:38Z</time>
      </trkpt>
      <trkpt lat="45.23072" lon="6.0271">
        <ele>2040.05</ele>
        <time>2020-03-13T11:52:59Z</time>
      </trkpt>
      <trkpt lat="45.23076" lon="6.02707">
        <ele>2041.5</ele>
        <time>2020-03-13T11:53:14Z</time>
      </trkpt>
      <trkpt lat="45.2308" lon="6.02701">
        <ele>2043.9</ele>
        <time>2020-03-13T11:53:30Z</time>
      </trkpt>
      <trkpt lat="45.23084" lon="6.02694">
        <ele>2045.82</ele>
        <time>2020-03-13T11:53:45Z</time>
      </trkpt>
      <trkpt lat="45.23089" lon="6.02702">
        <ele>2047.75</ele>
        <time>2020-03-13T11:54:03Z</time>
      </trkpt>
      <trkpt lat="45.23091" lon="6.02712">
        <ele>2050.15</ele>
        <time>2020-03-13T11:54:22Z</time>
      </trkpt>
      <trkpt lat="45.23099" lon="6.02715">
        <ele>2052.07</ele>
        <time>2020-03-13T11:54:38Z</time>
      </trkpt>
      <trkpt lat="45.23096" lon="6.02725">
        <ele>2054.47</ele>
        <time>2020-03-13T11:54:56Z</time>
      </trkpt>
      <trkpt lat="45.23093" lon="6.02728">
        <ele>2054.96</ele>
        <time>2020-03-13T11:55:15Z</time>
      </trkpt>
      <trkpt lat="45.23096" lon="6.02725">
        <ele>2056.88</ele>
        <time>2020-03-13T11:55:27Z</time>
      </trkpt>
      <trkpt lat="45.23102" lon="6.02719">
        <ele>2059.28</ele>
        <time>2020-03-13T11:55:46Z</time>
      </trkpt>
      <trkpt lat="45.23105" lon="6.02715">
        <ele>2059.76</ele>
        <time>2020-03-13T11:56:08Z</time>
      </trkpt>
      <trkpt lat="45.23111" lon="6.02709">
        <ele>2062.17</ele>
        <time>2020-03-13T11:56:26Z</time>
      </trkpt>
      <trkpt lat="45.23115" lon="6.02703">
        <ele>2064.09</ele>
        <time>2020-03-13T11:56:40Z</time>
      </trkpt>
      <trkpt lat="45.2312" lon="6.02698">
        <ele>2066.97</ele>
        <time>2020-03-13T11:56:57Z</time>
      </trkpt>
      <trkpt lat="45.23128" lon="6.02702">
        <ele>2068.89</ele>
        <time>2020-03-13T11:57:13Z</time>
      </trkpt>
      <trkpt lat="45.23136" lon="6.02709">
        <ele>2071.78</ele>
        <time>2020-03-13T11:57:32Z</time>
      </trkpt>
      <trkpt lat="45.23132" lon="6.02721">
        <ele>2073.7</ele>
        <time>2020-03-13T11:57:47Z</time>
      </trkpt>
      <trkpt lat="45.23132" lon="6.02732">
        <ele>2076.59</ele>
        <time>2020-03-13T11:58:04Z</time>
      </trkpt>
      <trkpt lat="45.23132" lon="6.02734">
        <ele>2077.55</ele>
        <time>2020-03-13T11:58:19Z</time>
      </trkpt>
      <trkpt lat="45.23131" lon="6.02734">
        <ele>2077.55</ele>
        <time>2020-03-13T11:58:42Z</time>
      </trkpt>
      <trkpt lat="45.23136" lon="6.02729">
        <ele>2079.95</ele>
        <time>2020-03-13T11:58:58Z</time>
      </trkpt>
      <trkpt lat="45.23138" lon="6.02729">
        <ele>2079.95</ele>
        <time>2020-03-13T11:59:31Z</time>
      </trkpt>
      <trkpt lat="45.23141" lon="6.02728">
        <ele>2079.95</ele>
        <time>2020-03-13T11:59:59Z</time>
      </trkpt>
      <trkpt lat="45.23139" lon="6.02728">
        <ele>2081.39</ele>
        <time>2020-03-13T12:00:22Z</time>
      </trkpt>
      <trkpt lat="45.23148" lon="6.02721">
        <ele>2084.28</ele>
        <time>2020-03-13T12:00:36Z</time>
      </trkpt>
      <trkpt lat="45.23156" lon="6.02714">
        <ele>2086.68</ele>
        <time>2020-03-13T12:00:52Z</time>
      </trkpt>
      <trkpt lat="45.23159" lon="6.02719">
        <ele>2088.6</ele>
        <time>2020-03-13T12:01:07Z</time>
      </trkpt>
      <trkpt lat="45.23165" lon="6.02727">
        <ele>2091</ele>
        <time>2020-03-13T12:01:23Z</time>
      </trkpt>
      <trkpt lat="45.23167" lon="6.02731">
        <ele>2092.93</ele>
        <time>2020-03-13T12:01:37Z</time>
      </trkpt>
      <trkpt lat="45.23175" lon="6.02731">
        <ele>2095.81</ele>
        <time>2020-03-13T12:01:58Z</time>
      </trkpt>
      <trkpt lat="45.23184" lon="6.02729">
        <ele>2098.21</ele>
        <time>2020-03-13T12:02:14Z</time>
      </trkpt>
      <trkpt lat="45.23191" lon="6.02727">
        <ele>2100.14</ele>
        <time>2020-03-13T12:02:29Z</time>
      </trkpt>
      <trkpt lat="45.23195" lon="6.02729">
        <ele>2102.54</ele>
        <time>2020-03-13T12:02:45Z</time>
      </trkpt>
      <trkpt lat="45.23198" lon="6.02727">
        <ele>2104.46</ele>
        <time>2020-03-13T12:03:00Z</time>
      </trkpt>
      <trkpt lat="45.23205" lon="6.02722">
        <ele>2106.39</ele>
        <time>2020-03-13T12:03:14Z</time>
      </trkpt>
      <trkpt lat="45.23208" lon="6.0272">
        <ele>2107.83</ele>
        <time>2020-03-13T12:03:23Z</time>
      </trkpt>
      <trkpt lat="45.23211" lon="6.02717">
        <ele>2108.79</ele>
        <time>2020-03-13T12:03:43Z</time>
      </trkpt>
      <trkpt lat="45.23215" lon="6.0271">
        <ele>2111.19</ele>
        <time>2020-03-13T12:03:57Z</time>
      </trkpt>
      <trkpt lat="45.2322" lon="6.0271">
        <ele>2113.12</ele>
        <time>2020-03-13T12:04:12Z</time>
      </trkpt>
      <trkpt lat="45.2322" lon="6.02723">
        <ele>2114.56</ele>
        <time>2020-03-13T12:04:29Z</time>
      </trkpt>
      <trkpt lat="45.23223" lon="6.02732">
        <ele>2116.48</ele>
        <time>2020-03-13T12:04:45Z</time>
      </trkpt>
      <trkpt lat="45.23225" lon="6.02739">
        <ele>2118.88</ele>
        <time>2020-03-13T12:05:02Z</time>
      </trkpt>
      <trkpt lat="45.23224" lon="6.02749">
        <ele>2121.29</ele>
        <time>2020-03-13T12:05:17Z</time>
      </trkpt>
      <trkpt lat="45.23224" lon="6.02756">
        <ele>2123.21</ele>
        <time>2020-03-13T12:05:35Z</time>
      </trkpt>
      <trkpt lat="45.23229" lon="6.02753">
        <ele>2124.65</ele>
        <time>2020-03-13T12:05:52Z</time>
      </trkpt>
      <trkpt lat="45.23233" lon="6.02751">
        <ele>2126.57</ele>
        <time>2020-03-13T12:06:06Z</time>
      </trkpt>
      <trkpt lat="45.23242" lon="6.02747">
        <ele>2128.5</ele>
        <time>2020-03-13T12:06:25Z</time>
      </trkpt>
      <trkpt lat="45.23245" lon="6.02745">
        <ele>2129.94</ele>
        <time>2020-03-13T12:06:37Z</time>
      </trkpt>
      <trkpt lat="45.23248" lon="6.02742">
        <ele>2131.38</ele>
        <time>2020-03-13T12:06:54Z</time>
      </trkpt>
      <trkpt lat="45.23254" lon="6.02735">
        <ele>2133.78</ele>
        <time>2020-03-13T12:07:09Z</time>
      </trkpt>
      <trkpt lat="45.23257" lon="6.02731">
        <ele>2134.74</ele>
        <time>2020-03-13T12:07:22Z</time>
      </trkpt>
      <trkpt lat="45.23261" lon="6.02734">
        <ele>2135.71</ele>
        <time>2020-03-13T12:07:36Z</time>
      </trkpt>
      <trkpt lat="45.23264" lon="6.02744">
        <ele>2139.07</ele>
        <time>2020-03-13T12:07:53Z</time>
      </trkpt>
      <trkpt lat="45.23266" lon="6.0275">
        <ele>2140.99</ele>
        <time>2020-03-13T12:08:09Z</time>
      </trkpt>
      <trkpt lat="45.23266" lon="6.02761">
        <ele>2143.4</ele>
        <time>2020-03-13T12:08:26Z</time>
      </trkpt>
      <trkpt lat="45.23265" lon="6.02771">
        <ele>2145.32</ele>
        <time>2020-03-13T12:08:41Z</time>
      </trkpt>
      <trkpt lat="45.23263" lon="6.0278">
        <ele>2147.24</ele>
        <time>2020-03-13T12:08:56Z</time>
      </trkpt>
      <trkpt lat="45.23262" lon="6.02792">
        <ele>2149.16</ele>
        <time>2020-03-13T12:09:13Z</time>
      </trkpt>
      <trkpt lat="45.23263" lon="6.028">
        <ele>2151.09</ele>
        <time>2020-03-13T12:09:27Z</time>
      </trkpt>
      <trkpt lat="45.23264" lon="6.02808">
        <ele>2153.01</ele>
        <time>2020-03-13T12:09:41Z</time>
      </trkpt>
      <trkpt lat="45.23267" lon="6.02813">
        <ele>2154.93</ele>
        <time>2020-03-13T12:09:55Z</time>
      </trkpt>
      <trkpt lat="45.23273" lon="6.02822">
        <ele>2156.86</ele>
        <time>2020-03-13T12:10:12Z</time>
      </trkpt>
      <trkpt lat="45.23277" lon="6.02827">
        <ele>2158.3</ele>
        <time>2020-03-13T12:10:26Z</time>
      </trkpt>
      <trkpt lat="45.23277" lon="6.02825">
        <ele>2158.78</ele>
        <time>2020-03-13T12:10:51Z</time>
      </trkpt>
      <trkpt lat="45.23277" lon="6.0283">
        <ele>2158.78</ele>
        <time>2020-03-13T12:11:22Z</time>
      </trkpt>
      <trkpt lat="45.23276" lon="6.02832">
        <ele>2158.78</ele>
        <time>2020-03-13T12:11:47Z</time>
      </trkpt>
      <trkpt lat="45.23276" lon="6.02826">
        <ele>2158.78</ele>
        <time>2020-03-13T12:12:26Z</time>
      </trkpt>
      <trkpt lat="45.23282" lon="6.02823">
        <ele>2158.78</ele>
        <time>2020-03-13T12:12:59Z</time>
      </trkpt>
      <trkpt lat="45.23288" lon="6.02824">
        <ele>2159.74</ele>
        <time>2020-03-13T12:13:22Z</time>
      </trkpt>
      <trkpt lat="45.23295" lon="6.02818">
        <ele>2160.22</ele>
        <time>2020-03-13T12:13:34Z</time>
      </trkpt>
      <trkpt lat="45.2331" lon="6.02806">
        <ele>2160.22</ele>
        <time>2020-03-13T12:13:52Z</time>
      </trkpt>
      <trkpt lat="45.23314" lon="6.02803">
        <ele>2160.22</ele>
        <time>2020-03-13T12:14:01Z</time>
      </trkpt>
      <trkpt lat="45.23324" lon="6.02795">
        <ele>2160.7</ele>
        <time>2020-03-13T12:14:18Z</time>
      </trkpt>
      <trkpt lat="45.23332" lon="6.02784">
        <ele>2161.66</ele>
        <time>2020-03-13T12:14:32Z</time>
      </trkpt>
      <trkpt lat="45.23338" lon="6.02776">
        <ele>2163.58</ele>
        <time>2020-03-13T12:14:48Z</time>
      </trkpt>
      <trkpt lat="45.2334" lon="6.02776">
        <ele>2164.55</ele>
        <time>2020-03-13T12:14:54Z</time>
      </trkpt>
      <trkpt lat="45.23347" lon="6.02773">
        <ele>2166.95</ele>
        <time>2020-03-13T12:15:08Z</time>
      </trkpt>
      <trkpt lat="45.23351" lon="6.02775">
        <ele>2168.87</ele>
        <time>2020-03-13T12:15:23Z</time>
      </trkpt>
      <trkpt lat="45.23351" lon="6.02775">
        <ele>2159.74</ele>
        <time>2020-03-13T12:15:29Z</time>
      </trkpt>
      <trkpt lat="45.2335" lon="6.02775">
        <ele>2179.45</ele>
        <time>2020-03-13T12:15:30Z</time>
      </trkpt>
      <trkpt lat="45.2335" lon="6.02775">
        <ele>2168.87</ele>
        <time>2020-03-13T12:15:31Z</time>
      </trkpt>
      <trkpt lat="45.23352" lon="6.02775">
        <ele>2167.91</ele>
        <time>2020-03-13T12:15:53Z</time>
      </trkpt>
      <trkpt lat="45.23353" lon="6.02776">
        <ele>2167.91</ele>
        <time>2020-03-13T12:16:13Z</time>
      </trkpt>
      <trkpt lat="45.23354" lon="6.02776">
        <ele>2167.43</ele>
        <time>2020-03-13T12:16:33Z</time>
      </trkpt>
      <trkpt lat="45.23353" lon="6.02775">
        <ele>2167.43</ele>
        <time>2020-03-13T12:16:50Z</time>
      </trkpt>
      <trkpt lat="45.23354" lon="6.02773">
        <ele>2167.43</ele>
        <time>2020-03-13T12:17:28Z</time>
      </trkpt>
      <trkpt lat="45.23353" lon="6.02777">
        <ele>2167.43</ele>
        <time>2020-03-13T12:18:06Z</time>
      </trkpt>
      <trkpt lat="45.23352" lon="6.02776">
        <ele>2167.43</ele>
        <time>2020-03-13T12:18:43Z</time>
      </trkpt>
      <trkpt lat="45.23353" lon="6.02776">
        <ele>2168.39</ele>
        <time>2020-03-13T12:19:23Z</time>
      </trkpt>
      <trkpt lat="45.23353" lon="6.02779">
        <ele>2168.39</ele>
        <time>2020-03-13T12:20:02Z</time>
      </trkpt>
      <trkpt lat="45.23353" lon="6.02778">
        <ele>2168.39</ele>
        <time>2020-03-13T12:20:51Z</time>
      </trkpt>
      <trkpt lat="45.23351" lon="6.02781">
        <ele>2168.87</ele>
        <time>2020-03-13T12:21:49Z</time>
      </trkpt>
      <trkpt lat="45.23352" lon="6.02781">
        <ele>2168.87</ele>
        <time>2020-03-13T12:22:37Z</time>
      </trkpt>
      <trkpt lat="45.23353" lon="6.02779">
        <ele>2168.87</ele>
        <time>2020-03-13T12:23:29Z</time>
      </trkpt>
      <trkpt lat="45.23353" lon="6.02781">
        <ele>2168.87</ele>
        <time>2020-03-13T12:24:22Z</time>
      </trkpt>
      <trkpt lat="45.23353" lon="6.02784">
        <ele>2168.87</ele>
        <time>2020-03-13T12:24:57Z</time>
      </trkpt>
      <trkpt lat="45.23352" lon="6.02778">
        <ele>2168.87</ele>
        <time>2020-03-13T12:25:51Z</time>
      </trkpt>
      <trkpt lat="45.23352" lon="6.02776">
        <ele>2168.87</ele>
        <time>2020-03-13T12:26:40Z</time>
      </trkpt>
      <trkpt lat="45.23354" lon="6.02771">
        <ele>2168.87</ele>
        <time>2020-03-13T12:27:32Z</time>
      </trkpt>
      <trkpt lat="45.23352" lon="6.02774">
        <ele>2168.87</ele>
        <time>2020-03-13T12:28:17Z</time>
      </trkpt>
      <trkpt lat="45.23354" lon="6.02776">
        <ele>2168.87</ele>
        <time>2020-03-13T12:29:01Z</time>
      </trkpt>
      <trkpt lat="45.23353" lon="6.02775">
        <ele>2169.35</ele>
        <time>2020-03-13T12:29:42Z</time>
      </trkpt>
      <trkpt lat="45.23356" lon="6.02776">
        <ele>2169.35</ele>
        <time>2020-03-13T12:30:21Z</time>
      </trkpt>
      <trkpt lat="45.23356" lon="6.02775">
        <ele>2168.87</ele>
        <time>2020-03-13T12:31:03Z</time>
      </trkpt>
      <trkpt lat="45.23356" lon="6.02776">
        <ele>2168.87</ele>
        <time>2020-03-13T12:31:37Z</time>
      </trkpt>
      <trkpt lat="45.23355" lon="6.02776">
        <ele>2169.35</ele>
        <time>2020-03-13T12:32:20Z</time>
      </trkpt>
      <trkpt lat="45.23355" lon="6.02775">
        <ele>2169.35</ele>
        <time>2020-03-13T12:33:11Z</time>
      </trkpt>
      <trkpt lat="45.23356" lon="6.02776">
        <ele>2168.87</ele>
        <time>2020-03-13T12:33:48Z</time>
      </trkpt>
      <trkpt lat="45.23354" lon="6.02777">
        <ele>2168.87</ele>
        <time>2020-03-13T12:34:27Z</time>
      </trkpt>
      <trkpt lat="45.23356" lon="6.02777">
        <ele>2168.87</ele>
        <time>2020-03-13T12:35:03Z</time>
      </trkpt>
      <trkpt lat="45.23355" lon="6.02775">
        <ele>2168.87</ele>
        <time>2020-03-13T12:35:50Z</time>
      </trkpt>
      <trkpt lat="45.23355" lon="6.02774">
        <ele>2168.87</ele>
        <time>2020-03-13T12:36:29Z</time>
      </trkpt>
      <trkpt lat="45.23355" lon="6.02775">
        <ele>2168.87</ele>
        <time>2020-03-13T12:36:59Z</time>
      </trkpt>
      <trkpt lat="45.23356" lon="6.02774">
        <ele>2168.39</ele>
        <time>2020-03-13T12:37:35Z</time>
      </trkpt>
      <trkpt lat="45.23355" lon="6.02773">
        <ele>2168.39</ele>
        <time>2020-03-13T12:38:08Z</time>
      </trkpt>
      <trkpt lat="45.23354" lon="6.02777">
        <ele>2168.87</ele>
        <time>2020-03-13T12:38:50Z</time>
      </trkpt>
      <trkpt lat="45.23354" lon="6.02776">
        <ele>2168.87</ele>
        <time>2020-03-13T12:39:39Z</time>
      </trkpt>
      <trkpt lat="45.23355" lon="6.02778">
        <ele>2168.87</ele>
        <time>2020-03-13T12:40:14Z</time>
      </trkpt>
      <trkpt lat="45.23354" lon="6.02777">
        <ele>2168.87</ele>
        <time>2020-03-13T12:41:02Z</time>
      </trkpt>
      <trkpt lat="45.23354" lon="6.02775">
        <ele>2168.87</ele>
        <time>2020-03-13T12:41:47Z</time>
      </trkpt>
      <trkpt lat="45.23354" lon="6.02777">
        <ele>2168.87</ele>
        <time>2020-03-13T12:42:28Z</time>
      </trkpt>
      <trkpt lat="45.23354" lon="6.02776">
        <ele>2168.87</ele>
        <time>2020-03-13T12:43:15Z</time>
      </trkpt>
      <trkpt lat="45.23354" lon="6.02777">
        <ele>2168.87</ele>
        <time>2020-03-13T12:44:01Z</time>
      </trkpt>
      <trkpt lat="45.23354" lon="6.02776">
        <ele>2168.87</ele>
        <time>2020-03-13T12:44:58Z</time>
      </trkpt>
      <trkpt lat="45.23355" lon="6.02775">
        <ele>2168.87</ele>
        <time>2020-03-13T12:45:40Z</time>
      </trkpt>
      <trkpt lat="45.23355" lon="6.02777">
        <ele>2168.87</ele>
        <time>2020-03-13T12:46:29Z</time>
      </trkpt>
      <trkpt lat="45.23355" lon="6.02777">
        <ele>2168.87</ele>
        <time>2020-03-13T12:47:22Z</time>
      </trkpt>
      <trkpt lat="45.23355" lon="6.02776">
        <ele>2168.87</ele>
        <time>2020-03-13T12:48:11Z</time>
      </trkpt>
      <trkpt lat="45.23355" lon="6.02775">
        <ele>2168.87</ele>
        <time>2020-03-13T12:49:06Z</time>
      </trkpt>
      <trkpt lat="45.23356" lon="6.02775">
        <ele>2168.87</ele>
        <time>2020-03-13T12:49:57Z</time>
      </trkpt>
      <trkpt lat="45.23356" lon="6.02774">
        <ele>2169.35</ele>
        <time>2020-03-13T12:50:41Z</time>
      </trkpt>
      <trkpt lat="45.23357" lon="6.02773">
        <ele>2169.35</ele>
        <time>2020-03-13T12:51:09Z</time>
      </trkpt>
      <trkpt lat="45.23354" lon="6.02775">
        <ele>2168.87</ele>
        <time>2020-03-13T12:51:48Z</time>
      </trkpt>
      <trkpt lat="45.23356" lon="6.02777">
        <ele>2168.87</ele>
        <time>2020-03-13T12:52:29Z</time>
      </trkpt>
      <trkpt lat="45.23357" lon="6.02775">
        <ele>2169.35</ele>
        <time>2020-03-13T12:53:06Z</time>
      </trkpt>
      <trkpt lat="45.23354" lon="6.02777">
        <ele>2169.35</ele>
        <time>2020-03-13T12:53:48Z</time>
      </trkpt>
      <trkpt lat="45.23354" lon="6.02778">
        <ele>2169.35</ele>
        <time>2020-03-13T12:54:25Z</time>
      </trkpt>
      <trkpt lat="45.23355" lon="6.02776">
        <ele>2169.35</ele>
        <time>2020-03-13T12:54:42Z</time>
      </trkpt>
      <trkpt lat="45.23354" lon="6.02774">
        <ele>2169.83</ele>
        <time>2020-03-13T12:54:58Z</time>
      </trkpt>
      <trkpt lat="45.23355" lon="6.02775">
        <ele>2168.87</ele>
        <time>2020-03-13T12:55:09Z</time>
      </trkpt>
      <trkpt lat="45.23361" lon="6.02772">
        <ele>2168.39</ele>
        <time>2020-03-13T12:55:36Z</time>
      </trkpt>
      <trkpt lat="45.23364" lon="6.0277">
        <ele>2169.83</ele>
        <time>2020-03-13T12:56:00Z</time>
      </trkpt>
      <trkpt lat="45.23366" lon="6.02777">
        <ele>2170.79</ele>
        <time>2020-03-13T12:56:16Z</time>
      </trkpt>
      <trkpt lat="45.23368" lon="6.02779">
        <ele>2170.79</ele>
        <time>2020-03-13T12:56:20Z</time>
      </trkpt>
      <trkpt lat="45.23373" lon="6.0278">
        <ele>2170.79</ele>
        <time>2020-03-13T12:56:25Z</time>
      </trkpt>
      <trkpt lat="45.23383" lon="6.02784">
        <ele>2171.27</ele>
        <time>2020-03-13T12:56:36Z</time>
      </trkpt>
      <trkpt lat="45.23399" lon="6.02787">
        <ele>2171.27</ele>
        <time>2020-03-13T12:56:52Z</time>
      </trkpt>
      <trkpt lat="45.23419" lon="6.02791">
        <ele>2169.35</ele>
        <time>2020-03-13T12:57:08Z</time>
      </trkpt>
      <trkpt lat="45.23431" lon="6.02796">
        <ele>2168.39</ele>
        <time>2020-03-13T12:57:23Z</time>
      </trkpt>
      <trkpt lat="45.23443" lon="6.02803">
        <ele>2168.39</ele>
        <time>2020-03-13T12:57:37Z</time>
      </trkpt>
      <trkpt lat="45.2345" lon="6.02807">
        <ele>2168.39</ele>
        <time>2020-03-13T12:57:45Z</time>
      </trkpt>
      <trkpt lat="45.23459" lon="6.02814">
        <ele>2169.83</ele>
        <time>2020-03-13T12:57:56Z</time>
      </trkpt>
      <trkpt lat="45.23471" lon="6.02825">
        <ele>2171.76</ele>
        <time>2020-03-13T12:58:12Z</time>
      </trkpt>
      <trkpt lat="45.23472" lon="6.02828">
        <ele>2172.24</ele>
        <time>2020-03-13T12:58:15Z</time>
      </trkpt>
      <trkpt lat="45.23483" lon="6.02834">
        <ele>2173.68</ele>
        <time>2020-03-13T12:58:28Z</time>
      </trkpt>
      <trkpt lat="45.23489" lon="6.02838">
        <ele>2174.16</ele>
        <time>2020-03-13T12:58:36Z</time>
      </trkpt>
      <trkpt lat="45.23491" lon="6.0284">
        <ele>2174.16</ele>
        <time>2020-03-13T12:58:40Z</time>
      </trkpt>
      <trkpt lat="45.23504" lon="6.02847">
        <ele>2174.64</ele>
        <time>2020-03-13T12:58:55Z</time>
      </trkpt>
      <trkpt lat="45.2351" lon="6.02849">
        <ele>2174.64</ele>
        <time>2020-03-13T12:59:04Z</time>
      </trkpt>
      <trkpt lat="45.23521" lon="6.02852">
        <ele>2175.6</ele>
        <time>2020-03-13T12:59:16Z</time>
      </trkpt>
      <trkpt lat="45.23536" lon="6.02859">
        <ele>2177.04</ele>
        <time>2020-03-13T12:59:31Z</time>
      </trkpt>
      <trkpt lat="45.23542" lon="6.02867">
        <ele>2178</ele>
        <time>2020-03-13T12:59:43Z</time>
      </trkpt>
      <trkpt lat="45.23551" lon="6.02878">
        <ele>2179.45</ele>
        <time>2020-03-13T12:59:58Z</time>
      </trkpt>
      <trkpt lat="45.23559" lon="6.02891">
        <ele>2180.41</ele>
        <time>2020-03-13T13:00:13Z</time>
      </trkpt>
      <trkpt lat="45.23567" lon="6.02899">
        <ele>2181.37</ele>
        <time>2020-03-13T13:00:27Z</time>
      </trkpt>
      <trkpt lat="45.23568" lon="6.02914">
        <ele>2183.77</ele>
        <time>2020-03-13T13:00:42Z</time>
      </trkpt>
      <trkpt lat="45.2357" lon="6.02924">
        <ele>2185.69</ele>
        <time>2020-03-13T13:00:56Z</time>
      </trkpt>
      <trkpt lat="45.23571" lon="6.02926">
        <ele>2185.69</ele>
        <time>2020-03-13T13:00:58Z</time>
      </trkpt>
      <trkpt lat="45.23581" lon="6.02933">
        <ele>2188.1</ele>
        <time>2020-03-13T13:01:11Z</time>
      </trkpt>
      <trkpt lat="45.23584" lon="6.0294">
        <ele>2189.06</ele>
        <time>2020-03-13T13:01:19Z</time>
      </trkpt>
      <trkpt lat="45.23585" lon="6.02941">
        <ele>2189.06</ele>
        <time>2020-03-13T13:01:20Z</time>
      </trkpt>
      <trkpt lat="45.23602" lon="6.02945">
        <ele>2190.5</ele>
        <time>2020-03-13T13:01:35Z</time>
      </trkpt>
      <trkpt lat="45.2361" lon="6.02956">
        <ele>2190.98</ele>
        <time>2020-03-13T13:01:48Z</time>
      </trkpt>
      <trkpt lat="45.23611" lon="6.02957">
        <ele>2190.98</ele>
        <time>2020-03-13T13:01:50Z</time>
      </trkpt>
      <trkpt lat="45.23613" lon="6.02959">
        <ele>2191.46</ele>
        <time>2020-03-13T13:01:52Z</time>
      </trkpt>
      <trkpt lat="45.23616" lon="6.02967">
        <ele>2191.46</ele>
        <time>2020-03-13T13:02:00Z</time>
      </trkpt>
      <trkpt lat="45.23623" lon="6.02975">
        <ele>2191.94</ele>
        <time>2020-03-13T13:02:11Z</time>
      </trkpt>
      <trkpt lat="45.23634" lon="6.02989">
        <ele>2192.9</ele>
        <time>2020-03-13T13:02:28Z</time>
      </trkpt>
      <trkpt lat="45.23635" lon="6.0299">
        <ele>2192.9</ele>
        <time>2020-03-13T13:02:30Z</time>
      </trkpt>
      <trkpt lat="45.23638" lon="6.03">
        <ele>2192.9</ele>
        <time>2020-03-13T13:02:37Z</time>
      </trkpt>
      <trkpt lat="45.23648" lon="6.03015">
        <ele>2193.39</ele>
        <time>2020-03-13T13:02:53Z</time>
      </trkpt>
      <trkpt lat="45.23652" lon="6.03032">
        <ele>2193.87</ele>
        <time>2020-03-13T13:03:05Z</time>
      </trkpt>
      <trkpt lat="45.23652" lon="6.03043">
        <ele>2194.35</ele>
        <time>2020-03-13T13:03:13Z</time>
      </trkpt>
      <trkpt lat="45.23643" lon="6.03058">
        <ele>2196.27</ele>
        <time>2020-03-13T13:03:30Z</time>
      </trkpt>
      <trkpt lat="45.2364" lon="6.03066">
        <ele>2198.19</ele>
        <time>2020-03-13T13:03:42Z</time>
      </trkpt>
      <trkpt lat="45.23641" lon="6.03068">
        <ele>2198.67</ele>
        <time>2020-03-13T13:03:46Z</time>
      </trkpt>
      <trkpt lat="45.23643" lon="6.03071">
        <ele>2198.67</ele>
        <time>2020-03-13T13:03:49Z</time>
      </trkpt>
      <trkpt lat="45.23651" lon="6.0308">
        <ele>2201.08</ele>
        <time>2020-03-13T13:04:06Z</time>
      </trkpt>
      <trkpt lat="45.2366" lon="6.03087">
        <ele>2203</ele>
        <time>2020-03-13T13:04:20Z</time>
      </trkpt>
      <trkpt lat="45.2367" lon="6.03095">
        <ele>2205.4</ele>
        <time>2020-03-13T13:04:33Z</time>
      </trkpt>
      <trkpt lat="45.2368" lon="6.03103">
        <ele>2208.29</ele>
        <time>2020-03-13T13:04:46Z</time>
      </trkpt>
      <trkpt lat="45.23688" lon="6.03111">
        <ele>2211.17</ele>
        <time>2020-03-13T13:05:05Z</time>
      </trkpt>
      <trkpt lat="45.23696" lon="6.0312">
        <ele>2213.57</ele>
        <time>2020-03-13T13:05:18Z</time>
      </trkpt>
      <trkpt lat="45.23697" lon="6.03122">
        <ele>2216.46</ele>
        <time>2020-03-13T13:05:31Z</time>
      </trkpt>
      <trkpt lat="45.23702" lon="6.03131">
        <ele>2219.34</ele>
        <time>2020-03-13T13:05:45Z</time>
      </trkpt>
      <trkpt lat="45.2371" lon="6.0314">
        <ele>2221.74</ele>
        <time>2020-03-13T13:05:59Z</time>
      </trkpt>
      <trkpt lat="45.23713" lon="6.03142">
        <ele>2222.71</ele>
        <time>2020-03-13T13:06:05Z</time>
      </trkpt>
      <trkpt lat="45.23717" lon="6.0315">
        <ele>2225.59</ele>
        <time>2020-03-13T13:06:21Z</time>
      </trkpt>
      <trkpt lat="45.23717" lon="6.03151">
        <ele>2226.55</ele>
        <time>2020-03-13T13:06:22Z</time>
      </trkpt>
      <trkpt lat="45.23719" lon="6.03149">
        <ele>2228.47</ele>
        <time>2020-03-13T13:06:36Z</time>
      </trkpt>
      <trkpt lat="45.23721" lon="6.03143">
        <ele>2231.36</ele>
        <time>2020-03-13T13:06:50Z</time>
      </trkpt>
      <trkpt lat="45.2373" lon="6.03132">
        <ele>2234.24</ele>
        <time>2020-03-13T13:07:04Z</time>
      </trkpt>
      <trkpt lat="45.23734" lon="6.0313">
        <ele>2236.64</ele>
        <time>2020-03-13T13:07:17Z</time>
      </trkpt>
      <trkpt lat="45.23739" lon="6.03133">
        <ele>2239.53</ele>
        <time>2020-03-13T13:07:31Z</time>
      </trkpt>
      <trkpt lat="45.23746" lon="6.03143">
        <ele>2242.41</ele>
        <time>2020-03-13T13:07:46Z</time>
      </trkpt>
      <trkpt lat="45.23753" lon="6.03152">
        <ele>2245.3</ele>
        <time>2020-03-13T13:08:02Z</time>
      </trkpt>
      <trkpt lat="45.23759" lon="6.03162">
        <ele>2248.66</ele>
        <time>2020-03-13T13:08:18Z</time>
      </trkpt>
      <trkpt lat="45.23761" lon="6.03166">
        <ele>2249.14</ele>
        <time>2020-03-13T13:08:21Z</time>
      </trkpt>
      <trkpt lat="45.23763" lon="6.03174">
        <ele>2250.58</ele>
        <time>2020-03-13T13:08:27Z</time>
      </trkpt>
      <trkpt lat="45.2377" lon="6.03182">
        <ele>2253.95</ele>
        <time>2020-03-13T13:08:43Z</time>
      </trkpt>
      <trkpt lat="45.23773" lon="6.0319">
        <ele>2256.35</ele>
        <time>2020-03-13T13:08:57Z</time>
      </trkpt>
      <trkpt lat="45.23776" lon="6.03193">
        <ele>2256.83</ele>
        <time>2020-03-13T13:09:00Z</time>
      </trkpt>
      <trkpt lat="45.23777" lon="6.03201">
        <ele>2259.72</ele>
        <time>2020-03-13T13:09:15Z</time>
      </trkpt>
      <trkpt lat="45.23781" lon="6.03209">
        <ele>2262.12</ele>
        <time>2020-03-13T13:09:31Z</time>
      </trkpt>
      <trkpt lat="45.23783" lon="6.0321">
        <ele>2263.08</ele>
        <time>2020-03-13T13:09:33Z</time>
      </trkpt>
      <trkpt lat="45.23786" lon="6.03211">
        <ele>2263.08</ele>
        <time>2020-03-13T13:09:36Z</time>
      </trkpt>
      <trkpt lat="45.23792" lon="6.03212">
        <ele>2264.52</ele>
        <time>2020-03-13T13:09:42Z</time>
      </trkpt>
      <trkpt lat="45.23793" lon="6.03212">
        <ele>2265</ele>
        <time>2020-03-13T13:09:44Z</time>
      </trkpt>
      <trkpt lat="45.23796" lon="6.03213">
        <ele>2267.41</ele>
        <time>2020-03-13T13:09:56Z</time>
      </trkpt>
      <trkpt lat="45.23802" lon="6.03211">
        <ele>2270.77</ele>
        <time>2020-03-13T13:10:11Z</time>
      </trkpt>
      <trkpt lat="45.2381" lon="6.0321">
        <ele>2273.66</ele>
        <time>2020-03-13T13:10:28Z</time>
      </trkpt>
      <trkpt lat="45.23817" lon="6.0321">
        <ele>2276.54</ele>
        <time>2020-03-13T13:10:44Z</time>
      </trkpt>
      <trkpt lat="45.2382" lon="6.03211">
        <ele>2277.02</ele>
        <time>2020-03-13T13:10:47Z</time>
      </trkpt>
      <trkpt lat="45.23831" lon="6.03214">
        <ele>2279.42</ele>
        <time>2020-03-13T13:11:03Z</time>
      </trkpt>
      <trkpt lat="45.23837" lon="6.03218">
        <ele>2281.35</ele>
        <time>2020-03-13T13:11:14Z</time>
      </trkpt>
      <trkpt lat="45.23842" lon="6.03221">
        <ele>2283.27</ele>
        <time>2020-03-13T13:11:26Z</time>
      </trkpt>
      <trkpt lat="45.23845" lon="6.03224">
        <ele>2285.19</ele>
        <time>2020-03-13T13:11:34Z</time>
      </trkpt>
      <trkpt lat="45.23849" lon="6.03226">
        <ele>2286.15</ele>
        <time>2020-03-13T13:11:41Z</time>
      </trkpt>
      <trkpt lat="45.23854" lon="6.0323">
        <ele>2288.08</ele>
        <time>2020-03-13T13:11:56Z</time>
      </trkpt>
      <trkpt lat="45.23859" lon="6.03231">
        <ele>2290.96</ele>
        <time>2020-03-13T13:12:10Z</time>
      </trkpt>
      <trkpt lat="45.23864" lon="6.03233">
        <ele>2291.92</ele>
        <time>2020-03-13T13:12:20Z</time>
      </trkpt>
      <trkpt lat="45.23868" lon="6.03238">
        <ele>2294.32</ele>
        <time>2020-03-13T13:12:34Z</time>
      </trkpt>
      <trkpt lat="45.23876" lon="6.03241">
        <ele>2296.25</ele>
        <time>2020-03-13T13:12:47Z</time>
      </trkpt>
      <trkpt lat="45.23882" lon="6.03245">
        <ele>2298.17</ele>
        <time>2020-03-13T13:12:59Z</time>
      </trkpt>
      <trkpt lat="45.23886" lon="6.03248">
        <ele>2301.05</ele>
        <time>2020-03-13T13:13:16Z</time>
      </trkpt>
      <trkpt lat="45.23889" lon="6.03252">
        <ele>2302.49</ele>
        <time>2020-03-13T13:13:36Z</time>
      </trkpt>
      <trkpt lat="45.23895" lon="6.03259">
        <ele>2304.42</ele>
        <time>2020-03-13T13:13:52Z</time>
      </trkpt>
      <trkpt lat="45.23908" lon="6.03258">
        <ele>2306.82</ele>
        <time>2020-03-13T13:14:05Z</time>
      </trkpt>
      <trkpt lat="45.23915" lon="6.03266">
        <ele>2308.26</ele>
        <time>2020-03-13T13:14:17Z</time>
      </trkpt>
      <trkpt lat="45.23917" lon="6.0328">
        <ele>2310.19</ele>
        <time>2020-03-13T13:14:31Z</time>
      </trkpt>
      <trkpt lat="45.23922" lon="6.03286">
        <ele>2311.63</ele>
        <time>2020-03-13T13:14:44Z</time>
      </trkpt>
      <trkpt lat="45.23922" lon="6.03285">
        <ele>2312.59</ele>
        <time>2020-03-13T13:15:03Z</time>
      </trkpt>
      <trkpt lat="45.23911" lon="6.03279">
        <ele>2313.07</ele>
        <time>2020-03-13T13:15:18Z</time>
      </trkpt>
      <trkpt lat="45.23902" lon="6.03265">
        <ele>2314.03</ele>
        <time>2020-03-13T13:15:32Z</time>
      </trkpt>
      <trkpt lat="45.23901" lon="6.03252">
        <ele>2315.95</ele>
        <time>2020-03-13T13:15:47Z</time>
      </trkpt>
      <trkpt lat="45.239" lon="6.03238">
        <ele>2318.84</ele>
        <time>2020-03-13T13:16:05Z</time>
      </trkpt>
      <trkpt lat="45.23898" lon="6.03225">
        <ele>2320.76</ele>
        <time>2020-03-13T13:16:21Z</time>
      </trkpt>
      <trkpt lat="45.23895" lon="6.03213">
        <ele>2322.68</ele>
        <time>2020-03-13T13:16:37Z</time>
      </trkpt>
      <trkpt lat="45.23895" lon="6.03204">
        <ele>2325.09</ele>
        <time>2020-03-13T13:16:52Z</time>
      </trkpt>
      <trkpt lat="45.23897" lon="6.03199">
        <ele>2327.01</ele>
        <time>2020-03-13T13:17:06Z</time>
      </trkpt>
      <trkpt lat="45.23901" lon="6.032">
        <ele>2327.01</ele>
        <time>2020-03-13T13:17:37Z</time>
      </trkpt>
      <trkpt lat="45.23897" lon="6.03198">
        <ele>2327.01</ele>
        <time>2020-03-13T13:18:08Z</time>
      </trkpt>
      <trkpt lat="45.23904" lon="6.03202">
        <ele>2327.97</ele>
        <time>2020-03-13T13:18:30Z</time>
      </trkpt>
      <trkpt lat="45.23914" lon="6.03209">
        <ele>2330.37</ele>
        <time>2020-03-13T13:18:43Z</time>
      </trkpt>
      <trkpt lat="45.23916" lon="6.03212">
        <ele>2331.81</ele>
        <time>2020-03-13T13:18:51Z</time>
      </trkpt>
      <trkpt lat="45.23922" lon="6.03217">
        <ele>2333.74</ele>
        <time>2020-03-13T13:19:05Z</time>
      </trkpt>
      <trkpt lat="45.23926" lon="6.03222">
        <ele>2337.1</ele>
        <time>2020-03-13T13:19:20Z</time>
      </trkpt>
      <trkpt lat="45.23932" lon="6.03226">
        <ele>2339.51</ele>
        <time>2020-03-13T13:19:36Z</time>
      </trkpt>
      <trkpt lat="45.23933" lon="6.03227">
        <ele>2339.99</ele>
        <time>2020-03-13T13:19:39Z</time>
      </trkpt>
      <trkpt lat="45.23938" lon="6.03234">
        <ele>2341.91</ele>
        <time>2020-03-13T13:19:53Z</time>
      </trkpt>
      <trkpt lat="45.23941" lon="6.03239">
        <ele>2344.79</ele>
        <time>2020-03-13T13:20:06Z</time>
      </trkpt>
      <trkpt lat="45.23948" lon="6.03246">
        <ele>2346.72</ele>
        <time>2020-03-13T13:20:19Z</time>
      </trkpt>
      <trkpt lat="45.23953" lon="6.03252">
        <ele>2349.12</ele>
        <time>2020-03-13T13:20:32Z</time>
      </trkpt>
      <trkpt lat="45.23955" lon="6.03258">
        <ele>2351.04</ele>
        <time>2020-03-13T13:20:46Z</time>
      </trkpt>
      <trkpt lat="45.23957" lon="6.03264">
        <ele>2354.41</ele>
        <time>2020-03-13T13:21:02Z</time>
      </trkpt>
      <trkpt lat="45.23959" lon="6.03269">
        <ele>2355.85</ele>
        <time>2020-03-13T13:21:16Z</time>
      </trkpt>
      <trkpt lat="45.23964" lon="6.03275">
        <ele>2358.25</ele>
        <time>2020-03-13T13:21:30Z</time>
      </trkpt>
      <trkpt lat="45.23967" lon="6.03281">
        <ele>2360.17</ele>
        <time>2020-03-13T13:21:43Z</time>
      </trkpt>
      <trkpt lat="45.23967" lon="6.03278">
        <ele>2361.14</ele>
        <time>2020-03-13T13:21:57Z</time>
      </trkpt>
      <trkpt lat="45.23967" lon="6.0326">
        <ele>2363.06</ele>
        <time>2020-03-13T13:22:18Z</time>
      </trkpt>
      <trkpt lat="45.23967" lon="6.0325">
        <ele>2364.98</ele>
        <time>2020-03-13T13:22:31Z</time>
      </trkpt>
      <trkpt lat="45.23968" lon="6.03238">
        <ele>2367.38</ele>
        <time>2020-03-13T13:22:46Z</time>
      </trkpt>
      <trkpt lat="45.23971" lon="6.0323">
        <ele>2369.79</ele>
        <time>2020-03-13T13:23:01Z</time>
      </trkpt>
      <trkpt lat="45.23973" lon="6.03222">
        <ele>2372.19</ele>
        <time>2020-03-13T13:23:14Z</time>
      </trkpt>
      <trkpt lat="45.23977" lon="6.03217">
        <ele>2373.63</ele>
        <time>2020-03-13T13:23:30Z</time>
      </trkpt>
      <trkpt lat="45.2398" lon="6.03207">
        <ele>2376.52</ele>
        <time>2020-03-13T13:23:48Z</time>
      </trkpt>
      <trkpt lat="45.23979" lon="6.03199">
        <ele>2378.44</ele>
        <time>2020-03-13T13:24:02Z</time>
      </trkpt>
      <trkpt lat="45.23978" lon="6.03194">
        <ele>2379.4</ele>
        <time>2020-03-13T13:24:19Z</time>
      </trkpt>
      <trkpt lat="45.23981" lon="6.03197">
        <ele>2380.36</ele>
        <time>2020-03-13T13:24:40Z</time>
      </trkpt>
      <trkpt lat="45.23983" lon="6.03197">
        <ele>2380.84</ele>
        <time>2020-03-13T13:25:05Z</time>
      </trkpt>
      <trkpt lat="45.23989" lon="6.03205">
        <ele>2381.8</ele>
        <time>2020-03-13T13:25:23Z</time>
      </trkpt>
      <trkpt lat="45.23993" lon="6.03216">
        <ele>2383.73</ele>
        <time>2020-03-13T13:25:39Z</time>
      </trkpt>
      <trkpt lat="45.23997" lon="6.03229">
        <ele>2386.13</ele>
        <time>2020-03-13T13:25:56Z</time>
      </trkpt>
      <trkpt lat="45.24001" lon="6.03241">
        <ele>2387.57</ele>
        <time>2020-03-13T13:26:11Z</time>
      </trkpt>
      <trkpt lat="45.24005" lon="6.0325">
        <ele>2389.97</ele>
        <time>2020-03-13T13:26:26Z</time>
      </trkpt>
      <trkpt lat="45.24009" lon="6.03258">
        <ele>2392.38</ele>
        <time>2020-03-13T13:26:43Z</time>
      </trkpt>
      <trkpt lat="45.24012" lon="6.03265">
        <ele>2394.78</ele>
        <time>2020-03-13T13:26:59Z</time>
      </trkpt>
      <trkpt lat="45.24015" lon="6.03273">
        <ele>2396.7</ele>
        <time>2020-03-13T13:27:14Z</time>
      </trkpt>
      <trkpt lat="45.24019" lon="6.03279">
        <ele>2399.11</ele>
        <time>2020-03-13T13:27:31Z</time>
      </trkpt>
      <trkpt lat="45.24023" lon="6.03286">
        <ele>2401.51</ele>
        <time>2020-03-13T13:27:46Z</time>
      </trkpt>
      <trkpt lat="45.24025" lon="6.03292">
        <ele>2403.91</ele>
        <time>2020-03-13T13:28:02Z</time>
      </trkpt>
      <trkpt lat="45.24024" lon="6.0328">
        <ele>2405.84</ele>
        <time>2020-03-13T13:28:19Z</time>
      </trkpt>
      <trkpt lat="45.24027" lon="6.03269">
        <ele>2407.28</ele>
        <time>2020-03-13T13:28:34Z</time>
      </trkpt>
      <trkpt lat="45.24031" lon="6.03258">
        <ele>2409.68</ele>
        <time>2020-03-13T13:28:48Z</time>
      </trkpt>
      <trkpt lat="45.24034" lon="6.03244">
        <ele>2412.09</ele>
        <time>2020-03-13T13:29:06Z</time>
      </trkpt>
      <trkpt lat="45.24039" lon="6.03236">
        <ele>2414.49</ele>
        <time>2020-03-13T13:29:21Z</time>
      </trkpt>
      <trkpt lat="45.24041" lon="6.03232">
        <ele>2415.45</ele>
        <time>2020-03-13T13:29:38Z</time>
      </trkpt>
      <trkpt lat="45.24046" lon="6.03225">
        <ele>2417.85</ele>
        <time>2020-03-13T13:29:55Z</time>
      </trkpt>
      <trkpt lat="45.24053" lon="6.03221">
        <ele>2419.78</ele>
        <time>2020-03-13T13:30:11Z</time>
      </trkpt>
      <trkpt lat="45.2406" lon="6.03218">
        <ele>2422.66</ele>
        <time>2020-03-13T13:30:26Z</time>
      </trkpt>
      <trkpt lat="45.24068" lon="6.03216">
        <ele>2425.06</ele>
        <time>2020-03-13T13:30:43Z</time>
      </trkpt>
      <trkpt lat="45.24075" lon="6.03221">
        <ele>2427.95</ele>
        <time>2020-03-13T13:30:59Z</time>
      </trkpt>
      <trkpt lat="45.24082" lon="6.03225">
        <ele>2430.83</ele>
        <time>2020-03-13T13:31:14Z</time>
      </trkpt>
      <trkpt lat="45.24088" lon="6.03228">
        <ele>2433.23</ele>
        <time>2020-03-13T13:31:29Z</time>
      </trkpt>
      <trkpt lat="45.24094" lon="6.03231">
        <ele>2435.64</ele>
        <time>2020-03-13T13:31:45Z</time>
      </trkpt>
      <trkpt lat="45.24097" lon="6.03239">
        <ele>2437.56</ele>
        <time>2020-03-13T13:31:59Z</time>
      </trkpt>
      <trkpt lat="45.24099" lon="6.03249">
        <ele>2440.44</ele>
        <time>2020-03-13T13:32:16Z</time>
      </trkpt>
      <trkpt lat="45.24104" lon="6.0326">
        <ele>2443.33</ele>
        <time>2020-03-13T13:32:34Z</time>
      </trkpt>
      <trkpt lat="45.24107" lon="6.0327">
        <ele>2445.25</ele>
        <time>2020-03-13T13:32:49Z</time>
      </trkpt>
      <trkpt lat="45.24109" lon="6.03279">
        <ele>2448.13</ele>
        <time>2020-03-13T13:33:05Z</time>
      </trkpt>
      <trkpt lat="45.24115" lon="6.03285">
        <ele>2451.02</ele>
        <time>2020-03-13T13:33:20Z</time>
      </trkpt>
      <trkpt lat="45.2412" lon="6.03291">
        <ele>2452.94</ele>
        <time>2020-03-13T13:33:37Z</time>
      </trkpt>
      <trkpt lat="45.2413" lon="6.03302">
        <ele>2456.31</ele>
        <time>2020-03-13T13:33:57Z</time>
      </trkpt>
      <trkpt lat="45.24137" lon="6.03308">
        <ele>2457.75</ele>
        <time>2020-03-13T13:34:14Z</time>
      </trkpt>
      <trkpt lat="45.24145" lon="6.03314">
        <ele>2460.15</ele>
        <time>2020-03-13T13:34:29Z</time>
      </trkpt>
      <trkpt lat="45.24153" lon="6.03318">
        <ele>2462.07</ele>
        <time>2020-03-13T13:34:44Z</time>
      </trkpt>
      <trkpt lat="45.2416" lon="6.03318">
        <ele>2464</ele>
        <time>2020-03-13T13:35:01Z</time>
      </trkpt>
      <trkpt lat="45.24164" lon="6.03313">
        <ele>2465.92</ele>
        <time>2020-03-13T13:35:15Z</time>
      </trkpt>
      <trkpt lat="45.2417" lon="6.03308">
        <ele>2468.8</ele>
        <time>2020-03-13T13:35:30Z</time>
      </trkpt>
      <trkpt lat="45.24171" lon="6.033">
        <ele>2470.73</ele>
        <time>2020-03-13T13:35:44Z</time>
      </trkpt>
      <trkpt lat="45.24162" lon="6.03295">
        <ele>2472.17</ele>
        <time>2020-03-13T13:35:58Z</time>
      </trkpt>
      <trkpt lat="45.24159" lon="6.03293">
        <ele>2472.17</ele>
        <time>2020-03-13T13:36:17Z</time>
      </trkpt>
      <trkpt lat="45.2416" lon="6.03291">
        <ele>2472.65</ele>
        <time>2020-03-13T13:36:36Z</time>
      </trkpt>
      <trkpt lat="45.2416" lon="6.03293">
        <ele>2472.65</ele>
        <time>2020-03-13T13:37:00Z</time>
      </trkpt>
      <trkpt lat="45.2416" lon="6.03291">
        <ele>2472.65</ele>
        <time>2020-03-13T13:37:25Z</time>
      </trkpt>
      <trkpt lat="45.24159" lon="6.03291">
        <ele>2472.65</ele>
        <time>2020-03-13T13:37:48Z</time>
      </trkpt>
      <trkpt lat="45.2416" lon="6.03291">
        <ele>2472.65</ele>
        <time>2020-03-13T13:38:17Z</time>
      </trkpt>
      <trkpt lat="45.24161" lon="6.03288">
        <ele>2472.65</ele>
        <time>2020-03-13T13:38:46Z</time>
      </trkpt>
      <trkpt lat="45.24163" lon="6.03286">
        <ele>2472.65</ele>
        <time>2020-03-13T13:39:20Z</time>
      </trkpt>
      <trkpt lat="45.24162" lon="6.03288">
        <ele>2472.65</ele>
        <time>2020-03-13T13:39:59Z</time>
      </trkpt>
      <trkpt lat="45.24164" lon="6.03285">
        <ele>2472.65</ele>
        <time>2020-03-13T13:40:31Z</time>
      </trkpt>
      <trkpt lat="45.24163" lon="6.03286">
        <ele>2472.65</ele>
        <time>2020-03-13T13:41:02Z</time>
      </trkpt>
      <trkpt lat="45.24165" lon="6.03282">
        <ele>2472.65</ele>
        <time>2020-03-13T13:41:40Z</time>
      </trkpt>
      <trkpt lat="45.24166" lon="6.03282">
        <ele>2473.13</ele>
        <time>2020-03-13T13:42:19Z</time>
      </trkpt>
      <trkpt lat="45.24164" lon="6.03286">
        <ele>2473.13</ele>
        <time>2020-03-13T13:42:50Z</time>
      </trkpt>
      <trkpt lat="45.24162" lon="6.03289">
        <ele>2473.13</ele>
        <time>2020-03-13T13:43:23Z</time>
      </trkpt>
      <trkpt lat="45.2416" lon="6.03291">
        <ele>2473.13</ele>
        <time>2020-03-13T13:43:45Z</time>
      </trkpt>
      <trkpt lat="45.24159" lon="6.0329">
        <ele>2472.17</ele>
        <time>2020-03-13T13:44:17Z</time>
      </trkpt>
      <trkpt lat="45.24159" lon="6.0329">
        <ele>2472.17</ele>
        <time>2020-03-13T13:44:57Z</time>
      </trkpt>
      <trkpt lat="45.24159" lon="6.0329">
        <ele>2472.17</ele>
        <time>2020-03-13T13:45:46Z</time>
      </trkpt>
      <trkpt lat="45.24159" lon="6.03291">
        <ele>2472.17</ele>
        <time>2020-03-13T13:46:33Z</time>
      </trkpt>
      <trkpt lat="45.24159" lon="6.0329">
        <ele>2472.17</ele>
        <time>2020-03-13T13:47:22Z</time>
      </trkpt>
      <trkpt lat="45.24159" lon="6.0329">
        <ele>2472.17</ele>
        <time>2020-03-13T13:48:04Z</time>
      </trkpt>
      <trkpt lat="45.24159" lon="6.0329">
        <ele>2472.17</ele>
        <time>2020-03-13T13:48:37Z</time>
      </trkpt>
      <trkpt lat="45.2416" lon="6.03291">
        <ele>2473.61</ele>
        <time>2020-03-13T13:49:02Z</time>
      </trkpt>
      <trkpt lat="45.2416" lon="6.03292">
        <ele>2473.61</ele>
        <time>2020-03-13T13:49:24Z</time>
      </trkpt>
      <trkpt lat="45.24162" lon="6.03297">
        <ele>2474.09</ele>
        <time>2020-03-13T13:49:44Z</time>
      </trkpt>
      <trkpt lat="45.24164" lon="6.03298">
        <ele>2472.65</ele>
        <time>2020-03-13T13:49:55Z</time>
      </trkpt>
      <trkpt lat="45.24164" lon="6.03298">
        <ele>2472.65</ele>
        <time>2020-03-13T13:50:20Z</time>
      </trkpt>
      <trkpt lat="45.24164" lon="6.03297">
        <ele>2472.65</ele>
        <time>2020-03-13T13:50:45Z</time>
      </trkpt>
      <trkpt lat="45.24164" lon="6.03295">
        <ele>2472.65</ele>
        <time>2020-03-13T13:51:04Z</time>
      </trkpt>
      <trkpt lat="45.24167" lon="6.03298">
        <ele>2472.65</ele>
        <time>2020-03-13T13:51:25Z</time>
      </trkpt>
      <trkpt lat="45.24166" lon="6.03298">
        <ele>2472.65</ele>
        <time>2020-03-13T13:51:57Z</time>
      </trkpt>
      <trkpt lat="45.24166" lon="6.03299">
        <ele>2472.65</ele>
        <time>2020-03-13T13:52:19Z</time>
      </trkpt>
      <trkpt lat="45.24165" lon="6.03301">
        <ele>2472.65</ele>
        <time>2020-03-13T13:52:22Z</time>
      </trkpt>
      <trkpt lat="45.24166" lon="6.03306">
        <ele>2471.69</ele>
        <time>2020-03-13T13:52:24Z</time>
      </trkpt>
      <trkpt lat="45.24163" lon="6.03315">
        <ele>2466.88</ele>
        <time>2020-03-13T13:52:26Z</time>
      </trkpt>
      <trkpt lat="45.24151" lon="6.03318">
        <ele>2462.55</ele>
        <time>2020-03-13T13:52:28Z</time>
      </trkpt>
      <trkpt lat="45.24138" lon="6.03317">
        <ele>2459.67</ele>
        <time>2020-03-13T13:52:30Z</time>
      </trkpt>
      <trkpt lat="45.2413" lon="6.03306">
        <ele>2457.27</ele>
        <time>2020-03-13T13:52:32Z</time>
      </trkpt>
      <trkpt lat="45.24127" lon="6.03302">
        <ele>2456.79</ele>
        <time>2020-03-13T13:52:33Z</time>
      </trkpt>
      <trkpt lat="45.24124" lon="6.033">
        <ele>2456.31</ele>
        <time>2020-03-13T13:52:34Z</time>
      </trkpt>
      <trkpt lat="45.24123" lon="6.03297">
        <ele>2455.34</ele>
        <time>2020-03-13T13:52:36Z</time>
      </trkpt>
      <trkpt lat="45.24123" lon="6.03294">
        <ele>2455.34</ele>
        <time>2020-03-13T13:52:42Z</time>
      </trkpt>
      <trkpt lat="45.24122" lon="6.03291">
        <ele>2455.34</ele>
        <time>2020-03-13T13:52:43Z</time>
      </trkpt>
      <trkpt lat="45.24121" lon="6.03288">
        <ele>2454.86</ele>
        <time>2020-03-13T13:52:44Z</time>
      </trkpt>
      <trkpt lat="45.24117" lon="6.03287">
        <ele>2453.9</ele>
        <time>2020-03-13T13:52:45Z</time>
      </trkpt>
      <trkpt lat="45.241" lon="6.03274">
        <ele>2444.77</ele>
        <time>2020-03-13T13:52:49Z</time>
      </trkpt>
      <trkpt lat="45.24091" lon="6.03264">
        <ele>2440.44</ele>
        <time>2020-03-13T13:52:51Z</time>
      </trkpt>
      <trkpt lat="45.24089" lon="6.03256">
        <ele>2437.56</ele>
        <time>2020-03-13T13:52:52Z</time>
      </trkpt>
      <trkpt lat="45.24073" lon="6.03236">
        <ele>2430.35</ele>
        <time>2020-03-13T13:52:56Z</time>
      </trkpt>
      <trkpt lat="45.24058" lon="6.03225">
        <ele>2422.66</ele>
        <time>2020-03-13T13:52:59Z</time>
      </trkpt>
      <trkpt lat="45.24049" lon="6.03227">
        <ele>2419.78</ele>
        <time>2020-03-13T13:53:01Z</time>
      </trkpt>
      <trkpt lat="45.24048" lon="6.03228">
        <ele>2419.78</ele>
        <time>2020-03-13T13:53:02Z</time>
      </trkpt>
      <trkpt lat="45.24045" lon="6.03228">
        <ele>2420.74</ele>
        <time>2020-03-13T13:53:24Z</time>
      </trkpt>
      <trkpt lat="45.24041" lon="6.03236">
        <ele>2420.26</ele>
        <time>2020-03-13T13:53:31Z</time>
      </trkpt>
      <trkpt lat="45.24034" lon="6.03226">
        <ele>2415.45</ele>
        <time>2020-03-13T13:53:34Z</time>
      </trkpt>
      <trkpt lat="45.24029" lon="6.03207">
        <ele>2412.09</ele>
        <time>2020-03-13T13:53:37Z</time>
      </trkpt>
      <trkpt lat="45.24018" lon="6.03186">
        <ele>2405.36</ele>
        <time>2020-03-13T13:53:41Z</time>
      </trkpt>
      <trkpt lat="45.24012" lon="6.03194">
        <ele>2401.51</ele>
        <time>2020-03-13T13:53:43Z</time>
      </trkpt>
      <trkpt lat="45.24004" lon="6.032">
        <ele>2396.22</ele>
        <time>2020-03-13T13:53:45Z</time>
      </trkpt>
      <trkpt lat="45.23995" lon="6.03193">
        <ele>2392.38</ele>
        <time>2020-03-13T13:53:47Z</time>
      </trkpt>
      <trkpt lat="45.2399" lon="6.03199">
        <ele>2389.01</ele>
        <time>2020-03-13T13:53:49Z</time>
      </trkpt>
      <trkpt lat="45.23988" lon="6.03207">
        <ele>2385.65</ele>
        <time>2020-03-13T13:53:50Z</time>
      </trkpt>
      <trkpt lat="45.23986" lon="6.03215">
        <ele>2384.69</ele>
        <time>2020-03-13T13:53:51Z</time>
      </trkpt>
      <trkpt lat="45.2398" lon="6.03235">
        <ele>2379.88</ele>
        <time>2020-03-13T13:53:55Z</time>
      </trkpt>
      <trkpt lat="45.23972" lon="6.03239">
        <ele>2375.07</ele>
        <time>2020-03-13T13:53:57Z</time>
      </trkpt>
      <trkpt lat="45.23967" lon="6.0325">
        <ele>2371.23</ele>
        <time>2020-03-13T13:53:59Z</time>
      </trkpt>
      <trkpt lat="45.2396" lon="6.03255">
        <ele>2366.9</ele>
        <time>2020-03-13T13:54:01Z</time>
      </trkpt>
      <trkpt lat="45.23954" lon="6.03262">
        <ele>2360.65</ele>
        <time>2020-03-13T13:54:03Z</time>
      </trkpt>
      <trkpt lat="45.23949" lon="6.03278">
        <ele>2357.29</ele>
        <time>2020-03-13T13:54:05Z</time>
      </trkpt>
      <trkpt lat="45.23938" lon="6.03278">
        <ele>2345.27</ele>
        <time>2020-03-13T13:54:09Z</time>
      </trkpt>
      <trkpt lat="45.23933" lon="6.03276">
        <ele>2340.95</ele>
        <time>2020-03-13T13:54:10Z</time>
      </trkpt>
      <trkpt lat="45.23925" lon="6.03279">
        <ele>2333.74</ele>
        <time>2020-03-13T13:54:12Z</time>
      </trkpt>
      <trkpt lat="45.23919" lon="6.03282">
        <ele>2328.45</ele>
        <time>2020-03-13T13:54:13Z</time>
      </trkpt>
      <trkpt lat="45.23914" lon="6.03278">
        <ele>2324.61</ele>
        <time>2020-03-13T13:54:14Z</time>
      </trkpt>
      <trkpt lat="45.23908" lon="6.03279">
        <ele>2320.28</ele>
        <time>2020-03-13T13:54:15Z</time>
      </trkpt>
      <trkpt lat="45.23896" lon="6.03282">
        <ele>2312.11</ele>
        <time>2020-03-13T13:54:17Z</time>
      </trkpt>
      <trkpt lat="45.23889" lon="6.03281">
        <ele>2305.38</ele>
        <time>2020-03-13T13:54:18Z</time>
      </trkpt>
      <trkpt lat="45.23881" lon="6.03275">
        <ele>2300.57</ele>
        <time>2020-03-13T13:54:19Z</time>
      </trkpt>
      <trkpt lat="45.23866" lon="6.03237">
        <ele>2296.73</ele>
        <time>2020-03-13T13:54:22Z</time>
      </trkpt>
      <trkpt lat="45.23851" lon="6.03217">
        <ele>2294.32</ele>
        <time>2020-03-13T13:54:26Z</time>
      </trkpt>
      <trkpt lat="45.23849" lon="6.03214">
        <ele>2296.25</ele>
        <time>2020-03-13T13:54:28Z</time>
      </trkpt>
      <trkpt lat="45.23838" lon="6.03203">
        <ele>2296.25</ele>
        <time>2020-03-13T13:54:47Z</time>
      </trkpt>
      <trkpt lat="45.23838" lon="6.03205">
        <ele>2297.21</ele>
        <time>2020-03-13T13:55:15Z</time>
      </trkpt>
      <trkpt lat="45.23836" lon="6.03209">
        <ele>2295.77</ele>
        <time>2020-03-13T13:55:18Z</time>
      </trkpt>
      <trkpt lat="45.2384" lon="6.03212">
        <ele>2295.77</ele>
        <time>2020-03-13T13:55:34Z</time>
      </trkpt>
      <trkpt lat="45.23844" lon="6.0321">
        <ele>2296.25</ele>
        <time>2020-03-13T13:56:09Z</time>
      </trkpt>
      <trkpt lat="45.23843" lon="6.03212">
        <ele>2296.25</ele>
        <time>2020-03-13T13:56:17Z</time>
      </trkpt>
      <trkpt lat="45.23834" lon="6.03211">
        <ele>2291.92</ele>
        <time>2020-03-13T13:56:21Z</time>
      </trkpt>
      <trkpt lat="45.23831" lon="6.03206">
        <ele>2290.48</ele>
        <time>2020-03-13T13:56:22Z</time>
      </trkpt>
      <trkpt lat="45.23816" lon="6.03183">
        <ele>2286.63</ele>
        <time>2020-03-13T13:56:27Z</time>
      </trkpt>
      <trkpt lat="45.23804" lon="6.03163">
        <ele>2282.79</ele>
        <time>2020-03-13T13:56:31Z</time>
      </trkpt>
      <trkpt lat="45.23795" lon="6.03141">
        <ele>2279.42</ele>
        <time>2020-03-13T13:56:35Z</time>
      </trkpt>
      <trkpt lat="45.23792" lon="6.03134">
        <ele>2278.46</ele>
        <time>2020-03-13T13:56:36Z</time>
      </trkpt>
      <trkpt lat="45.23781" lon="6.03124">
        <ele>2272.69</ele>
        <time>2020-03-13T13:56:39Z</time>
      </trkpt>
      <trkpt lat="45.23772" lon="6.03124">
        <ele>2267.41</ele>
        <time>2020-03-13T13:56:41Z</time>
      </trkpt>
      <trkpt lat="45.23764" lon="6.03135">
        <ele>2262.12</ele>
        <time>2020-03-13T13:56:43Z</time>
      </trkpt>
      <trkpt lat="45.23756" lon="6.03149">
        <ele>2257.31</ele>
        <time>2020-03-13T13:56:45Z</time>
      </trkpt>
      <trkpt lat="45.23752" lon="6.03151">
        <ele>2253.95</ele>
        <time>2020-03-13T13:56:46Z</time>
      </trkpt>
      <trkpt lat="45.23747" lon="6.03148">
        <ele>2250.1</ele>
        <time>2020-03-13T13:56:47Z</time>
      </trkpt>
      <trkpt lat="45.23736" lon="6.03145">
        <ele>2243.37</ele>
        <time>2020-03-13T13:56:49Z</time>
      </trkpt>
      <trkpt lat="45.23724" lon="6.03146">
        <ele>2237.13</ele>
        <time>2020-03-13T13:56:51Z</time>
      </trkpt>
      <trkpt lat="45.23719" lon="6.03143">
        <ele>2233.76</ele>
        <time>2020-03-13T13:56:52Z</time>
      </trkpt>
      <trkpt lat="45.23701" lon="6.03113">
        <ele>2226.07</ele>
        <time>2020-03-13T13:56:58Z</time>
      </trkpt>
      <trkpt lat="45.23701" lon="6.03101">
        <ele>2225.59</ele>
        <time>2020-03-13T13:57:00Z</time>
      </trkpt>
      <trkpt lat="45.237" lon="6.03091">
        <ele>2226.07</ele>
        <time>2020-03-13T13:57:15Z</time>
      </trkpt>
      <trkpt lat="45.23702" lon="6.03093">
        <ele>2226.07</ele>
        <time>2020-03-13T13:57:39Z</time>
      </trkpt>
      <trkpt lat="45.237" lon="6.03093">
        <ele>2226.55</ele>
        <time>2020-03-13T13:57:47Z</time>
      </trkpt>
      <trkpt lat="45.23693" lon="6.03085">
        <ele>2222.22</ele>
        <time>2020-03-13T13:57:51Z</time>
      </trkpt>
      <trkpt lat="45.23683" lon="6.03083">
        <ele>2218.86</ele>
        <time>2020-03-13T13:57:53Z</time>
      </trkpt>
      <trkpt lat="45.23674" lon="6.0308">
        <ele>2215.01</ele>
        <time>2020-03-13T13:57:55Z</time>
      </trkpt>
      <trkpt lat="45.23667" lon="6.03075">
        <ele>2210.69</ele>
        <time>2020-03-13T13:57:57Z</time>
      </trkpt>
      <trkpt lat="45.23652" lon="6.03069">
        <ele>2204.92</ele>
        <time>2020-03-13T13:58:01Z</time>
      </trkpt>
      <trkpt lat="45.23648" lon="6.03071">
        <ele>2204.92</ele>
        <time>2020-03-13T13:58:02Z</time>
      </trkpt>
      <trkpt lat="45.23645" lon="6.03065">
        <ele>2202.04</ele>
        <time>2020-03-13T13:58:05Z</time>
      </trkpt>
      <trkpt lat="45.23645" lon="6.03064">
        <ele>2203</ele>
        <time>2020-03-13T13:58:31Z</time>
      </trkpt>
      <trkpt lat="45.23646" lon="6.03063">
        <ele>2203</ele>
        <time>2020-03-13T13:59:10Z</time>
      </trkpt>
      <trkpt lat="45.23644" lon="6.03059">
        <ele>2203</ele>
        <time>2020-03-13T13:59:19Z</time>
      </trkpt>
      <trkpt lat="45.23641" lon="6.03065">
        <ele>2201.56</ele>
        <time>2020-03-13T13:59:36Z</time>
      </trkpt>
      <trkpt lat="45.23639" lon="6.03061">
        <ele>2201.08</ele>
        <time>2020-03-13T13:59:59Z</time>
      </trkpt>
      <trkpt lat="45.2364" lon="6.03061">
        <ele>2200.59</ele>
        <time>2020-03-13T14:00:14Z</time>
      </trkpt>
      <trkpt lat="45.23641" lon="6.03062">
        <ele>2200.59</ele>
        <time>2020-03-13T14:00:49Z</time>
      </trkpt>
      <trkpt lat="45.23639" lon="6.0306">
        <ele>2200.59</ele>
        <time>2020-03-13T14:01:30Z</time>
      </trkpt>
      <trkpt lat="45.23638" lon="6.03061">
        <ele>2200.59</ele>
        <time>2020-03-13T14:02:08Z</time>
      </trkpt>
      <trkpt lat="45.23639" lon="6.03061">
        <ele>2201.56</ele>
        <time>2020-03-13T14:02:41Z</time>
      </trkpt>
      <trkpt lat="45.23641" lon="6.03062">
        <ele>2200.11</ele>
        <time>2020-03-13T14:02:54Z</time>
      </trkpt>
      <trkpt lat="45.23639" lon="6.03063">
        <ele>2201.56</ele>
        <time>2020-03-13T14:03:27Z</time>
      </trkpt>
      <trkpt lat="45.23638" lon="6.03064">
        <ele>2201.08</ele>
        <time>2020-03-13T14:03:51Z</time>
      </trkpt>
      <trkpt lat="45.23638" lon="6.03066">
        <ele>2201.08</ele>
        <time>2020-03-13T14:04:24Z</time>
      </trkpt>
      <trkpt lat="45.23638" lon="6.03066">
        <ele>2202.52</ele>
        <time>2020-03-13T14:04:33Z</time>
      </trkpt>
      <trkpt lat="45.23638" lon="6.03066">
        <ele>2201.08</ele>
        <time>2020-03-13T14:04:37Z</time>
      </trkpt>
      <trkpt lat="45.23637" lon="6.03066">
        <ele>2201.08</ele>
        <time>2020-03-13T14:05:15Z</time>
      </trkpt>
      <trkpt lat="45.23637" lon="6.03065">
        <ele>2201.08</ele>
        <time>2020-03-13T14:05:45Z</time>
      </trkpt>
      <trkpt lat="45.23636" lon="6.03066">
        <ele>2201.08</ele>
        <time>2020-03-13T14:06:14Z</time>
      </trkpt>
      <trkpt lat="45.23637" lon="6.03065">
        <ele>2201.08</ele>
        <time>2020-03-13T14:06:43Z</time>
      </trkpt>
      <trkpt lat="45.23637" lon="6.03063">
        <ele>2201.08</ele>
        <time>2020-03-13T14:07:16Z</time>
      </trkpt>
      <trkpt lat="45.23636" lon="6.03062">
        <ele>2201.08</ele>
        <time>2020-03-13T14:07:46Z</time>
      </trkpt>
      <trkpt lat="45.23635" lon="6.0306">
        <ele>2200.11</ele>
        <time>2020-03-13T14:08:09Z</time>
      </trkpt>
      <trkpt lat="45.23639" lon="6.03062">
        <ele>2199.63</ele>
        <time>2020-03-13T14:08:34Z</time>
      </trkpt>
      <trkpt lat="45.23637" lon="6.03063">
        <ele>2199.63</ele>
        <time>2020-03-13T14:09:01Z</time>
      </trkpt>
      <trkpt lat="45.23636" lon="6.03064">
        <ele>2199.63</ele>
        <time>2020-03-13T14:09:14Z</time>
      </trkpt>
      <trkpt lat="45.23628" lon="6.03064">
        <ele>2198.19</ele>
        <time>2020-03-13T14:09:17Z</time>
      </trkpt>
      <trkpt lat="45.23609" lon="6.03058">
        <ele>2191.46</ele>
        <time>2020-03-13T14:09:20Z</time>
      </trkpt>
      <trkpt lat="45.23592" lon="6.03051">
        <ele>2186.18</ele>
        <time>2020-03-13T14:09:22Z</time>
      </trkpt>
      <trkpt lat="45.23573" lon="6.03041">
        <ele>2180.41</ele>
        <time>2020-03-13T14:09:24Z</time>
      </trkpt>
      <trkpt lat="45.23553" lon="6.03032">
        <ele>2175.6</ele>
        <time>2020-03-13T14:09:26Z</time>
      </trkpt>
      <trkpt lat="45.23531" lon="6.03025">
        <ele>2171.27</ele>
        <time>2020-03-13T14:09:28Z</time>
      </trkpt>
      <trkpt lat="45.23487" lon="6.0301">
        <ele>2170.31</ele>
        <time>2020-03-13T14:09:33Z</time>
      </trkpt>
      <trkpt lat="45.23459" lon="6.03005">
        <ele>2167.43</ele>
        <time>2020-03-13T14:09:37Z</time>
      </trkpt>
      <trkpt lat="45.23436" lon="6.02997">
        <ele>2167.43</ele>
        <time>2020-03-13T14:09:47Z</time>
      </trkpt>
      <trkpt lat="45.23435" lon="6.02996">
        <ele>2167.43</ele>
        <time>2020-03-13T14:09:49Z</time>
      </trkpt>
      <trkpt lat="45.23428" lon="6.02993">
        <ele>2167.91</ele>
        <time>2020-03-13T14:10:06Z</time>
      </trkpt>
      <trkpt lat="45.23429" lon="6.02991">
        <ele>2167.43</ele>
        <time>2020-03-13T14:10:26Z</time>
      </trkpt>
      <trkpt lat="45.23418" lon="6.02995">
        <ele>2165.51</ele>
        <time>2020-03-13T14:10:31Z</time>
      </trkpt>
      <trkpt lat="45.23403" lon="6.03006">
        <ele>2161.18</ele>
        <time>2020-03-13T14:10:37Z</time>
      </trkpt>
      <trkpt lat="45.23394" lon="6.03014">
        <ele>2157.34</ele>
        <time>2020-03-13T14:10:39Z</time>
      </trkpt>
      <trkpt lat="45.23381" lon="6.03021">
        <ele>2153.49</ele>
        <time>2020-03-13T14:10:41Z</time>
      </trkpt>
      <trkpt lat="45.23372" lon="6.03034">
        <ele>2153.01</ele>
        <time>2020-03-13T14:10:43Z</time>
      </trkpt>
      <trkpt lat="45.23353" lon="6.03041">
        <ele>2153.49</ele>
        <time>2020-03-13T14:10:51Z</time>
      </trkpt>
      <trkpt lat="45.23348" lon="6.03039">
        <ele>2152.05</ele>
        <time>2020-03-13T14:10:57Z</time>
      </trkpt>
      <trkpt lat="45.23325" lon="6.03042">
        <ele>2148.68</ele>
        <time>2020-03-13T14:11:11Z</time>
      </trkpt>
      <trkpt lat="45.23306" lon="6.03045">
        <ele>2144.84</ele>
        <time>2020-03-13T14:11:18Z</time>
      </trkpt>
      <trkpt lat="45.23302" lon="6.03046">
        <ele>2143.88</ele>
        <time>2020-03-13T14:11:20Z</time>
      </trkpt>
      <trkpt lat="45.23299" lon="6.03046">
        <ele>2143.4</ele>
        <time>2020-03-13T14:11:32Z</time>
      </trkpt>
      <trkpt lat="45.23299" lon="6.03042">
        <ele>2143.4</ele>
        <time>2020-03-13T14:11:56Z</time>
      </trkpt>
      <trkpt lat="45.23299" lon="6.03044">
        <ele>2142.92</ele>
        <time>2020-03-13T14:12:33Z</time>
      </trkpt>
      <trkpt lat="45.23291" lon="6.03043">
        <ele>2140.03</ele>
        <time>2020-03-13T14:12:35Z</time>
      </trkpt>
      <trkpt lat="45.23286" lon="6.03033">
        <ele>2135.23</ele>
        <time>2020-03-13T14:12:37Z</time>
      </trkpt>
      <trkpt lat="45.23283" lon="6.03024">
        <ele>2128.98</ele>
        <time>2020-03-13T14:12:38Z</time>
      </trkpt>
      <trkpt lat="45.23279" lon="6.03017">
        <ele>2123.21</ele>
        <time>2020-03-13T14:12:39Z</time>
      </trkpt>
      <trkpt lat="45.23274" lon="6.03013">
        <ele>2119.36</ele>
        <time>2020-03-13T14:12:40Z</time>
      </trkpt>
      <trkpt lat="45.23265" lon="6.03014">
        <ele>2116</ele>
        <time>2020-03-13T14:12:41Z</time>
      </trkpt>
      <trkpt lat="45.23256" lon="6.03019">
        <ele>2114.56</ele>
        <time>2020-03-13T14:12:42Z</time>
      </trkpt>
      <trkpt lat="45.23229" lon="6.03029">
        <ele>2109.27</ele>
        <time>2020-03-13T14:12:45Z</time>
      </trkpt>
      <trkpt lat="45.23194" lon="6.03033">
        <ele>2104.94</ele>
        <time>2020-03-13T14:12:49Z</time>
      </trkpt>
      <trkpt lat="45.2315" lon="6.03028">
        <ele>2103.02</ele>
        <time>2020-03-13T14:12:59Z</time>
      </trkpt>
      <trkpt lat="45.23137" lon="6.03025">
        <ele>2103.02</ele>
        <time>2020-03-13T14:13:12Z</time>
      </trkpt>
      <trkpt lat="45.23121" lon="6.03014">
        <ele>2101.1</ele>
        <time>2020-03-13T14:13:28Z</time>
      </trkpt>
      <trkpt lat="45.23086" lon="6.03009">
        <ele>2097.73</ele>
        <time>2020-03-13T14:13:41Z</time>
      </trkpt>
      <trkpt lat="45.23069" lon="6.03013">
        <ele>2095.81</ele>
        <time>2020-03-13T14:13:57Z</time>
      </trkpt>
      <trkpt lat="45.2307" lon="6.03013">
        <ele>2095.33</ele>
        <time>2020-03-13T14:14:33Z</time>
      </trkpt>
      <trkpt lat="45.23071" lon="6.03013">
        <ele>2095.33</ele>
        <time>2020-03-13T14:14:58Z</time>
      </trkpt>
      <trkpt lat="45.23067" lon="6.03012">
        <ele>2094.85</ele>
        <time>2020-03-13T14:15:02Z</time>
      </trkpt>
      <trkpt lat="45.23065" lon="6.03011">
        <ele>2094.37</ele>
        <time>2020-03-13T14:15:03Z</time>
      </trkpt>
      <trkpt lat="45.23062" lon="6.03001">
        <ele>2090.52</ele>
        <time>2020-03-13T14:15:05Z</time>
      </trkpt>
      <trkpt lat="45.23057" lon="6.02993">
        <ele>2085.72</ele>
        <time>2020-03-13T14:15:07Z</time>
      </trkpt>
      <trkpt lat="45.23048" lon="6.02985">
        <ele>2080.43</ele>
        <time>2020-03-13T14:15:10Z</time>
      </trkpt>
      <trkpt lat="45.23046" lon="6.02986">
        <ele>2079.95</ele>
        <time>2020-03-13T14:15:12Z</time>
      </trkpt>
      <trkpt lat="45.23042" lon="6.02988">
        <ele>2079.95</ele>
        <time>2020-03-13T14:15:40Z</time>
      </trkpt>
      <trkpt lat="45.23042" lon="6.02988">
        <ele>2079.95</ele>
        <time>2020-03-13T14:15:48Z</time>
      </trkpt>
      <trkpt lat="45.23035" lon="6.02978">
        <ele>2074.66</ele>
        <time>2020-03-13T14:15:52Z</time>
      </trkpt>
      <trkpt lat="45.23022" lon="6.02968">
        <ele>2066.97</ele>
        <time>2020-03-13T14:15:55Z</time>
      </trkpt>
      <trkpt lat="45.23016" lon="6.02967">
        <ele>2063.61</ele>
        <time>2020-03-13T14:15:56Z</time>
      </trkpt>
      <trkpt lat="45.23006" lon="6.02965">
        <ele>2058.32</ele>
        <time>2020-03-13T14:15:58Z</time>
      </trkpt>
      <trkpt lat="45.23001" lon="6.02964">
        <ele>2055.44</ele>
        <time>2020-03-13T14:15:59Z</time>
      </trkpt>
      <trkpt lat="45.22992" lon="6.02968">
        <ele>2052.07</ele>
        <time>2020-03-13T14:16:01Z</time>
      </trkpt>
      <trkpt lat="45.22986" lon="6.02966">
        <ele>2047.75</ele>
        <time>2020-03-13T14:16:03Z</time>
      </trkpt>
      <trkpt lat="45.22984" lon="6.02965">
        <ele>2048.23</ele>
        <time>2020-03-13T14:16:04Z</time>
      </trkpt>
      <trkpt lat="45.22978" lon="6.02967">
        <ele>2046.3</ele>
        <time>2020-03-13T14:16:29Z</time>
      </trkpt>
      <trkpt lat="45.22967" lon="6.02965">
        <ele>2040.54</ele>
        <time>2020-03-13T14:16:31Z</time>
      </trkpt>
      <trkpt lat="45.2296" lon="6.02948">
        <ele>2036.69</ele>
        <time>2020-03-13T14:16:33Z</time>
      </trkpt>
      <trkpt lat="45.22952" lon="6.02936">
        <ele>2032.84</ele>
        <time>2020-03-13T14:16:35Z</time>
      </trkpt>
      <trkpt lat="45.22947" lon="6.02932">
        <ele>2029.96</ele>
        <time>2020-03-13T14:16:36Z</time>
      </trkpt>
      <trkpt lat="45.22942" lon="6.02928">
        <ele>2026.6</ele>
        <time>2020-03-13T14:16:37Z</time>
      </trkpt>
      <trkpt lat="45.22928" lon="6.02921">
        <ele>2020.83</ele>
        <time>2020-03-13T14:16:39Z</time>
      </trkpt>
      <trkpt lat="45.22912" lon="6.02907">
        <ele>2017.46</ele>
        <time>2020-03-13T14:16:42Z</time>
      </trkpt>
      <trkpt lat="45.229" lon="6.02907">
        <ele>2014.58</ele>
        <time>2020-03-13T14:16:44Z</time>
      </trkpt>
      <trkpt lat="45.22891" lon="6.02902">
        <ele>2014.1</ele>
        <time>2020-03-13T14:16:51Z</time>
      </trkpt>
      <trkpt lat="45.22891" lon="6.02901">
        <ele>2014.1</ele>
        <time>2020-03-13T14:17:08Z</time>
      </trkpt>
      <trkpt lat="45.22892" lon="6.02901">
        <ele>2014.1</ele>
        <time>2020-03-13T14:17:35Z</time>
      </trkpt>
      <trkpt lat="45.22891" lon="6.02901">
        <ele>2014.1</ele>
        <time>2020-03-13T14:18:08Z</time>
      </trkpt>
      <trkpt lat="45.22891" lon="6.029">
        <ele>2013.62</ele>
        <time>2020-03-13T14:18:13Z</time>
      </trkpt>
      <trkpt lat="45.2289" lon="6.02891">
        <ele>2011.7</ele>
        <time>2020-03-13T14:18:18Z</time>
      </trkpt>
      <trkpt lat="45.22891" lon="6.02891">
        <ele>2011.7</ele>
        <time>2020-03-13T14:18:24Z</time>
      </trkpt>
      <trkpt lat="45.2289" lon="6.02887">
        <ele>2011.7</ele>
        <time>2020-03-13T14:18:26Z</time>
      </trkpt>
      <trkpt lat="45.22878" lon="6.02881">
        <ele>2006.41</ele>
        <time>2020-03-13T14:18:29Z</time>
      </trkpt>
      <trkpt lat="45.22865" lon="6.02882">
        <ele>2002.08</ele>
        <time>2020-03-13T14:18:31Z</time>
      </trkpt>
      <trkpt lat="45.22862" lon="6.02876">
        <ele>1998.72</ele>
        <time>2020-03-13T14:18:32Z</time>
      </trkpt>
      <trkpt lat="45.22855" lon="6.02869">
        <ele>1994.87</ele>
        <time>2020-03-13T14:18:34Z</time>
      </trkpt>
      <trkpt lat="45.22852" lon="6.0287">
        <ele>1994.87</ele>
        <time>2020-03-13T14:18:35Z</time>
      </trkpt>
      <trkpt lat="45.22852" lon="6.0287">
        <ele>1994.39</ele>
        <time>2020-03-13T14:18:45Z</time>
      </trkpt>
      <trkpt lat="45.22846" lon="6.02874">
        <ele>1992.47</ele>
        <time>2020-03-13T14:19:03Z</time>
      </trkpt>
      <trkpt lat="45.22838" lon="6.0286">
        <ele>1985.26</ele>
        <time>2020-03-13T14:19:06Z</time>
      </trkpt>
      <trkpt lat="45.22834" lon="6.02857">
        <ele>1981.41</ele>
        <time>2020-03-13T14:19:07Z</time>
      </trkpt>
      <trkpt lat="45.22825" lon="6.02855">
        <ele>1978.05</ele>
        <time>2020-03-13T14:19:09Z</time>
      </trkpt>
      <trkpt lat="45.22823" lon="6.02849">
        <ele>1973.72</ele>
        <time>2020-03-13T14:19:10Z</time>
      </trkpt>
      <trkpt lat="45.22819" lon="6.02843">
        <ele>1968.44</ele>
        <time>2020-03-13T14:19:12Z</time>
      </trkpt>
      <trkpt lat="45.22814" lon="6.02834">
        <ele>1962.67</ele>
        <time>2020-03-13T14:19:15Z</time>
      </trkpt>
      <trkpt lat="45.22813" lon="6.02824">
        <ele>1958.82</ele>
        <time>2020-03-13T14:19:17Z</time>
      </trkpt>
      <trkpt lat="45.22811" lon="6.0282">
        <ele>1954.5</ele>
        <time>2020-03-13T14:19:18Z</time>
      </trkpt>
      <trkpt lat="45.22807" lon="6.02823">
        <ele>1954.02</ele>
        <time>2020-03-13T14:19:20Z</time>
      </trkpt>
      <trkpt lat="45.22799" lon="6.02833">
        <ele>1952.09</ele>
        <time>2020-03-13T14:19:27Z</time>
      </trkpt>
      <trkpt lat="45.22797" lon="6.02834">
        <ele>1952.57</ele>
        <time>2020-03-13T14:19:54Z</time>
      </trkpt>
      <trkpt lat="45.22794" lon="6.0282">
        <ele>1947.29</ele>
        <time>2020-03-13T14:19:57Z</time>
      </trkpt>
      <trkpt lat="45.22795" lon="6.02813">
        <ele>1945.36</ele>
        <time>2020-03-13T14:19:58Z</time>
      </trkpt>
      <trkpt lat="45.22788" lon="6.02801">
        <ele>1939.6</ele>
        <time>2020-03-13T14:20:01Z</time>
      </trkpt>
      <trkpt lat="45.22787" lon="6.0279">
        <ele>1935.75</ele>
        <time>2020-03-13T14:20:03Z</time>
      </trkpt>
      <trkpt lat="45.22784" lon="6.02777">
        <ele>1930.95</ele>
        <time>2020-03-13T14:20:06Z</time>
      </trkpt>
      <trkpt lat="45.22778" lon="6.0277">
        <ele>1925.18</ele>
        <time>2020-03-13T14:20:08Z</time>
      </trkpt>
      <trkpt lat="45.22778" lon="6.02765">
        <ele>1924.7</ele>
        <time>2020-03-13T14:20:09Z</time>
      </trkpt>
      <trkpt lat="45.22774" lon="6.02749">
        <ele>1919.41</ele>
        <time>2020-03-13T14:20:13Z</time>
      </trkpt>
      <trkpt lat="45.22771" lon="6.02742">
        <ele>1916.04</ele>
        <time>2020-03-13T14:20:15Z</time>
      </trkpt>
      <trkpt lat="45.22771" lon="6.02742">
        <ele>1915.56</ele>
        <time>2020-03-13T14:20:16Z</time>
      </trkpt>
      <trkpt lat="45.22775" lon="6.0274">
        <ele>1916.04</ele>
        <time>2020-03-13T14:20:40Z</time>
      </trkpt>
      <trkpt lat="45.22775" lon="6.02735">
        <ele>1915.08</ele>
        <time>2020-03-13T14:20:41Z</time>
      </trkpt>
      <trkpt lat="45.22771" lon="6.02719">
        <ele>1909.32</ele>
        <time>2020-03-13T14:20:44Z</time>
      </trkpt>
      <trkpt lat="45.22767" lon="6.02716">
        <ele>1908.35</ele>
        <time>2020-03-13T14:20:45Z</time>
      </trkpt>
      <trkpt lat="45.22757" lon="6.02693">
        <ele>1902.11</ele>
        <time>2020-03-13T14:20:48Z</time>
      </trkpt>
      <trkpt lat="45.22755" lon="6.0268">
        <ele>1900.66</ele>
        <time>2020-03-13T14:20:51Z</time>
      </trkpt>
      <trkpt lat="45.22752" lon="6.02671">
        <ele>1900.18</ele>
        <time>2020-03-13T14:21:05Z</time>
      </trkpt>
      <trkpt lat="45.22753" lon="6.02649">
        <ele>1894.42</ele>
        <time>2020-03-13T14:21:09Z</time>
      </trkpt>
      <trkpt lat="45.22752" lon="6.02646">
        <ele>1894.42</ele>
        <time>2020-03-13T14:21:10Z</time>
      </trkpt>
      <trkpt lat="45.22751" lon="6.02643">
        <ele>1894.42</ele>
        <time>2020-03-13T14:21:11Z</time>
      </trkpt>
      <trkpt lat="45.2274" lon="6.02633">
        <ele>1893.45</ele>
        <time>2020-03-13T14:21:24Z</time>
      </trkpt>
      <trkpt lat="45.22738" lon="6.02633">
        <ele>1893.45</ele>
        <time>2020-03-13T14:21:36Z</time>
      </trkpt>
      <trkpt lat="45.22735" lon="6.02637">
        <ele>1893.45</ele>
        <time>2020-03-13T14:21:53Z</time>
      </trkpt>
      <trkpt lat="45.22733" lon="6.02642">
        <ele>1892.97</ele>
        <time>2020-03-13T14:22:06Z</time>
      </trkpt>
      <trkpt lat="45.22733" lon="6.02642">
        <ele>1892.97</ele>
        <time>2020-03-13T14:22:11Z</time>
      </trkpt>
      <trkpt lat="45.22732" lon="6.02647">
        <ele>1891.53</ele>
        <time>2020-03-13T14:22:14Z</time>
      </trkpt>
      <trkpt lat="45.22726" lon="6.02645">
        <ele>1891.05</ele>
        <time>2020-03-13T14:22:18Z</time>
      </trkpt>
      <trkpt lat="45.22711" lon="6.02637">
        <ele>1888.17</ele>
        <time>2020-03-13T14:22:23Z</time>
      </trkpt>
      <trkpt lat="45.22696" lon="6.0263">
        <ele>1886.24</ele>
        <time>2020-03-13T14:22:28Z</time>
      </trkpt>
      <trkpt lat="45.22692" lon="6.02627">
        <ele>1884.8</ele>
        <time>2020-03-13T14:22:29Z</time>
      </trkpt>
      <trkpt lat="45.22683" lon="6.02626">
        <ele>1883.36</ele>
        <time>2020-03-13T14:22:31Z</time>
      </trkpt>
      <trkpt lat="45.22675" lon="6.02623">
        <ele>1880</ele>
        <time>2020-03-13T14:22:33Z</time>
      </trkpt>
      <trkpt lat="45.22668" lon="6.02628">
        <ele>1876.63</ele>
        <time>2020-03-13T14:22:35Z</time>
      </trkpt>
      <trkpt lat="45.22658" lon="6.02632">
        <ele>1873.75</ele>
        <time>2020-03-13T14:22:37Z</time>
      </trkpt>
      <trkpt lat="45.22653" lon="6.02631">
        <ele>1873.75</ele>
        <time>2020-03-13T14:22:38Z</time>
      </trkpt>
      <trkpt lat="45.22639" lon="6.02623">
        <ele>1872.79</ele>
        <time>2020-03-13T14:22:48Z</time>
      </trkpt>
      <trkpt lat="45.22612" lon="6.02606">
        <ele>1869.42</ele>
        <time>2020-03-13T14:22:59Z</time>
      </trkpt>
      <trkpt lat="45.22603" lon="6.02602">
        <ele>1869.42</ele>
        <time>2020-03-13T14:23:10Z</time>
      </trkpt>
      <trkpt lat="45.22595" lon="6.02599">
        <ele>1868.46</ele>
        <time>2020-03-13T14:23:17Z</time>
      </trkpt>
      <trkpt lat="45.22592" lon="6.02595">
        <ele>1867.98</ele>
        <time>2020-03-13T14:23:19Z</time>
      </trkpt>
      <trkpt lat="45.22591" lon="6.02591">
        <ele>1867.5</ele>
        <time>2020-03-13T14:23:23Z</time>
      </trkpt>
      <trkpt lat="45.22586" lon="6.02579">
        <ele>1864.61</ele>
        <time>2020-03-13T14:23:28Z</time>
      </trkpt>
      <trkpt lat="45.22584" lon="6.0258">
        <ele>1864.13</ele>
        <time>2020-03-13T14:23:44Z</time>
      </trkpt>
      <trkpt lat="45.22583" lon="6.0258">
        <ele>1864.13</ele>
        <time>2020-03-13T14:24:12Z</time>
      </trkpt>
      <trkpt lat="45.22582" lon="6.02579">
        <ele>1863.65</ele>
        <time>2020-03-13T14:24:42Z</time>
      </trkpt>
      <trkpt lat="45.22582" lon="6.02578">
        <ele>1863.65</ele>
        <time>2020-03-13T14:24:44Z</time>
      </trkpt>
      <trkpt lat="45.22572" lon="6.02567">
        <ele>1860.29</ele>
        <time>2020-03-13T14:24:49Z</time>
      </trkpt>
      <trkpt lat="45.2257" lon="6.0256">
        <ele>1860.29</ele>
        <time>2020-03-13T14:24:50Z</time>
      </trkpt>
      <trkpt lat="45.22572" lon="6.02544">
        <ele>1855.96</ele>
        <time>2020-03-13T14:24:52Z</time>
      </trkpt>
      <trkpt lat="45.22568" lon="6.02534">
        <ele>1851.16</ele>
        <time>2020-03-13T14:24:54Z</time>
      </trkpt>
      <trkpt lat="45.22558" lon="6.02522">
        <ele>1847.31</ele>
        <time>2020-03-13T14:24:56Z</time>
      </trkpt>
      <trkpt lat="45.22553" lon="6.02514">
        <ele>1846.83</ele>
        <time>2020-03-13T14:24:57Z</time>
      </trkpt>
      <trkpt lat="45.22549" lon="6.02507">
        <ele>1845.87</ele>
        <time>2020-03-13T14:24:58Z</time>
      </trkpt>
      <trkpt lat="45.22545" lon="6.02505">
        <ele>1844.91</ele>
        <time>2020-03-13T14:24:59Z</time>
      </trkpt>
      <trkpt lat="45.2254" lon="6.02504">
        <ele>1844.43</ele>
        <time>2020-03-13T14:25:00Z</time>
      </trkpt>
      <trkpt lat="45.22534" lon="6.02502">
        <ele>1843.47</ele>
        <time>2020-03-13T14:25:01Z</time>
      </trkpt>
      <trkpt lat="45.2253" lon="6.02498">
        <ele>1842.98</ele>
        <time>2020-03-13T14:25:02Z</time>
      </trkpt>
      <trkpt lat="45.22528" lon="6.02493">
        <ele>1842.02</ele>
        <time>2020-03-13T14:25:03Z</time>
      </trkpt>
      <trkpt lat="45.22528" lon="6.02488">
        <ele>1840.58</ele>
        <time>2020-03-13T14:25:04Z</time>
      </trkpt>
      <trkpt lat="45.22526" lon="6.02485">
        <ele>1839.62</ele>
        <time>2020-03-13T14:25:05Z</time>
      </trkpt>
      <trkpt lat="45.22524" lon="6.02482">
        <ele>1838.66</ele>
        <time>2020-03-13T14:25:06Z</time>
      </trkpt>
      <trkpt lat="45.22523" lon="6.02479">
        <ele>1838.66</ele>
        <time>2020-03-13T14:25:07Z</time>
      </trkpt>
      <trkpt lat="45.2252" lon="6.02479">
        <ele>1838.66</ele>
        <time>2020-03-13T14:25:19Z</time>
      </trkpt>
      <trkpt lat="45.22514" lon="6.02465">
        <ele>1836.26</ele>
        <time>2020-03-13T14:25:43Z</time>
      </trkpt>
      <trkpt lat="45.22511" lon="6.02461">
        <ele>1835.29</ele>
        <time>2020-03-13T14:25:44Z</time>
      </trkpt>
      <trkpt lat="45.22508" lon="6.02457">
        <ele>1834.81</ele>
        <time>2020-03-13T14:25:45Z</time>
      </trkpt>
      <trkpt lat="45.22505" lon="6.02454">
        <ele>1834.81</ele>
        <time>2020-03-13T14:25:46Z</time>
      </trkpt>
      <trkpt lat="45.22502" lon="6.02453">
        <ele>1834.81</ele>
        <time>2020-03-13T14:25:47Z</time>
      </trkpt>
      <trkpt lat="45.225" lon="6.02452">
        <ele>1834.81</ele>
        <time>2020-03-13T14:25:48Z</time>
      </trkpt>
      <trkpt lat="45.22492" lon="6.02441">
        <ele>1833.37</ele>
        <time>2020-03-13T14:25:52Z</time>
      </trkpt>
      <trkpt lat="45.22487" lon="6.02417">
        <ele>1830.01</ele>
        <time>2020-03-13T14:25:58Z</time>
      </trkpt>
      <trkpt lat="45.22485" lon="6.02415">
        <ele>1830.49</ele>
        <time>2020-03-13T14:26:11Z</time>
      </trkpt>
      <trkpt lat="45.22484" lon="6.02413">
        <ele>1828.56</ele>
        <time>2020-03-13T14:26:16Z</time>
      </trkpt>
      <trkpt lat="45.22481" lon="6.02414">
        <ele>1828.08</ele>
        <time>2020-03-13T14:26:17Z</time>
      </trkpt>
      <trkpt lat="45.22476" lon="6.02414">
        <ele>1823.76</ele>
        <time>2020-03-13T14:26:18Z</time>
      </trkpt>
      <trkpt lat="45.2247" lon="6.0241">
        <ele>1819.43</ele>
        <time>2020-03-13T14:26:19Z</time>
      </trkpt>
      <trkpt lat="45.22467" lon="6.02405">
        <ele>1816.55</ele>
        <time>2020-03-13T14:26:20Z</time>
      </trkpt>
      <trkpt lat="45.22463" lon="6.02397">
        <ele>1814.63</ele>
        <time>2020-03-13T14:26:21Z</time>
      </trkpt>
      <trkpt lat="45.22458" lon="6.02392">
        <ele>1813.66</ele>
        <time>2020-03-13T14:26:22Z</time>
      </trkpt>
      <trkpt lat="45.22453" lon="6.02385">
        <ele>1809.34</ele>
        <time>2020-03-13T14:26:23Z</time>
      </trkpt>
      <trkpt lat="45.22449" lon="6.02378">
        <ele>1808.38</ele>
        <time>2020-03-13T14:26:24Z</time>
      </trkpt>
      <trkpt lat="45.22446" lon="6.02372">
        <ele>1807.9</ele>
        <time>2020-03-13T14:26:25Z</time>
      </trkpt>
      <trkpt lat="45.22442" lon="6.02362">
        <ele>1805.97</ele>
        <time>2020-03-13T14:26:28Z</time>
      </trkpt>
      <trkpt lat="45.22442" lon="6.02364">
        <ele>1805.49</ele>
        <time>2020-03-13T14:26:46Z</time>
      </trkpt>
      <trkpt lat="45.22441" lon="6.02362">
        <ele>1805.49</ele>
        <time>2020-03-13T14:27:08Z</time>
      </trkpt>
      <trkpt lat="45.22435" lon="6.02354">
        <ele>1802.13</ele>
        <time>2020-03-13T14:27:11Z</time>
      </trkpt>
      <trkpt lat="45.22431" lon="6.02346">
        <ele>1798.28</ele>
        <time>2020-03-13T14:27:12Z</time>
      </trkpt>
      <trkpt lat="45.22428" lon="6.0234">
        <ele>1796.36</ele>
        <time>2020-03-13T14:27:13Z</time>
      </trkpt>
      <trkpt lat="45.22426" lon="6.02334">
        <ele>1795.4</ele>
        <time>2020-03-13T14:27:14Z</time>
      </trkpt>
      <trkpt lat="45.22425" lon="6.02328">
        <ele>1794.44</ele>
        <time>2020-03-13T14:27:15Z</time>
      </trkpt>
      <trkpt lat="45.22419" lon="6.02309">
        <ele>1790.11</ele>
        <time>2020-03-13T14:27:19Z</time>
      </trkpt>
      <trkpt lat="45.22418" lon="6.02306">
        <ele>1788.19</ele>
        <time>2020-03-13T14:27:20Z</time>
      </trkpt>
      <trkpt lat="45.22413" lon="6.02308">
        <ele>1784.82</ele>
        <time>2020-03-13T14:27:22Z</time>
      </trkpt>
      <trkpt lat="45.2241" lon="6.02309">
        <ele>1782.9</ele>
        <time>2020-03-13T14:27:23Z</time>
      </trkpt>
      <trkpt lat="45.22406" lon="6.02306">
        <ele>1779.54</ele>
        <time>2020-03-13T14:27:24Z</time>
      </trkpt>
      <trkpt lat="45.22405" lon="6.02302">
        <ele>1779.54</ele>
        <time>2020-03-13T14:27:25Z</time>
      </trkpt>
      <trkpt lat="45.22405" lon="6.02297">
        <ele>1778.58</ele>
        <time>2020-03-13T14:27:26Z</time>
      </trkpt>
      <trkpt lat="45.22405" lon="6.02292">
        <ele>1777.13</ele>
        <time>2020-03-13T14:27:27Z</time>
      </trkpt>
      <trkpt lat="45.22404" lon="6.02287">
        <ele>1776.17</ele>
        <time>2020-03-13T14:27:28Z</time>
      </trkpt>
      <trkpt lat="45.22401" lon="6.02285">
        <ele>1775.69</ele>
        <time>2020-03-13T14:27:29Z</time>
      </trkpt>
      <trkpt lat="45.224" lon="6.02286">
        <ele>1773.77</ele>
        <time>2020-03-13T14:27:30Z</time>
      </trkpt>
      <trkpt lat="45.224" lon="6.02288">
        <ele>1773.77</ele>
        <time>2020-03-13T14:27:31Z</time>
      </trkpt>
      <trkpt lat="45.22398" lon="6.02291">
        <ele>1774.25</ele>
        <time>2020-03-13T14:27:55Z</time>
      </trkpt>
      <trkpt lat="45.22399" lon="6.02293">
        <ele>1774.25</ele>
        <time>2020-03-13T14:28:26Z</time>
      </trkpt>
      <trkpt lat="45.22399" lon="6.02293">
        <ele>1774.25</ele>
        <time>2020-03-13T14:28:30Z</time>
      </trkpt>
      <trkpt lat="45.22396" lon="6.02294">
        <ele>1773.29</ele>
        <time>2020-03-13T14:28:31Z</time>
      </trkpt>
      <trkpt lat="45.22389" lon="6.02295">
        <ele>1769.92</ele>
        <time>2020-03-13T14:28:33Z</time>
      </trkpt>
      <trkpt lat="45.22385" lon="6.0229">
        <ele>1767.52</ele>
        <time>2020-03-13T14:28:34Z</time>
      </trkpt>
      <trkpt lat="45.22383" lon="6.02281">
        <ele>1765.6</ele>
        <time>2020-03-13T14:28:35Z</time>
      </trkpt>
      <trkpt lat="45.22383" lon="6.02275">
        <ele>1764.16</ele>
        <time>2020-03-13T14:28:36Z</time>
      </trkpt>
      <trkpt lat="45.22384" lon="6.02268">
        <ele>1764.16</ele>
        <time>2020-03-13T14:28:37Z</time>
      </trkpt>
      <trkpt lat="45.22384" lon="6.0226">
        <ele>1763.2</ele>
        <time>2020-03-13T14:28:38Z</time>
      </trkpt>
      <trkpt lat="45.22385" lon="6.02245">
        <ele>1759.35</ele>
        <time>2020-03-13T14:28:40Z</time>
      </trkpt>
      <trkpt lat="45.22384" lon="6.02232">
        <ele>1757.43</ele>
        <time>2020-03-13T14:28:42Z</time>
      </trkpt>
      <trkpt lat="45.22384" lon="6.02225">
        <ele>1756.47</ele>
        <time>2020-03-13T14:28:43Z</time>
      </trkpt>
      <trkpt lat="45.22384" lon="6.02219">
        <ele>1755.5</ele>
        <time>2020-03-13T14:28:44Z</time>
      </trkpt>
      <trkpt lat="45.22384" lon="6.02213">
        <ele>1755.02</ele>
        <time>2020-03-13T14:28:45Z</time>
      </trkpt>
      <trkpt lat="45.22383" lon="6.02197">
        <ele>1753.1</ele>
        <time>2020-03-13T14:28:48Z</time>
      </trkpt>
      <trkpt lat="45.22379" lon="6.02179">
        <ele>1750.7</ele>
        <time>2020-03-13T14:28:55Z</time>
      </trkpt>
      <trkpt lat="45.22374" lon="6.02178">
        <ele>1745.89</ele>
        <time>2020-03-13T14:28:57Z</time>
      </trkpt>
      <trkpt lat="45.22364" lon="6.02183">
        <ele>1742.53</ele>
        <time>2020-03-13T14:29:00Z</time>
      </trkpt>
      <trkpt lat="45.2236" lon="6.02182">
        <ele>1738.68</ele>
        <time>2020-03-13T14:29:01Z</time>
      </trkpt>
      <trkpt lat="45.22352" lon="6.02174">
        <ele>1734.36</ele>
        <time>2020-03-13T14:29:03Z</time>
      </trkpt>
      <trkpt lat="45.22348" lon="6.02174">
        <ele>1732.43</ele>
        <time>2020-03-13T14:29:04Z</time>
      </trkpt>
      <trkpt lat="45.22342" lon="6.02177">
        <ele>1731.47</ele>
        <time>2020-03-13T14:29:06Z</time>
      </trkpt>
      <trkpt lat="45.22334" lon="6.02179">
        <ele>1732.43</ele>
        <time>2020-03-13T14:29:17Z</time>
      </trkpt>
      <trkpt lat="45.2233" lon="6.02169">
        <ele>1732.43</ele>
        <time>2020-03-13T14:29:34Z</time>
      </trkpt>
      <trkpt lat="45.22325" lon="6.02161">
        <ele>1731.95</ele>
        <time>2020-03-13T14:29:49Z</time>
      </trkpt>
      <trkpt lat="45.2232" lon="6.02154">
        <ele>1731.95</ele>
        <time>2020-03-13T14:30:02Z</time>
      </trkpt>
      <trkpt lat="45.2231" lon="6.02143">
        <ele>1730.99</ele>
        <time>2020-03-13T14:30:20Z</time>
      </trkpt>
      <trkpt lat="45.22304" lon="6.02134">
        <ele>1730.99</ele>
        <time>2020-03-13T14:30:34Z</time>
      </trkpt>
      <trkpt lat="45.22304" lon="6.02128">
        <ele>1730.51</ele>
        <time>2020-03-13T14:30:54Z</time>
      </trkpt>
      <trkpt lat="45.22296" lon="6.02113">
        <ele>1728.11</ele>
        <time>2020-03-13T14:31:01Z</time>
      </trkpt>
      <trkpt lat="45.22289" lon="6.02093">
        <ele>1724.26</ele>
        <time>2020-03-13T14:31:05Z</time>
      </trkpt>
      <trkpt lat="45.22287" lon="6.02088">
        <ele>1723.78</ele>
        <time>2020-03-13T14:31:06Z</time>
      </trkpt>
      <trkpt lat="45.22279" lon="6.02071">
        <ele>1720.42</ele>
        <time>2020-03-13T14:31:09Z</time>
      </trkpt>
      <trkpt lat="45.22273" lon="6.02057">
        <ele>1716.57</ele>
        <time>2020-03-13T14:31:11Z</time>
      </trkpt>
      <trkpt lat="45.22271" lon="6.0205">
        <ele>1716.09</ele>
        <time>2020-03-13T14:31:12Z</time>
      </trkpt>
      <trkpt lat="45.22267" lon="6.02013">
        <ele>1713.21</ele>
        <time>2020-03-13T14:31:21Z</time>
      </trkpt>
      <trkpt lat="45.22267" lon="6.0201">
        <ele>1713.21</ele>
        <time>2020-03-13T14:31:22Z</time>
      </trkpt>
      <trkpt lat="45.22269" lon="6.02004">
        <ele>1712.73</ele>
        <time>2020-03-13T14:31:37Z</time>
      </trkpt>
      <trkpt lat="45.22269" lon="6.02">
        <ele>1712.25</ele>
        <time>2020-03-13T14:31:42Z</time>
      </trkpt>
      <trkpt lat="45.22268" lon="6.01985">
        <ele>1708.4</ele>
        <time>2020-03-13T14:31:47Z</time>
      </trkpt>
      <trkpt lat="45.22267" lon="6.01979">
        <ele>1706.96</ele>
        <time>2020-03-13T14:31:48Z</time>
      </trkpt>
      <trkpt lat="45.22267" lon="6.01971">
        <ele>1705.04</ele>
        <time>2020-03-13T14:31:49Z</time>
      </trkpt>
      <trkpt lat="45.22267" lon="6.01967">
        <ele>1703.59</ele>
        <time>2020-03-13T14:31:50Z</time>
      </trkpt>
      <trkpt lat="45.22266" lon="6.01962">
        <ele>1703.59</ele>
        <time>2020-03-13T14:31:51Z</time>
      </trkpt>
      <trkpt lat="45.22266" lon="6.01959">
        <ele>1702.63</ele>
        <time>2020-03-13T14:31:52Z</time>
      </trkpt>
      <trkpt lat="45.22265" lon="6.01956">
        <ele>1702.15</ele>
        <time>2020-03-13T14:31:53Z</time>
      </trkpt>
      <trkpt lat="45.22265" lon="6.01952">
        <ele>1700.71</ele>
        <time>2020-03-13T14:31:54Z</time>
      </trkpt>
      <trkpt lat="45.22264" lon="6.01949">
        <ele>1700.23</ele>
        <time>2020-03-13T14:31:55Z</time>
      </trkpt>
      <trkpt lat="45.22262" lon="6.01943">
        <ele>1700.23</ele>
        <time>2020-03-13T14:31:57Z</time>
      </trkpt>
      <trkpt lat="45.22257" lon="6.01947">
        <ele>1699.27</ele>
        <time>2020-03-13T14:32:07Z</time>
      </trkpt>
      <trkpt lat="45.22257" lon="6.01951">
        <ele>1699.27</ele>
        <time>2020-03-13T14:32:24Z</time>
      </trkpt>
      <trkpt lat="45.22257" lon="6.01949">
        <ele>1699.27</ele>
        <time>2020-03-13T14:32:26Z</time>
      </trkpt>
      <trkpt lat="45.22255" lon="6.01946">
        <ele>1699.27</ele>
        <time>2020-03-13T14:32:29Z</time>
      </trkpt>
      <trkpt lat="45.22254" lon="6.01921">
        <ele>1695.42</ele>
        <time>2020-03-13T14:32:37Z</time>
      </trkpt>
      <trkpt lat="45.22254" lon="6.01878">
        <ele>1692.06</ele>
        <time>2020-03-13T14:32:46Z</time>
      </trkpt>
      <trkpt lat="45.22247" lon="6.01842">
        <ele>1688.21</ele>
        <time>2020-03-13T14:32:56Z</time>
      </trkpt>
      <trkpt lat="45.22245" lon="6.01814">
        <ele>1685.33</ele>
        <time>2020-03-13T14:33:01Z</time>
      </trkpt>
      <trkpt lat="45.22247" lon="6.01792">
        <ele>1684.37</ele>
        <time>2020-03-13T14:33:06Z</time>
      </trkpt>
      <trkpt lat="45.22249" lon="6.01785">
        <ele>1683.89</ele>
        <time>2020-03-13T14:33:16Z</time>
      </trkpt>
      <trkpt lat="45.22254" lon="6.01776">
        <ele>1679.56</ele>
        <time>2020-03-13T14:33:19Z</time>
      </trkpt>
      <trkpt lat="45.2226" lon="6.0177">
        <ele>1675.72</ele>
        <time>2020-03-13T14:33:20Z</time>
      </trkpt>
      <trkpt lat="45.22264" lon="6.01764">
        <ele>1670.43</ele>
        <time>2020-03-13T14:33:21Z</time>
      </trkpt>
      <trkpt lat="45.22267" lon="6.01756">
        <ele>1670.43</ele>
        <time>2020-03-13T14:33:22Z</time>
      </trkpt>
      <trkpt lat="45.22267" lon="6.01751">
        <ele>1672.35</ele>
        <time>2020-03-13T14:33:23Z</time>
      </trkpt>
      <trkpt lat="45.22267" lon="6.01746">
        <ele>1672.35</ele>
        <time>2020-03-13T14:33:24Z</time>
      </trkpt>
      <trkpt lat="45.22266" lon="6.01731">
        <ele>1672.35</ele>
        <time>2020-03-13T14:33:35Z</time>
      </trkpt>
      <trkpt lat="45.22265" lon="6.01718">
        <ele>1672.35</ele>
        <time>2020-03-13T14:33:53Z</time>
      </trkpt>
      <trkpt lat="45.22265" lon="6.01716">
        <ele>1672.35</ele>
        <time>2020-03-13T14:33:54Z</time>
      </trkpt>
      <trkpt lat="45.22265" lon="6.01714">
        <ele>1672.35</ele>
        <time>2020-03-13T14:33:55Z</time>
      </trkpt>
      <trkpt lat="45.22264" lon="6.01711">
        <ele>1672.35</ele>
        <time>2020-03-13T14:33:56Z</time>
      </trkpt>
      <trkpt lat="45.22264" lon="6.01709">
        <ele>1672.35</ele>
        <time>2020-03-13T14:33:57Z</time>
      </trkpt>
      <trkpt lat="45.22264" lon="6.01707">
        <ele>1672.35</ele>
        <time>2020-03-13T14:33:58Z</time>
      </trkpt>
      <trkpt lat="45.22264" lon="6.01704">
        <ele>1672.35</ele>
        <time>2020-03-13T14:33:59Z</time>
      </trkpt>
      <trkpt lat="45.22264" lon="6.01701">
        <ele>1672.35</ele>
        <time>2020-03-13T14:34:00Z</time>
      </trkpt>
      <trkpt lat="45.22264" lon="6.01698">
        <ele>1672.35</ele>
        <time>2020-03-13T14:34:01Z</time>
      </trkpt>
      <trkpt lat="45.22264" lon="6.01695">
        <ele>1672.35</ele>
        <time>2020-03-13T14:34:02Z</time>
      </trkpt>
      <trkpt lat="45.22264" lon="6.01692">
        <ele>1672.35</ele>
        <time>2020-03-13T14:34:03Z</time>
      </trkpt>
      <trkpt lat="45.22263" lon="6.01691">
        <ele>1672.35</ele>
        <time>2020-03-13T14:34:04Z</time>
      </trkpt>
      <trkpt lat="45.22263" lon="6.01689">
        <ele>1672.83</ele>
        <time>2020-03-13T14:34:05Z</time>
      </trkpt>
      <trkpt lat="45.22264" lon="6.01687">
        <ele>1672.83</ele>
        <time>2020-03-13T14:34:06Z</time>
      </trkpt>
      <trkpt lat="45.22264" lon="6.01685">
        <ele>1672.83</ele>
        <time>2020-03-13T14:34:07Z</time>
      </trkpt>
      <trkpt lat="45.22264" lon="6.01683">
        <ele>1672.83</ele>
        <time>2020-03-13T14:34:08Z</time>
      </trkpt>
      <trkpt lat="45.22264" lon="6.01681">
        <ele>1672.83</ele>
        <time>2020-03-13T14:34:09Z</time>
      </trkpt>
      <trkpt lat="45.22263" lon="6.01669">
        <ele>1673.31</ele>
        <time>2020-03-13T14:34:21Z</time>
      </trkpt>
      <trkpt lat="45.22263" lon="6.01667">
        <ele>1673.31</ele>
        <time>2020-03-13T14:34:22Z</time>
      </trkpt>
      <trkpt lat="45.22261" lon="6.01656">
        <ele>1673.79</ele>
        <time>2020-03-13T14:34:31Z</time>
      </trkpt>
      <trkpt lat="45.22261" lon="6.0165">
        <ele>1674.27</ele>
        <time>2020-03-13T14:34:35Z</time>
      </trkpt>
      <trkpt lat="45.22261" lon="6.01647">
        <ele>1674.27</ele>
        <time>2020-03-13T14:34:36Z</time>
      </trkpt>
      <trkpt lat="45.2226" lon="6.01632">
        <ele>1675.23</ele>
        <time>2020-03-13T14:34:51Z</time>
      </trkpt>
      <trkpt lat="45.2226" lon="6.01615">
        <ele>1675.72</ele>
        <time>2020-03-13T14:35:09Z</time>
      </trkpt>
      <trkpt lat="45.22256" lon="6.01597">
        <ele>1676.2</ele>
        <time>2020-03-13T14:35:27Z</time>
      </trkpt>
      <trkpt lat="45.22255" lon="6.01587">
        <ele>1676.2</ele>
        <time>2020-03-13T14:35:34Z</time>
      </trkpt>
      <trkpt lat="45.22254" lon="6.01586">
        <ele>1676.2</ele>
        <time>2020-03-13T14:35:35Z</time>
      </trkpt>
      <trkpt lat="45.22249" lon="6.01567">
        <ele>1674.75</ele>
        <time>2020-03-13T14:35:49Z</time>
      </trkpt>
      <trkpt lat="45.22245" lon="6.01554">
        <ele>1674.75</ele>
        <time>2020-03-13T14:35:59Z</time>
      </trkpt>
      <trkpt lat="45.22245" lon="6.01551">
        <ele>1674.75</ele>
        <time>2020-03-13T14:36:01Z</time>
      </trkpt>
      <trkpt lat="45.22243" lon="6.01546">
        <ele>1674.75</ele>
        <time>2020-03-13T14:36:08Z</time>
      </trkpt>
      <trkpt lat="45.22243" lon="6.01544">
        <ele>1674.75</ele>
        <time>2020-03-13T14:36:09Z</time>
      </trkpt>
      <trkpt lat="45.22241" lon="6.01538">
        <ele>1674.75</ele>
        <time>2020-03-13T14:36:16Z</time>
      </trkpt>
      <trkpt lat="45.22237" lon="6.01532">
        <ele>1674.27</ele>
        <time>2020-03-13T14:36:31Z</time>
      </trkpt>
      <trkpt lat="45.22236" lon="6.01518">
        <ele>1674.27</ele>
        <time>2020-03-13T14:36:47Z</time>
      </trkpt>
      <trkpt lat="45.22236" lon="6.01508">
        <ele>1673.79</ele>
        <time>2020-03-13T14:36:54Z</time>
      </trkpt>
      <trkpt lat="45.22235" lon="6.01506">
        <ele>1673.79</ele>
        <time>2020-03-13T14:36:55Z</time>
      </trkpt>
      <trkpt lat="45.22235" lon="6.01495">
        <ele>1673.31</ele>
        <time>2020-03-13T14:37:02Z</time>
      </trkpt>
      <trkpt lat="45.22235" lon="6.01492">
        <ele>1672.83</ele>
        <time>2020-03-13T14:37:03Z</time>
      </trkpt>
      <trkpt lat="45.22235" lon="6.0149">
        <ele>1672.83</ele>
        <time>2020-03-13T14:37:04Z</time>
      </trkpt>
      <trkpt lat="45.22234" lon="6.01488">
        <ele>1672.83</ele>
        <time>2020-03-13T14:37:05Z</time>
      </trkpt>
      <trkpt lat="45.22234" lon="6.01485">
        <ele>1672.35</ele>
        <time>2020-03-13T14:37:06Z</time>
      </trkpt>
      <trkpt lat="45.22227" lon="6.01449">
        <ele>1670.91</ele>
        <time>2020-03-13T14:37:23Z</time>
      </trkpt>
      <trkpt lat="45.22228" lon="6.01431">
        <ele>1670.43</ele>
        <time>2020-03-13T14:37:45Z</time>
      </trkpt>
      <trkpt lat="45.22233" lon="6.01429">
        <ele>1669.95</ele>
        <time>2020-03-13T14:38:18Z</time>
      </trkpt>
      <trkpt lat="45.22232" lon="6.01425">
        <ele>1669.95</ele>
        <time>2020-03-13T14:38:53Z</time>
      </trkpt>
      <trkpt lat="45.22231" lon="6.01423">
        <ele>1669.95</ele>
        <time>2020-03-13T14:38:56Z</time>
      </trkpt>
      <trkpt lat="45.22231" lon="6.0142">
        <ele>1669.95</ele>
        <time>2020-03-13T14:38:57Z</time>
      </trkpt>
      <trkpt lat="45.22232" lon="6.01416">
        <ele>1669.47</ele>
        <time>2020-03-13T14:38:58Z</time>
      </trkpt>
      <trkpt lat="45.22234" lon="6.01403">
        <ele>1665.14</ele>
        <time>2020-03-13T14:39:00Z</time>
      </trkpt>
      <trkpt lat="45.22236" lon="6.01395">
        <ele>1663.22</ele>
        <time>2020-03-13T14:39:01Z</time>
      </trkpt>
      <trkpt lat="45.2224" lon="6.01387">
        <ele>1661.78</ele>
        <time>2020-03-13T14:39:02Z</time>
      </trkpt>
      <trkpt lat="45.22249" lon="6.01376">
        <ele>1660.81</ele>
        <time>2020-03-13T14:39:04Z</time>
      </trkpt>
      <trkpt lat="45.22254" lon="6.01372">
        <ele>1658.89</ele>
        <time>2020-03-13T14:39:05Z</time>
      </trkpt>
      <trkpt lat="45.22259" lon="6.01368">
        <ele>1657.93</ele>
        <time>2020-03-13T14:39:06Z</time>
      </trkpt>
      <trkpt lat="45.22265" lon="6.01364">
        <ele>1656.01</ele>
        <time>2020-03-13T14:39:07Z</time>
      </trkpt>
      <trkpt lat="45.22269" lon="6.0136">
        <ele>1654.57</ele>
        <time>2020-03-13T14:39:08Z</time>
      </trkpt>
      <trkpt lat="45.22273" lon="6.01358">
        <ele>1656.49</ele>
        <time>2020-03-13T14:39:09Z</time>
      </trkpt>
      <trkpt lat="45.22279" lon="6.01355">
        <ele>1657.45</ele>
        <time>2020-03-13T14:39:11Z</time>
      </trkpt>
      <trkpt lat="45.22277" lon="6.01356">
        <ele>1657.93</ele>
        <time>2020-03-13T14:39:26Z</time>
      </trkpt>
      <trkpt lat="45.22275" lon="6.01353">
        <ele>1657.93</ele>
        <time>2020-03-13T14:39:36Z</time>
      </trkpt>
      <trkpt lat="45.22275" lon="6.0135">
        <ele>1655.53</ele>
        <time>2020-03-13T14:39:37Z</time>
      </trkpt>
      <trkpt lat="45.22275" lon="6.01346">
        <ele>1655.05</ele>
        <time>2020-03-13T14:39:38Z</time>
      </trkpt>
      <trkpt lat="45.22275" lon="6.01341">
        <ele>1654.09</ele>
        <time>2020-03-13T14:39:39Z</time>
      </trkpt>
      <trkpt lat="45.22276" lon="6.01335">
        <ele>1652.16</ele>
        <time>2020-03-13T14:39:40Z</time>
      </trkpt>
      <trkpt lat="45.22278" lon="6.01329">
        <ele>1651.2</ele>
        <time>2020-03-13T14:39:41Z</time>
      </trkpt>
      <trkpt lat="45.2228" lon="6.01321">
        <ele>1650.24</ele>
        <time>2020-03-13T14:39:42Z</time>
      </trkpt>
      <trkpt lat="45.22282" lon="6.01313">
        <ele>1648.32</ele>
        <time>2020-03-13T14:39:43Z</time>
      </trkpt>
      <trkpt lat="45.22282" lon="6.01306">
        <ele>1645.91</ele>
        <time>2020-03-13T14:39:44Z</time>
      </trkpt>
      <trkpt lat="45.22282" lon="6.01301">
        <ele>1645.91</ele>
        <time>2020-03-13T14:39:45Z</time>
      </trkpt>
      <trkpt lat="45.22285" lon="6.01294">
        <ele>1643.03</ele>
        <time>2020-03-13T14:39:48Z</time>
      </trkpt>
      <trkpt lat="45.22287" lon="6.01292">
        <ele>1639.19</ele>
        <time>2020-03-13T14:39:51Z</time>
      </trkpt>
      <trkpt lat="45.22251" lon="6.01307">
        <ele>1641.59</ele>
        <time>2020-03-13T14:40:08Z</time>
      </trkpt>
      <trkpt lat="45.22247" lon="6.01307">
        <ele>1641.59</ele>
        <time>2020-03-13T14:40:15Z</time>
      </trkpt>
      <trkpt lat="45.22246" lon="6.01304">
        <ele>1639.67</ele>
        <time>2020-03-13T14:40:16Z</time>
      </trkpt>
      <trkpt lat="45.22244" lon="6.013">
        <ele>1637.74</ele>
        <time>2020-03-13T14:40:17Z</time>
      </trkpt>
      <trkpt lat="45.22241" lon="6.01296">
        <ele>1637.26</ele>
        <time>2020-03-13T14:40:18Z</time>
      </trkpt>
      <trkpt lat="45.22238" lon="6.0129">
        <ele>1635.34</ele>
        <time>2020-03-13T14:40:19Z</time>
      </trkpt>
      <trkpt lat="45.22235" lon="6.01282">
        <ele>1632.94</ele>
        <time>2020-03-13T14:40:20Z</time>
      </trkpt>
      <trkpt lat="45.22235" lon="6.01275">
        <ele>1631.49</ele>
        <time>2020-03-13T14:40:21Z</time>
      </trkpt>
      <trkpt lat="45.22236" lon="6.01267">
        <ele>1629.09</ele>
        <time>2020-03-13T14:40:22Z</time>
      </trkpt>
      <trkpt lat="45.22237" lon="6.01259">
        <ele>1627.17</ele>
        <time>2020-03-13T14:40:23Z</time>
      </trkpt>
      <trkpt lat="45.22239" lon="6.01251">
        <ele>1625.25</ele>
        <time>2020-03-13T14:40:24Z</time>
      </trkpt>
      <trkpt lat="45.2224" lon="6.01244">
        <ele>1624.28</ele>
        <time>2020-03-13T14:40:25Z</time>
      </trkpt>
      <trkpt lat="45.22243" lon="6.01237">
        <ele>1622.36</ele>
        <time>2020-03-13T14:40:26Z</time>
      </trkpt>
      <trkpt lat="45.22245" lon="6.0123">
        <ele>1620.44</ele>
        <time>2020-03-13T14:40:27Z</time>
      </trkpt>
      <trkpt lat="45.22247" lon="6.01224">
        <ele>1619.48</ele>
        <time>2020-03-13T14:40:28Z</time>
      </trkpt>
      <trkpt lat="45.22248" lon="6.01218">
        <ele>1618.52</ele>
        <time>2020-03-13T14:40:29Z</time>
      </trkpt>
      <trkpt lat="45.22248" lon="6.01212">
        <ele>1616.11</ele>
        <time>2020-03-13T14:40:30Z</time>
      </trkpt>
      <trkpt lat="45.22248" lon="6.01206">
        <ele>1614.19</ele>
        <time>2020-03-13T14:40:31Z</time>
      </trkpt>
      <trkpt lat="45.22248" lon="6.01198">
        <ele>1612.27</ele>
        <time>2020-03-13T14:40:32Z</time>
      </trkpt>
      <trkpt lat="45.22249" lon="6.01189">
        <ele>1609.86</ele>
        <time>2020-03-13T14:40:33Z</time>
      </trkpt>
      <trkpt lat="45.2225" lon="6.01181">
        <ele>1607.94</ele>
        <time>2020-03-13T14:40:34Z</time>
      </trkpt>
      <trkpt lat="45.2225" lon="6.01173">
        <ele>1607.94</ele>
        <time>2020-03-13T14:40:35Z</time>
      </trkpt>
      <trkpt lat="45.22249" lon="6.01167">
        <ele>1607.46</ele>
        <time>2020-03-13T14:40:36Z</time>
      </trkpt>
      <trkpt lat="45.22246" lon="6.0116">
        <ele>1607.46</ele>
        <time>2020-03-13T14:40:37Z</time>
      </trkpt>
      <trkpt lat="45.22244" lon="6.01153">
        <ele>1606.5</ele>
        <time>2020-03-13T14:40:38Z</time>
      </trkpt>
      <trkpt lat="45.22242" lon="6.01147">
        <ele>1605.54</ele>
        <time>2020-03-13T14:40:39Z</time>
      </trkpt>
      <trkpt lat="45.22242" lon="6.0114">
        <ele>1605.06</ele>
        <time>2020-03-13T14:40:40Z</time>
      </trkpt>
      <trkpt lat="45.22241" lon="6.01134">
        <ele>1603.62</ele>
        <time>2020-03-13T14:40:41Z</time>
      </trkpt>
      <trkpt lat="45.2224" lon="6.0112">
        <ele>1602.66</ele>
        <time>2020-03-13T14:40:43Z</time>
      </trkpt>
      <trkpt lat="45.22241" lon="6.01114">
        <ele>1603.14</ele>
        <time>2020-03-13T14:40:52Z</time>
      </trkpt>
      <trkpt lat="45.2224" lon="6.01111">
        <ele>1602.66</ele>
        <time>2020-03-13T14:41:22Z</time>
      </trkpt>
      <trkpt lat="45.2224" lon="6.01109">
        <ele>1603.14</ele>
        <time>2020-03-13T14:41:25Z</time>
      </trkpt>
      <trkpt lat="45.22239" lon="6.01105">
        <ele>1602.66</ele>
        <time>2020-03-13T14:41:26Z</time>
      </trkpt>
      <trkpt lat="45.22238" lon="6.011">
        <ele>1599.77</ele>
        <time>2020-03-13T14:41:27Z</time>
      </trkpt>
      <trkpt lat="45.22236" lon="6.01087">
        <ele>1597.85</ele>
        <time>2020-03-13T14:41:29Z</time>
      </trkpt>
      <trkpt lat="45.22235" lon="6.0108">
        <ele>1597.37</ele>
        <time>2020-03-13T14:41:30Z</time>
      </trkpt>
      <trkpt lat="45.22235" lon="6.01073">
        <ele>1595.45</ele>
        <time>2020-03-13T14:41:31Z</time>
      </trkpt>
      <trkpt lat="45.22236" lon="6.01067">
        <ele>1594.96</ele>
        <time>2020-03-13T14:41:32Z</time>
      </trkpt>
      <trkpt lat="45.22237" lon="6.01061">
        <ele>1594</ele>
        <time>2020-03-13T14:41:33Z</time>
      </trkpt>
      <trkpt lat="45.22238" lon="6.01054">
        <ele>1592.56</ele>
        <time>2020-03-13T14:41:34Z</time>
      </trkpt>
      <trkpt lat="45.22239" lon="6.01046">
        <ele>1591.12</ele>
        <time>2020-03-13T14:41:35Z</time>
      </trkpt>
      <trkpt lat="45.2224" lon="6.01038">
        <ele>1589.68</ele>
        <time>2020-03-13T14:41:36Z</time>
      </trkpt>
      <trkpt lat="45.2224" lon="6.0103">
        <ele>1588.72</ele>
        <time>2020-03-13T14:41:37Z</time>
      </trkpt>
      <trkpt lat="45.2224" lon="6.01022">
        <ele>1587.75</ele>
        <time>2020-03-13T14:41:38Z</time>
      </trkpt>
      <trkpt lat="45.22238" lon="6.01014">
        <ele>1585.83</ele>
        <time>2020-03-13T14:41:39Z</time>
      </trkpt>
      <trkpt lat="45.22235" lon="6.01008">
        <ele>1584.39</ele>
        <time>2020-03-13T14:41:40Z</time>
      </trkpt>
      <trkpt lat="45.22232" lon="6.01002">
        <ele>1584.39</ele>
        <time>2020-03-13T14:41:41Z</time>
      </trkpt>
      <trkpt lat="45.22231" lon="6.00997">
        <ele>1583.43</ele>
        <time>2020-03-13T14:41:42Z</time>
      </trkpt>
      <trkpt lat="45.22231" lon="6.00992">
        <ele>1583.43</ele>
        <time>2020-03-13T14:41:43Z</time>
      </trkpt>
      <trkpt lat="45.22232" lon="6.00986">
        <ele>1581.99</ele>
        <time>2020-03-13T14:41:44Z</time>
      </trkpt>
      <trkpt lat="45.22232" lon="6.0098">
        <ele>1580.54</ele>
        <time>2020-03-13T14:41:45Z</time>
      </trkpt>
      <trkpt lat="45.22233" lon="6.00973">
        <ele>1579.1</ele>
        <time>2020-03-13T14:41:46Z</time>
      </trkpt>
      <trkpt lat="45.22234" lon="6.00967">
        <ele>1577.66</ele>
        <time>2020-03-13T14:41:47Z</time>
      </trkpt>
      <trkpt lat="45.22234" lon="6.00961">
        <ele>1575.74</ele>
        <time>2020-03-13T14:41:48Z</time>
      </trkpt>
      <trkpt lat="45.22234" lon="6.00955">
        <ele>1574.78</ele>
        <time>2020-03-13T14:41:49Z</time>
      </trkpt>
      <trkpt lat="45.22233" lon="6.00949">
        <ele>1572.85</ele>
        <time>2020-03-13T14:41:50Z</time>
      </trkpt>
      <trkpt lat="45.22232" lon="6.00942">
        <ele>1571.41</ele>
        <time>2020-03-13T14:41:51Z</time>
      </trkpt>
      <trkpt lat="45.2223" lon="6.00932">
        <ele>1569.49</ele>
        <time>2020-03-13T14:41:53Z</time>
      </trkpt>
      <trkpt lat="45.2223" lon="6.00931">
        <ele>1569.49</ele>
        <time>2020-03-13T14:42:05Z</time>
      </trkpt>
      <trkpt lat="45.22234" lon="6.00933">
        <ele>1567.09</ele>
        <time>2020-03-13T14:42:28Z</time>
      </trkpt>
      <trkpt lat="45.22237" lon="6.00931">
        <ele>1564.68</ele>
        <time>2020-03-13T14:42:29Z</time>
      </trkpt>
      <trkpt lat="45.22241" lon="6.00928">
        <ele>1563.72</ele>
        <time>2020-03-13T14:42:30Z</time>
      </trkpt>
      <trkpt lat="45.22244" lon="6.00918">
        <ele>1562.28</ele>
        <time>2020-03-13T14:42:32Z</time>
      </trkpt>
      <trkpt lat="45.2224" lon="6.00903">
        <ele>1557.47</ele>
        <time>2020-03-13T14:42:34Z</time>
      </trkpt>
      <trkpt lat="45.22239" lon="6.00881">
        <ele>1552.19</ele>
        <time>2020-03-13T14:42:36Z</time>
      </trkpt>
      <trkpt lat="45.22236" lon="6.00873">
        <ele>1551.71</ele>
        <time>2020-03-13T14:42:37Z</time>
      </trkpt>
      <trkpt lat="45.22229" lon="6.00857">
        <ele>1547.38</ele>
        <time>2020-03-13T14:42:39Z</time>
      </trkpt>
      <trkpt lat="45.22226" lon="6.00849">
        <ele>1546.42</ele>
        <time>2020-03-13T14:42:40Z</time>
      </trkpt>
      <trkpt lat="45.22223" lon="6.00842">
        <ele>1544.01</ele>
        <time>2020-03-13T14:42:41Z</time>
      </trkpt>
      <trkpt lat="45.22215" lon="6.00828">
        <ele>1541.13</ele>
        <time>2020-03-13T14:42:43Z</time>
      </trkpt>
      <trkpt lat="45.22211" lon="6.00821">
        <ele>1541.13</ele>
        <time>2020-03-13T14:42:44Z</time>
      </trkpt>
      <trkpt lat="45.22207" lon="6.00815">
        <ele>1538.25</ele>
        <time>2020-03-13T14:42:45Z</time>
      </trkpt>
      <trkpt lat="45.22204" lon="6.00808">
        <ele>1537.29</ele>
        <time>2020-03-13T14:42:46Z</time>
      </trkpt>
      <trkpt lat="45.22202" lon="6.008">
        <ele>1535.36</ele>
        <time>2020-03-13T14:42:47Z</time>
      </trkpt>
      <trkpt lat="45.22196" lon="6.0078">
        <ele>1531.52</ele>
        <time>2020-03-13T14:42:49Z</time>
      </trkpt>
      <trkpt lat="45.22194" lon="6.00771">
        <ele>1532.48</ele>
        <time>2020-03-13T14:42:50Z</time>
      </trkpt>
      <trkpt lat="45.22193" lon="6.00766">
        <ele>1532.48</ele>
        <time>2020-03-13T14:42:51Z</time>
      </trkpt>
      <trkpt lat="45.22195" lon="6.00774">
        <ele>1533.44</ele>
        <time>2020-03-13T14:43:06Z</time>
      </trkpt>
      <trkpt lat="45.22195" lon="6.0077">
        <ele>1533.44</ele>
        <time>2020-03-13T14:43:25Z</time>
      </trkpt>
      <trkpt lat="45.22195" lon="6.00768">
        <ele>1533.44</ele>
        <time>2020-03-13T14:43:26Z</time>
      </trkpt>
      <trkpt lat="45.22194" lon="6.00765">
        <ele>1531.52</ele>
        <time>2020-03-13T14:43:27Z</time>
      </trkpt>
      <trkpt lat="45.22193" lon="6.00754">
        <ele>1528.63</ele>
        <time>2020-03-13T14:43:29Z</time>
      </trkpt>
      <trkpt lat="45.22193" lon="6.00747">
        <ele>1528.15</ele>
        <time>2020-03-13T14:43:30Z</time>
      </trkpt>
      <trkpt lat="45.22193" lon="6.0074">
        <ele>1526.71</ele>
        <time>2020-03-13T14:43:31Z</time>
      </trkpt>
      <trkpt lat="45.22192" lon="6.00732">
        <ele>1524.79</ele>
        <time>2020-03-13T14:43:32Z</time>
      </trkpt>
      <trkpt lat="45.22192" lon="6.00724">
        <ele>1524.79</ele>
        <time>2020-03-13T14:43:33Z</time>
      </trkpt>
      <trkpt lat="45.22192" lon="6.0072">
        <ele>1524.31</ele>
        <time>2020-03-13T14:43:34Z</time>
      </trkpt>
      <trkpt lat="45.22191" lon="6.00722">
        <ele>1524.31</ele>
        <time>2020-03-13T14:43:42Z</time>
      </trkpt>
      <trkpt lat="45.2219" lon="6.00722">
        <ele>1524.31</ele>
        <time>2020-03-13T14:43:56Z</time>
      </trkpt>
      <trkpt lat="45.22191" lon="6.00718">
        <ele>1522.39</ele>
        <time>2020-03-13T14:44:00Z</time>
      </trkpt>
      <trkpt lat="45.22191" lon="6.00714">
        <ele>1521.9</ele>
        <time>2020-03-13T14:44:03Z</time>
      </trkpt>
      <trkpt lat="45.22192" lon="6.00711">
        <ele>1520.46</ele>
        <time>2020-03-13T14:44:04Z</time>
      </trkpt>
      <trkpt lat="45.22192" lon="6.00708">
        <ele>1519.5</ele>
        <time>2020-03-13T14:44:05Z</time>
      </trkpt>
      <trkpt lat="45.22194" lon="6.00697">
        <ele>1516.62</ele>
        <time>2020-03-13T14:44:10Z</time>
      </trkpt>
      <trkpt lat="45.22194" lon="6.00695">
        <ele>1516.62</ele>
        <time>2020-03-13T14:44:11Z</time>
      </trkpt>
      <trkpt lat="45.22194" lon="6.00692">
        <ele>1515.18</ele>
        <time>2020-03-13T14:44:13Z</time>
      </trkpt>
      <trkpt lat="45.22192" lon="6.00679">
        <ele>1512.77</ele>
        <time>2020-03-13T14:44:26Z</time>
      </trkpt>
      <trkpt lat="45.22191" lon="6.00674">
        <ele>1511.81</ele>
        <time>2020-03-13T14:44:32Z</time>
      </trkpt>
      <trkpt lat="45.22191" lon="6.00672">
        <ele>1510.85</ele>
        <time>2020-03-13T14:44:33Z</time>
      </trkpt>
      <trkpt lat="45.22191" lon="6.00668">
        <ele>1509.89</ele>
        <time>2020-03-13T14:44:38Z</time>
      </trkpt>
      <trkpt lat="45.22192" lon="6.00665">
        <ele>1508.93</ele>
        <time>2020-03-13T14:44:39Z</time>
      </trkpt>
      <trkpt lat="45.22193" lon="6.00661">
        <ele>1507.97</ele>
        <time>2020-03-13T14:44:40Z</time>
      </trkpt>
      <trkpt lat="45.22194" lon="6.00656">
        <ele>1507.48</ele>
        <time>2020-03-13T14:44:41Z</time>
      </trkpt>
      <trkpt lat="45.22195" lon="6.0065">
        <ele>1506.52</ele>
        <time>2020-03-13T14:44:42Z</time>
      </trkpt>
      <trkpt lat="45.22198" lon="6.00642">
        <ele>1504.12</ele>
        <time>2020-03-13T14:44:43Z</time>
      </trkpt>
      <trkpt lat="45.22202" lon="6.00635">
        <ele>1502.2</ele>
        <time>2020-03-13T14:44:44Z</time>
      </trkpt>
      <trkpt lat="45.22206" lon="6.00629">
        <ele>1501.72</ele>
        <time>2020-03-13T14:44:45Z</time>
      </trkpt>
      <trkpt lat="45.22209" lon="6.00623">
        <ele>1501.72</ele>
        <time>2020-03-13T14:44:46Z</time>
      </trkpt>
      <trkpt lat="45.22208" lon="6.00615">
        <ele>1501.72</ele>
        <time>2020-03-13T14:45:03Z</time>
      </trkpt>
      <trkpt lat="45.22206" lon="6.00607">
        <ele>1501.72</ele>
        <time>2020-03-13T14:45:26Z</time>
      </trkpt>
      <trkpt lat="45.22204" lon="6.00607">
        <ele>1501.72</ele>
        <time>2020-03-13T14:45:48Z</time>
      </trkpt>
      <trkpt lat="45.22205" lon="6.006">
        <ele>1501.24</ele>
        <time>2020-03-13T14:45:51Z</time>
      </trkpt>
      <trkpt lat="45.22206" lon="6.00596">
        <ele>1500.27</ele>
        <time>2020-03-13T14:45:52Z</time>
      </trkpt>
      <trkpt lat="45.22207" lon="6.00592">
        <ele>1500.27</ele>
        <time>2020-03-13T14:45:53Z</time>
      </trkpt>
      <trkpt lat="45.22211" lon="6.00574">
        <ele>1496.91</ele>
        <time>2020-03-13T14:45:56Z</time>
      </trkpt>
      <trkpt lat="45.22218" lon="6.00562">
        <ele>1492.1</ele>
        <time>2020-03-13T14:45:58Z</time>
      </trkpt>
      <trkpt lat="45.22219" lon="6.00555">
        <ele>1490.18</ele>
        <time>2020-03-13T14:45:59Z</time>
      </trkpt>
      <trkpt lat="45.22221" lon="6.0055">
        <ele>1488.26</ele>
        <time>2020-03-13T14:46:00Z</time>
      </trkpt>
      <trkpt lat="45.22222" lon="6.00543">
        <ele>1485.85</ele>
        <time>2020-03-13T14:46:01Z</time>
      </trkpt>
      <trkpt lat="45.22222" lon="6.00535">
        <ele>1483.45</ele>
        <time>2020-03-13T14:46:02Z</time>
      </trkpt>
      <trkpt lat="45.22219" lon="6.00528">
        <ele>1482.49</ele>
        <time>2020-03-13T14:46:03Z</time>
      </trkpt>
      <trkpt lat="45.22219" lon="6.00522">
        <ele>1482.49</ele>
        <time>2020-03-13T14:46:04Z</time>
      </trkpt>
      <trkpt lat="45.22222" lon="6.00516">
        <ele>1480.09</ele>
        <time>2020-03-13T14:46:05Z</time>
      </trkpt>
      <trkpt lat="45.22223" lon="6.00511">
        <ele>1478.16</ele>
        <time>2020-03-13T14:46:06Z</time>
      </trkpt>
      <trkpt lat="45.22223" lon="6.00506">
        <ele>1478.16</ele>
        <time>2020-03-13T14:46:07Z</time>
      </trkpt>
      <trkpt lat="45.22223" lon="6.00502">
        <ele>1477.68</ele>
        <time>2020-03-13T14:46:08Z</time>
      </trkpt>
      <trkpt lat="45.22224" lon="6.00499">
        <ele>1475.76</ele>
        <time>2020-03-13T14:46:09Z</time>
      </trkpt>
      <trkpt lat="45.22227" lon="6.00496">
        <ele>1473.84</ele>
        <time>2020-03-13T14:46:10Z</time>
      </trkpt>
      <trkpt lat="45.22229" lon="6.00491">
        <ele>1470.47</ele>
        <time>2020-03-13T14:46:12Z</time>
      </trkpt>
      <trkpt lat="45.22229" lon="6.0049">
        <ele>1470.47</ele>
        <time>2020-03-13T14:46:13Z</time>
      </trkpt>
      <trkpt lat="45.22226" lon="6.0049">
        <ele>1471.44</ele>
        <time>2020-03-13T14:46:26Z</time>
      </trkpt>
      <trkpt lat="45.22225" lon="6.00486">
        <ele>1470.47</ele>
        <time>2020-03-13T14:46:28Z</time>
      </trkpt>
      <trkpt lat="45.22226" lon="6.00481">
        <ele>1469.99</ele>
        <time>2020-03-13T14:46:29Z</time>
      </trkpt>
      <trkpt lat="45.22227" lon="6.00478">
        <ele>1469.03</ele>
        <time>2020-03-13T14:46:30Z</time>
      </trkpt>
      <trkpt lat="45.22227" lon="6.00473">
        <ele>1467.59</ele>
        <time>2020-03-13T14:46:31Z</time>
      </trkpt>
      <trkpt lat="45.22227" lon="6.00468">
        <ele>1466.63</ele>
        <time>2020-03-13T14:46:32Z</time>
      </trkpt>
      <trkpt lat="45.22229" lon="6.00463">
        <ele>1465.19</ele>
        <time>2020-03-13T14:46:33Z</time>
      </trkpt>
      <trkpt lat="45.2223" lon="6.00457">
        <ele>1464.71</ele>
        <time>2020-03-13T14:46:34Z</time>
      </trkpt>
      <trkpt lat="45.2223" lon="6.00452">
        <ele>1463.26</ele>
        <time>2020-03-13T14:46:35Z</time>
      </trkpt>
      <trkpt lat="45.22231" lon="6.00448">
        <ele>1461.82</ele>
        <time>2020-03-13T14:46:36Z</time>
      </trkpt>
      <trkpt lat="45.22232" lon="6.00442">
        <ele>1460.86</ele>
        <time>2020-03-13T14:46:37Z</time>
      </trkpt>
      <trkpt lat="45.22233" lon="6.00435">
        <ele>1459.42</ele>
        <time>2020-03-13T14:46:38Z</time>
      </trkpt>
      <trkpt lat="45.22234" lon="6.00429">
        <ele>1458.46</ele>
        <time>2020-03-13T14:46:39Z</time>
      </trkpt>
      <trkpt lat="45.22235" lon="6.00424">
        <ele>1456.05</ele>
        <time>2020-03-13T14:46:40Z</time>
      </trkpt>
      <trkpt lat="45.22237" lon="6.00421">
        <ele>1454.13</ele>
        <time>2020-03-13T14:46:41Z</time>
      </trkpt>
      <trkpt lat="45.22239" lon="6.0042">
        <ele>1452.69</ele>
        <time>2020-03-13T14:46:42Z</time>
      </trkpt>
      <trkpt lat="45.22244" lon="6.0042">
        <ele>1451.25</ele>
        <time>2020-03-13T14:46:43Z</time>
      </trkpt>
      <trkpt lat="45.22248" lon="6.00419">
        <ele>1449.81</ele>
        <time>2020-03-13T14:46:44Z</time>
      </trkpt>
      <trkpt lat="45.2225" lon="6.00416">
        <ele>1448.84</ele>
        <time>2020-03-13T14:46:45Z</time>
      </trkpt>
      <trkpt lat="45.22255" lon="6.00413">
        <ele>1446.92</ele>
        <time>2020-03-13T14:46:46Z</time>
      </trkpt>
      <trkpt lat="45.22258" lon="6.00409">
        <ele>1445</ele>
        <time>2020-03-13T14:46:47Z</time>
      </trkpt>
      <trkpt lat="45.22259" lon="6.00403">
        <ele>1443.08</ele>
        <time>2020-03-13T14:46:48Z</time>
      </trkpt>
      <trkpt lat="45.22262" lon="6.00399">
        <ele>1440.67</ele>
        <time>2020-03-13T14:46:49Z</time>
      </trkpt>
      <trkpt lat="45.22265" lon="6.00392">
        <ele>1438.27</ele>
        <time>2020-03-13T14:46:50Z</time>
      </trkpt>
      <trkpt lat="45.22268" lon="6.00385">
        <ele>1435.39</ele>
        <time>2020-03-13T14:46:51Z</time>
      </trkpt>
      <trkpt lat="45.22273" lon="6.00373">
        <ele>1434.42</ele>
        <time>2020-03-13T14:46:53Z</time>
      </trkpt>
      <trkpt lat="45.22279" lon="6.00369">
        <ele>1432.02</ele>
        <time>2020-03-13T14:46:55Z</time>
      </trkpt>
      <trkpt lat="45.22282" lon="6.00369">
        <ele>1431.06</ele>
        <time>2020-03-13T14:46:56Z</time>
      </trkpt>
      <trkpt lat="45.22286" lon="6.0037">
        <ele>1431.06</ele>
        <time>2020-03-13T14:46:57Z</time>
      </trkpt>
      <trkpt lat="45.22289" lon="6.0037">
        <ele>1430.1</ele>
        <time>2020-03-13T14:46:58Z</time>
      </trkpt>
      <trkpt lat="45.22292" lon="6.00369">
        <ele>1429.14</ele>
        <time>2020-03-13T14:46:59Z</time>
      </trkpt>
      <trkpt lat="45.22294" lon="6.00369">
        <ele>1428.18</ele>
        <time>2020-03-13T14:47:00Z</time>
      </trkpt>
      <trkpt lat="45.22296" lon="6.00368">
        <ele>1426.73</ele>
        <time>2020-03-13T14:47:01Z</time>
      </trkpt>
      <trkpt lat="45.22296" lon="6.00366">
        <ele>1424.81</ele>
        <time>2020-03-13T14:47:02Z</time>
      </trkpt>
      <trkpt lat="45.22298" lon="6.00362">
        <ele>1424.33</ele>
        <time>2020-03-13T14:47:03Z</time>
      </trkpt>
      <trkpt lat="45.223" lon="6.00358">
        <ele>1423.37</ele>
        <time>2020-03-13T14:47:04Z</time>
      </trkpt>
      <trkpt lat="45.22301" lon="6.00353">
        <ele>1421.93</ele>
        <time>2020-03-13T14:47:05Z</time>
      </trkpt>
      <trkpt lat="45.22302" lon="6.00349">
        <ele>1420.97</ele>
        <time>2020-03-13T14:47:06Z</time>
      </trkpt>
      <trkpt lat="45.22302" lon="6.00344">
        <ele>1420.49</ele>
        <time>2020-03-13T14:47:07Z</time>
      </trkpt>
      <trkpt lat="45.22303" lon="6.00339">
        <ele>1420</ele>
        <time>2020-03-13T14:47:08Z</time>
      </trkpt>
      <trkpt lat="45.22306" lon="6.00335">
        <ele>1419.04</ele>
        <time>2020-03-13T14:47:09Z</time>
      </trkpt>
      <trkpt lat="45.22308" lon="6.0033">
        <ele>1419.04</ele>
        <time>2020-03-13T14:47:10Z</time>
      </trkpt>
      <trkpt lat="45.22311" lon="6.00325">
        <ele>1418.56</ele>
        <time>2020-03-13T14:47:11Z</time>
      </trkpt>
      <trkpt lat="45.22311" lon="6.0031">
        <ele>1418.08</ele>
        <time>2020-03-13T14:47:20Z</time>
      </trkpt>
      <trkpt lat="45.22308" lon="6.00302">
        <ele>1417.6</ele>
        <time>2020-03-13T14:47:46Z</time>
      </trkpt>
      <trkpt lat="45.2231" lon="6.00299">
        <ele>1417.6</ele>
        <time>2020-03-13T14:48:11Z</time>
      </trkpt>
      <trkpt lat="45.22313" lon="6.00294">
        <ele>1417.6</ele>
        <time>2020-03-13T14:48:33Z</time>
      </trkpt>
      <trkpt lat="45.22312" lon="6.00282">
        <ele>1417.12</ele>
        <time>2020-03-13T14:48:40Z</time>
      </trkpt>
      <trkpt lat="45.22313" lon="6.00277">
        <ele>1416.16</ele>
        <time>2020-03-13T14:48:41Z</time>
      </trkpt>
      <trkpt lat="45.22311" lon="6.00273">
        <ele>1414.72</ele>
        <time>2020-03-13T14:48:42Z</time>
      </trkpt>
      <trkpt lat="45.2231" lon="6.0027">
        <ele>1414.24</ele>
        <time>2020-03-13T14:48:43Z</time>
      </trkpt>
      <trkpt lat="45.2231" lon="6.00265">
        <ele>1413.76</ele>
        <time>2020-03-13T14:48:44Z</time>
      </trkpt>
      <trkpt lat="45.2231" lon="6.00262">
        <ele>1412.79</ele>
        <time>2020-03-13T14:48:45Z</time>
      </trkpt>
      <trkpt lat="45.2231" lon="6.00258">
        <ele>1412.31</ele>
        <time>2020-03-13T14:48:46Z</time>
      </trkpt>
      <trkpt lat="45.22309" lon="6.00255">
        <ele>1410.87</ele>
        <time>2020-03-13T14:48:47Z</time>
      </trkpt>
      <trkpt lat="45.22306" lon="6.00246">
        <ele>1408.47</ele>
        <time>2020-03-13T14:48:50Z</time>
      </trkpt>
      <trkpt lat="45.22306" lon="6.00243">
        <ele>1407.03</ele>
        <time>2020-03-13T14:48:51Z</time>
      </trkpt>
      <trkpt lat="45.22306" lon="6.0024">
        <ele>1407.03</ele>
        <time>2020-03-13T14:48:52Z</time>
      </trkpt>
      <trkpt lat="45.22306" lon="6.00238">
        <ele>1406.07</ele>
        <time>2020-03-13T14:48:54Z</time>
      </trkpt>
      <trkpt lat="45.22307" lon="6.00235">
        <ele>1405.58</ele>
        <time>2020-03-13T14:48:55Z</time>
      </trkpt>
      <trkpt lat="45.22307" lon="6.00233">
        <ele>1404.62</ele>
        <time>2020-03-13T14:48:56Z</time>
      </trkpt>
      <trkpt lat="45.22307" lon="6.00229">
        <ele>1404.14</ele>
        <time>2020-03-13T14:48:57Z</time>
      </trkpt>
      <trkpt lat="45.22306" lon="6.00224">
        <ele>1402.7</ele>
        <time>2020-03-13T14:48:58Z</time>
      </trkpt>
      <trkpt lat="45.22307" lon="6.00218">
        <ele>1401.74</ele>
        <time>2020-03-13T14:48:59Z</time>
      </trkpt>
      <trkpt lat="45.2231" lon="6.00213">
        <ele>1400.78</ele>
        <time>2020-03-13T14:49:00Z</time>
      </trkpt>
      <trkpt lat="45.22314" lon="6.0021">
        <ele>1398.86</ele>
        <time>2020-03-13T14:49:01Z</time>
      </trkpt>
      <trkpt lat="45.22319" lon="6.00208">
        <ele>1398.37</ele>
        <time>2020-03-13T14:49:02Z</time>
      </trkpt>
      <trkpt lat="45.22323" lon="6.00206">
        <ele>1397.89</ele>
        <time>2020-03-13T14:49:03Z</time>
      </trkpt>
      <trkpt lat="45.22327" lon="6.00205">
        <ele>1396.93</ele>
        <time>2020-03-13T14:49:04Z</time>
      </trkpt>
      <trkpt lat="45.22335" lon="6.00199">
        <ele>1395.49</ele>
        <time>2020-03-13T14:49:06Z</time>
      </trkpt>
      <trkpt lat="45.22341" lon="6.00192">
        <ele>1395.01</ele>
        <time>2020-03-13T14:49:08Z</time>
      </trkpt>
      <trkpt lat="45.22344" lon="6.00188">
        <ele>1394.05</ele>
        <time>2020-03-13T14:49:09Z</time>
      </trkpt>
      <trkpt lat="45.22348" lon="6.00184">
        <ele>1394.05</ele>
        <time>2020-03-13T14:49:10Z</time>
      </trkpt>
      <trkpt lat="45.22351" lon="6.0018">
        <ele>1394.05</ele>
        <time>2020-03-13T14:49:11Z</time>
      </trkpt>
      <trkpt lat="45.22354" lon="6.00176">
        <ele>1393.57</ele>
        <time>2020-03-13T14:49:12Z</time>
      </trkpt>
      <trkpt lat="45.22359" lon="6.00168">
        <ele>1392.61</ele>
        <time>2020-03-13T14:49:14Z</time>
      </trkpt>
      <trkpt lat="45.22362" lon="6.00166">
        <ele>1392.13</ele>
        <time>2020-03-13T14:49:15Z</time>
      </trkpt>
      <trkpt lat="45.22365" lon="6.00164">
        <ele>1391.65</ele>
        <time>2020-03-13T14:49:16Z</time>
      </trkpt>
      <trkpt lat="45.22367" lon="6.00163">
        <ele>1391.65</ele>
        <time>2020-03-13T14:49:17Z</time>
      </trkpt>
      <trkpt lat="45.22367" lon="6.00166">
        <ele>1391.65</ele>
        <time>2020-03-13T14:49:30Z</time>
      </trkpt>
      <trkpt lat="45.22371" lon="6.00163">
        <ele>1391.17</ele>
        <time>2020-03-13T14:49:45Z</time>
      </trkpt>
      <trkpt lat="45.22372" lon="6.00162">
        <ele>1390.68</ele>
        <time>2020-03-13T14:49:46Z</time>
      </trkpt>
      <trkpt lat="45.22374" lon="6.0016">
        <ele>1390.2</ele>
        <time>2020-03-13T14:49:47Z</time>
      </trkpt>
      <trkpt lat="45.22376" lon="6.00159">
        <ele>1390.2</ele>
        <time>2020-03-13T14:49:48Z</time>
      </trkpt>
      <trkpt lat="45.22379" lon="6.00159">
        <ele>1389.72</ele>
        <time>2020-03-13T14:49:49Z</time>
      </trkpt>
      <trkpt lat="45.22382" lon="6.00158">
        <ele>1389.72</ele>
        <time>2020-03-13T14:49:50Z</time>
      </trkpt>
      <trkpt lat="45.22386" lon="6.00157">
        <ele>1388.76</ele>
        <time>2020-03-13T14:49:51Z</time>
      </trkpt>
      <trkpt lat="45.22389" lon="6.00155">
        <ele>1388.28</ele>
        <time>2020-03-13T14:49:52Z</time>
      </trkpt>
      <trkpt lat="45.22407" lon="6.00146">
        <ele>1385.4</ele>
        <time>2020-03-13T14:49:56Z</time>
      </trkpt>
      <trkpt lat="45.22412" lon="6.00143">
        <ele>1384.92</ele>
        <time>2020-03-13T14:49:57Z</time>
      </trkpt>
      <trkpt lat="45.22416" lon="6.00138">
        <ele>1384.92</ele>
        <time>2020-03-13T14:49:58Z</time>
      </trkpt>
      <trkpt lat="45.2242" lon="6.00135">
        <ele>1383.96</ele>
        <time>2020-03-13T14:49:59Z</time>
      </trkpt>
      <trkpt lat="45.22423" lon="6.0013">
        <ele>1383.47</ele>
        <time>2020-03-13T14:50:00Z</time>
      </trkpt>
      <trkpt lat="45.22425" lon="6.00125">
        <ele>1382.51</ele>
        <time>2020-03-13T14:50:01Z</time>
      </trkpt>
      <trkpt lat="45.22429" lon="6.00121">
        <ele>1381.55</ele>
        <time>2020-03-13T14:50:02Z</time>
      </trkpt>
      <trkpt lat="45.22435" lon="6.00112">
        <ele>1381.07</ele>
        <time>2020-03-13T14:50:04Z</time>
      </trkpt>
      <trkpt lat="45.22441" lon="6.00103">
        <ele>1379.63</ele>
        <time>2020-03-13T14:50:06Z</time>
      </trkpt>
      <trkpt lat="45.22443" lon="6.001">
        <ele>1378.67</ele>
        <time>2020-03-13T14:50:07Z</time>
      </trkpt>
      <trkpt lat="45.22447" lon="6.00096">
        <ele>1378.67</ele>
        <time>2020-03-13T14:50:08Z</time>
      </trkpt>
      <trkpt lat="45.22449" lon="6.00093">
        <ele>1377.71</ele>
        <time>2020-03-13T14:50:09Z</time>
      </trkpt>
      <trkpt lat="45.22451" lon="6.0009">
        <ele>1377.71</ele>
        <time>2020-03-13T14:50:10Z</time>
      </trkpt>
      <trkpt lat="45.22453" lon="6.00088">
        <ele>1376.75</ele>
        <time>2020-03-13T14:50:11Z</time>
      </trkpt>
      <trkpt lat="45.22457" lon="6.00086">
        <ele>1375.78</ele>
        <time>2020-03-13T14:50:15Z</time>
      </trkpt>
      <trkpt lat="45.2246" lon="6.00082">
        <ele>1374.82</ele>
        <time>2020-03-13T14:50:17Z</time>
      </trkpt>
      <trkpt lat="45.22462" lon="6.00079">
        <ele>1374.34</ele>
        <time>2020-03-13T14:50:18Z</time>
      </trkpt>
      <trkpt lat="45.2247" lon="6.0006">
        <ele>1372.9</ele>
        <time>2020-03-13T14:50:27Z</time>
      </trkpt>
      <trkpt lat="45.22478" lon="6.00042">
        <ele>1370.5</ele>
        <time>2020-03-13T14:50:47Z</time>
      </trkpt>
      <trkpt lat="45.2248" lon="6.00036">
        <ele>1370.02</ele>
        <time>2020-03-13T14:50:48Z</time>
      </trkpt>
      <trkpt lat="45.22482" lon="6.00031">
        <ele>1369.05</ele>
        <time>2020-03-13T14:50:49Z</time>
      </trkpt>
      <trkpt lat="45.22486" lon="6.00027">
        <ele>1366.65</ele>
        <time>2020-03-13T14:50:50Z</time>
      </trkpt>
      <trkpt lat="45.22489" lon="6.00022">
        <ele>1366.65</ele>
        <time>2020-03-13T14:50:51Z</time>
      </trkpt>
      <trkpt lat="45.22491" lon="6.00014">
        <ele>1365.21</ele>
        <time>2020-03-13T14:50:52Z</time>
      </trkpt>
      <trkpt lat="45.22493" lon="6.00008">
        <ele>1365.21</ele>
        <time>2020-03-13T14:50:53Z</time>
      </trkpt>
      <trkpt lat="45.22496" lon="6.00001">
        <ele>1363.77</ele>
        <time>2020-03-13T14:50:54Z</time>
      </trkpt>
      <trkpt lat="45.22498" lon="5.99995">
        <ele>1362.81</ele>
        <time>2020-03-13T14:50:55Z</time>
      </trkpt>
      <trkpt lat="45.225" lon="5.99987">
        <ele>1361.84</ele>
        <time>2020-03-13T14:50:56Z</time>
      </trkpt>
      <trkpt lat="45.22501" lon="5.9998">
        <ele>1361.84</ele>
        <time>2020-03-13T14:50:57Z</time>
      </trkpt>
      <trkpt lat="45.22508" lon="5.99953">
        <ele>1359.44</ele>
        <time>2020-03-13T14:51:07Z</time>
      </trkpt>
      <trkpt lat="45.22514" lon="5.99958">
        <ele>1358.96</ele>
        <time>2020-03-13T14:51:30Z</time>
      </trkpt>
      <trkpt lat="45.22512" lon="5.99958">
        <ele>1358.96</ele>
        <time>2020-03-13T14:51:53Z</time>
      </trkpt>
      <trkpt lat="45.22519" lon="5.99953">
        <ele>1358.96</ele>
        <time>2020-03-13T14:52:15Z</time>
      </trkpt>
      <trkpt lat="45.22514" lon="5.99952">
        <ele>1358.48</ele>
        <time>2020-03-13T14:52:34Z</time>
      </trkpt>
      <trkpt lat="45.22512" lon="5.99945">
        <ele>1358.48</ele>
        <time>2020-03-13T14:52:55Z</time>
      </trkpt>
      <trkpt lat="45.22517" lon="5.99927">
        <ele>1355.6</ele>
        <time>2020-03-13T14:53:12Z</time>
      </trkpt>
      <trkpt lat="45.22519" lon="5.99906">
        <ele>1353.67</ele>
        <time>2020-03-13T14:53:30Z</time>
      </trkpt>
      <trkpt lat="45.22522" lon="5.99879">
        <ele>1351.27</ele>
        <time>2020-03-13T14:53:47Z</time>
      </trkpt>
      <trkpt lat="45.22529" lon="5.99861">
        <ele>1349.35</ele>
        <time>2020-03-13T14:54:01Z</time>
      </trkpt>
      <trkpt lat="45.22534" lon="5.99842">
        <ele>1346.94</ele>
        <time>2020-03-13T14:54:16Z</time>
      </trkpt>
      <trkpt lat="45.22535" lon="5.99827">
        <ele>1345.5</ele>
        <time>2020-03-13T14:54:23Z</time>
      </trkpt>
      <trkpt lat="45.22537" lon="5.99811">
        <ele>1344.54</ele>
        <time>2020-03-13T14:54:33Z</time>
      </trkpt>
      <trkpt lat="45.22537" lon="5.99809">
        <ele>1344.06</ele>
        <time>2020-03-13T14:54:34Z</time>
      </trkpt>
      <trkpt lat="45.22537" lon="5.99807">
        <ele>1344.06</ele>
        <time>2020-03-13T14:54:35Z</time>
      </trkpt>
      <trkpt lat="45.22537" lon="5.99806">
        <ele>1344.06</ele>
        <time>2020-03-13T14:54:36Z</time>
      </trkpt>
      <trkpt lat="45.22535" lon="5.99796">
        <ele>1343.1</ele>
        <time>2020-03-13T14:54:43Z</time>
      </trkpt>
      <trkpt lat="45.22523" lon="5.99783">
        <ele>1340.7</ele>
        <time>2020-03-13T14:54:59Z</time>
      </trkpt>
      <trkpt lat="45.22519" lon="5.99802">
        <ele>1339.25</ele>
        <time>2020-03-13T14:55:16Z</time>
      </trkpt>
      <trkpt lat="45.22515" lon="5.99824">
        <ele>1337.81</ele>
        <time>2020-03-13T14:55:32Z</time>
      </trkpt>
      <trkpt lat="45.22513" lon="5.99828">
        <ele>1337.81</ele>
        <time>2020-03-13T14:55:36Z</time>
      </trkpt>
      <trkpt lat="45.22512" lon="5.9983">
        <ele>1337.33</ele>
        <time>2020-03-13T14:55:37Z</time>
      </trkpt>
      <trkpt lat="45.22503" lon="5.99843">
        <ele>1336.85</ele>
        <time>2020-03-13T14:55:50Z</time>
      </trkpt>
      <trkpt lat="45.22501" lon="5.99846">
        <ele>1336.85</ele>
        <time>2020-03-13T14:55:52Z</time>
      </trkpt>
      <trkpt lat="45.22487" lon="5.99861">
        <ele>1335.41</ele>
        <time>2020-03-13T14:56:09Z</time>
      </trkpt>
      <trkpt lat="45.22488" lon="5.9987">
        <ele>1335.41</ele>
        <time>2020-03-13T14:56:30Z</time>
      </trkpt>
      <trkpt lat="45.22484" lon="5.99875">
        <ele>1334.93</ele>
        <time>2020-03-13T14:56:40Z</time>
      </trkpt>
      <trkpt lat="45.22483" lon="5.99875">
        <ele>1334.93</ele>
        <time>2020-03-13T14:56:41Z</time>
      </trkpt>
      <trkpt lat="45.22472" lon="5.99888">
        <ele>1333.97</ele>
        <time>2020-03-13T14:57:00Z</time>
      </trkpt>
      <trkpt lat="45.22447" lon="5.99888">
        <ele>1333.01</ele>
        <time>2020-03-13T14:57:18Z</time>
      </trkpt>
      <trkpt lat="45.22441" lon="5.99886">
        <ele>1332.52</ele>
        <time>2020-03-13T14:57:33Z</time>
      </trkpt>
      <trkpt lat="45.2244" lon="5.9989">
        <ele>1332.04</ele>
        <time>2020-03-13T14:57:47Z</time>
      </trkpt>
      <trkpt lat="45.22446" lon="5.99895">
        <ele>1331.56</ele>
        <time>2020-03-13T14:58:27Z</time>
      </trkpt>
      <trkpt lat="45.22455" lon="5.99889">
        <ele>1331.56</ele>
        <time>2020-03-13T14:59:02Z</time>
      </trkpt>
      <trkpt lat="45.22449" lon="5.99877">
        <ele>1331.08</ele>
        <time>2020-03-13T14:59:49Z</time>
      </trkpt>
      <trkpt lat="45.22446" lon="5.99878">
        <ele>1332.52</ele>
        <time>2020-03-13T15:00:06Z</time>
      </trkpt>
      <trkpt lat="45.22445" lon="5.99878">
        <ele>1332.52</ele>
        <time>2020-03-13T15:00:21Z</time>
      </trkpt>
      <trkpt lat="45.22446" lon="5.99871">
        <ele>1332.52</ele>
        <time>2020-03-13T15:00:39Z</time>
      </trkpt>
      <trkpt lat="45.22452" lon="5.99858">
        <ele>1331.56</ele>
        <time>2020-03-13T15:00:56Z</time>
      </trkpt>
      <trkpt lat="45.2246" lon="5.99852">
        <ele>1331.08</ele>
        <time>2020-03-13T15:01:11Z</time>
      </trkpt>
      <trkpt lat="45.22472" lon="5.99846">
        <ele>1330.12</ele>
        <time>2020-03-13T15:01:26Z</time>
      </trkpt>
      <trkpt lat="45.22486" lon="5.99835">
        <ele>1329.16</ele>
        <time>2020-03-13T15:01:42Z</time>
      </trkpt>
      <trkpt lat="45.22485" lon="5.99827">
        <ele>1329.16</ele>
        <time>2020-03-13T15:01:59Z</time>
      </trkpt>
      <trkpt lat="45.22485" lon="5.99826">
        <ele>1330.12</ele>
        <time>2020-03-13T15:02:18Z</time>
      </trkpt>
    </trkseg>
  </trk>
</gpx>